<?xml version="1.0" encoding="UTF-8"?>
<gpx version="1.1" creator="2bulu-scraper" xmlns="http://www.topografix.com/GPX/1/1">
  <metadata><name>峨眉山徒步</name><desc>source: 2bulu.com trackId=79067578; exported 2026-09-01T16:07:02.740Z</desc>
    <bounds minlat="29.5226272" minlon="103.3268199" maxlat="29.5742567" maxlon="103.4467288"/>
    <link href="https://www.2bulu.com/track/t-MtzdtpflzwLp%252FR2KBg5Tzw%253D%253D.htm"><text>2bulu 源页面</text></link>
  </metadata>
  <wpt lat="29.5706577" lon="103.4413536"><ele>497</ele><name>
        </name></wpt>
  <wpt lat="29.5690576" lon="103.4405673"><ele>493</ele><name>
        </name></wpt>
  <wpt lat="29.5660576" lon="103.4355678"><ele>537</ele><name>
        </name></wpt>
  <wpt lat="29.565781" lon="103.4338844"><ele>552</ele><name>
        </name></wpt>
  <wpt lat="29.5654845" lon="103.4313948"><ele>584</ele><name>
        </name></wpt>
  <wpt lat="29.5649642" lon="103.4268488"><ele>614</ele><name>
        </name></wpt>
  <wpt lat="29.5651948" lon="103.4258396"><ele>648</ele><name>
        </name></wpt>
  <wpt lat="29.5645214" lon="103.423135"><ele>705</ele><name>
        </name></wpt>
  <wpt lat="29.5648985" lon="103.4213107"><ele>780</ele><name>
        </name></wpt>
  <wpt lat="29.5666975" lon="103.4199052"><ele>811</ele><name>
        </name></wpt>
  <wpt lat="29.5670548" lon="103.4203349"><ele>828</ele><name>
        </name></wpt>
  <wpt lat="29.5703092" lon="103.4170347"><ele>877</ele><name>
        </name></wpt>
  <wpt lat="29.566485" lon="103.4073391"><ele>784</ele><name>
        </name></wpt>
  <wpt lat="29.5717193" lon="103.4018795"><ele>730</ele><name>
        </name></wpt>
  <wpt lat="29.5719736" lon="103.4008831"><ele>740</ele><name>
        </name></wpt>
  <wpt lat="29.5735623" lon="103.393544"><ele>676</ele><name>
        </name></wpt>
  <wpt lat="29.5740246" lon="103.3920331"><ele>650</ele><name>
        </name></wpt>
  <wpt lat="29.5694037" lon="103.3909381"><ele>665</ele><name>
        </name></wpt>
  <wpt lat="29.5684694" lon="103.3909578"><ele>675</ele><name>
        </name></wpt>
  <wpt lat="29.5660074" lon="103.3896718"><ele>692</ele><name>
        </name></wpt>
  <wpt lat="29.5647736" lon="103.3889157"><ele>699</ele><name>
        </name></wpt>
  <wpt lat="29.5565497" lon="103.386157"><ele>788</ele><name>
        </name></wpt>
  <wpt lat="29.5550442" lon="103.3842741"><ele>950</ele><name>
        </name></wpt>
  <wpt lat="29.5529194" lon="103.3772242"><ele>1098</ele><name>
        </name></wpt>
  <wpt lat="29.5499731" lon="103.3569514"><ele>1700</ele><name>
        </name></wpt>
  <wpt lat="29.5605965" lon="103.3516641"><ele>1652</ele><name>
        </name></wpt>
  <wpt lat="29.5627885" lon="103.3507705"><ele>1790</ele><name>
        </name></wpt>
  <wpt lat="29.5614082" lon="103.3453758"><ele>1770</ele><name>
        </name></wpt>
  <wpt lat="29.5592443" lon="103.3436097"><ele>1967</ele><name>
        </name></wpt>
  <wpt lat="29.5586885" lon="103.3442175"><ele>2020</ele><name>
        </name></wpt>
  <trk><name>峨眉山徒步</name>
      <trkseg>
        <trkpt lat="29.5689932" lon="103.4467288"><ele>463.6</ele><time>2026-02-04T22:28:34.000Z</time></trkpt>
        <trkpt lat="29.5689586" lon="103.4466782"><ele>463.6</ele><time>2026-02-04T22:28:44.000Z</time></trkpt>
        <trkpt lat="29.5689329" lon="103.4465735"><ele>463.87</ele><time>2026-02-04T22:28:52.000Z</time></trkpt>
        <trkpt lat="29.5688993" lon="103.446446"><ele>464.44</ele><time>2026-02-04T22:29:00.000Z</time></trkpt>
        <trkpt lat="29.5688758" lon="103.4463194"><ele>465.64</ele><time>2026-02-04T22:29:08.000Z</time></trkpt>
        <trkpt lat="29.5688504" lon="103.4462009"><ele>467.74</ele><time>2026-02-04T22:29:17.000Z</time></trkpt>
        <trkpt lat="29.5688208" lon="103.4460926"><ele>468.21</ele><time>2026-02-04T22:29:25.000Z</time></trkpt>
        <trkpt lat="29.5687958" lon="103.4459818"><ele>467.99</ele><time>2026-02-04T22:29:33.000Z</time></trkpt>
        <trkpt lat="29.5687904" lon="103.4458762"><ele>468.67</ele><time>2026-02-04T22:29:41.000Z</time></trkpt>
        <trkpt lat="29.5687636" lon="103.4457615"><ele>468.81</ele><time>2026-02-04T22:29:51.000Z</time></trkpt>
        <trkpt lat="29.5687207" lon="103.4456581"><ele>468.31</ele><time>2026-02-04T22:29:59.000Z</time></trkpt>
        <trkpt lat="29.5686697" lon="103.4455647"><ele>468.4</ele><time>2026-02-04T22:30:09.000Z</time></trkpt>
        <trkpt lat="29.5686379" lon="103.4454588"><ele>467.48</ele><time>2026-02-04T22:30:17.000Z</time></trkpt>
        <trkpt lat="29.5686117" lon="103.445339"><ele>466.22</ele><time>2026-02-04T22:30:25.000Z</time></trkpt>
        <trkpt lat="29.5686123" lon="103.4452239"><ele>466.66</ele><time>2026-02-04T22:30:33.000Z</time></trkpt>
        <trkpt lat="29.5685747" lon="103.445118"><ele>467.6</ele><time>2026-02-04T22:30:43.000Z</time></trkpt>
        <trkpt lat="29.5685298" lon="103.4450101"><ele>468.37</ele><time>2026-02-04T22:30:51.000Z</time></trkpt>
        <trkpt lat="29.5685596" lon="103.4449079"><ele>469.39</ele><time>2026-02-04T22:31:01.000Z</time></trkpt>
        <trkpt lat="29.5685601" lon="103.444795"><ele>471.03</ele><time>2026-02-04T22:31:09.000Z</time></trkpt>
        <trkpt lat="29.5685405" lon="103.4446866"><ele>472.45</ele><time>2026-02-04T22:31:17.000Z</time></trkpt>
        <trkpt lat="29.568515" lon="103.4445775"><ele>472.91</ele><time>2026-02-04T22:31:25.000Z</time></trkpt>
        <trkpt lat="29.5684931" lon="103.4444653"><ele>472.84</ele><time>2026-02-04T22:31:33.000Z</time></trkpt>
        <trkpt lat="29.568464" lon="103.4443553"><ele>472.55</ele><time>2026-02-04T22:31:41.000Z</time></trkpt>
        <trkpt lat="29.5684446" lon="103.4442471"><ele>472.2</ele><time>2026-02-04T22:31:49.000Z</time></trkpt>
        <trkpt lat="29.568404" lon="103.4441323"><ele>471.66</ele><time>2026-02-04T22:31:59.000Z</time></trkpt>
        <trkpt lat="29.5683561" lon="103.4440306"><ele>471.82</ele><time>2026-02-04T22:32:07.000Z</time></trkpt>
        <trkpt lat="29.5683082" lon="103.4439279"><ele>472.09</ele><time>2026-02-04T22:32:16.000Z</time></trkpt>
        <trkpt lat="29.5682631" lon="103.4438208"><ele>472.39</ele><time>2026-02-04T22:32:26.000Z</time></trkpt>
        <trkpt lat="29.5682578" lon="103.4437127"><ele>473.01</ele><time>2026-02-04T22:32:40.000Z</time></trkpt>
        <trkpt lat="29.5682343" lon="103.4436141"><ele>473.42</ele><time>2026-02-04T22:33:02.000Z</time></trkpt>
        <trkpt lat="29.5682759" lon="103.4435251"><ele>473.94</ele><time>2026-02-04T22:33:27.000Z</time></trkpt>
        <trkpt lat="29.5683466" lon="103.4434431"><ele>474.06</ele><time>2026-02-04T22:33:37.000Z</time></trkpt>
        <trkpt lat="29.5683901" lon="103.4433427"><ele>474.6</ele><time>2026-02-04T22:33:47.000Z</time></trkpt>
        <trkpt lat="29.5684675" lon="103.4432784"><ele>475.28</ele><time>2026-02-04T22:33:57.000Z</time></trkpt>
        <trkpt lat="29.5685571" lon="103.4432447"><ele>475.86</ele><time>2026-02-04T22:34:07.000Z</time></trkpt>
        <trkpt lat="29.5686528" lon="103.4432302"><ele>476.5</ele><time>2026-02-04T22:34:29.000Z</time></trkpt>
        <trkpt lat="29.5687274" lon="103.4431757"><ele>477.33</ele><time>2026-02-04T22:34:43.000Z</time></trkpt>
        <trkpt lat="29.5688057" lon="103.4431258"><ele>477.5</ele><time>2026-02-04T22:34:52.000Z</time></trkpt>
        <trkpt lat="29.5688511" lon="103.4430334"><ele>476.83</ele><time>2026-02-04T22:35:02.000Z</time></trkpt>
        <trkpt lat="29.5688648" lon="103.4429245"><ele>476.09</ele><time>2026-02-04T22:35:11.000Z</time></trkpt>
        <trkpt lat="29.5688816" lon="103.4428131"><ele>476.18</ele><time>2026-02-04T22:35:19.000Z</time></trkpt>
        <trkpt lat="29.5688858" lon="103.4427041"><ele>476.39</ele><time>2026-02-04T22:35:27.000Z</time></trkpt>
        <trkpt lat="29.5688911" lon="103.4425844"><ele>477.42</ele><time>2026-02-04T22:35:37.000Z</time></trkpt>
        <trkpt lat="29.568907" lon="103.4424735"><ele>478.52</ele><time>2026-02-04T22:35:45.000Z</time></trkpt>
        <trkpt lat="29.5689347" lon="103.4423525"><ele>479.38</ele><time>2026-02-04T22:35:55.000Z</time></trkpt>
        <trkpt lat="29.5689576" lon="103.4422338"><ele>481.05</ele><time>2026-02-04T22:36:05.000Z</time></trkpt>
        <trkpt lat="29.5689699" lon="103.4421223"><ele>483.02</ele><time>2026-02-04T22:36:15.000Z</time></trkpt>
        <trkpt lat="29.5689925" lon="103.4420201"><ele>485.07</ele><time>2026-02-04T22:36:25.000Z</time></trkpt>
        <trkpt lat="29.5690167" lon="103.4419177"><ele>486.88</ele><time>2026-02-04T22:36:35.000Z</time></trkpt>
        <trkpt lat="29.5690345" lon="103.4417976"><ele>488.37</ele><time>2026-02-04T22:36:45.000Z</time></trkpt>
        <trkpt lat="29.5690619" lon="103.4416762"><ele>488.96</ele><time>2026-02-04T22:36:55.000Z</time></trkpt>
        <trkpt lat="29.5690942" lon="103.4415539"><ele>487.98</ele><time>2026-02-04T22:37:05.000Z</time></trkpt>
        <trkpt lat="29.5691206" lon="103.4414277"><ele>487.92</ele><time>2026-02-04T22:37:15.000Z</time></trkpt>
        <trkpt lat="29.5691372" lon="103.4413034"><ele>488.26</ele><time>2026-02-04T22:37:25.000Z</time></trkpt>
        <trkpt lat="29.5691552" lon="103.4411787"><ele>489.08</ele><time>2026-02-04T22:37:35.000Z</time></trkpt>
        <trkpt lat="29.5692039" lon="103.4410663"><ele>489.09</ele><time>2026-02-04T22:37:45.000Z</time></trkpt>
        <trkpt lat="29.5692779" lon="103.4409831"><ele>489.76</ele><time>2026-02-04T22:37:55.000Z</time></trkpt>
        <trkpt lat="29.5693416" lon="103.4409146"><ele>489.95</ele><time>2026-02-04T22:38:09.000Z</time></trkpt>
        <trkpt lat="29.5694278" lon="103.440907"><ele>490.24</ele><time>2026-02-04T22:38:45.000Z</time></trkpt>
        <trkpt lat="29.5695145" lon="103.4409455"><ele>489.81</ele><time>2026-02-04T22:38:51.000Z</time></trkpt>
        <trkpt lat="29.5696131" lon="103.4409923"><ele>489.9</ele><time>2026-02-04T22:38:59.000Z</time></trkpt>
        <trkpt lat="29.5697119" lon="103.4410137"><ele>490</ele><time>2026-02-04T22:39:07.000Z</time></trkpt>
        <trkpt lat="29.5698201" lon="103.4410188"><ele>491.07</ele><time>2026-02-04T22:39:17.000Z</time></trkpt>
        <trkpt lat="29.5699186" lon="103.4410372"><ele>492.86</ele><time>2026-02-04T22:39:26.000Z</time></trkpt>
        <trkpt lat="29.5700086" lon="103.4410777"><ele>494.3</ele><time>2026-02-04T22:39:34.000Z</time></trkpt>
        <trkpt lat="29.5700905" lon="103.4411306"><ele>494.51</ele><time>2026-02-04T22:39:42.000Z</time></trkpt>
        <trkpt lat="29.5701682" lon="103.4411867"><ele>494.75</ele><time>2026-02-04T22:39:50.000Z</time></trkpt>
        <trkpt lat="29.5702513" lon="103.4412474"><ele>494.91</ele><time>2026-02-04T22:39:58.000Z</time></trkpt>
        <trkpt lat="29.5703339" lon="103.4413091"><ele>495.33</ele><time>2026-02-04T22:40:06.000Z</time></trkpt>
        <trkpt lat="29.5704146" lon="103.441361"><ele>495.85</ele><time>2026-02-04T22:40:14.000Z</time></trkpt>
        <trkpt lat="29.5705009" lon="103.4414057"><ele>496.8</ele><time>2026-02-04T22:40:22.000Z</time></trkpt>
        <trkpt lat="29.5705864" lon="103.4414542"><ele>496.87</ele><time>2026-02-04T22:40:30.000Z</time></trkpt>
        <trkpt lat="29.5706492" lon="103.4413893"><ele>496.69</ele><time>2026-02-04T22:40:42.000Z</time></trkpt>
        <trkpt lat="29.5706556" lon="103.4412716"><ele>495.86</ele><time>2026-02-04T22:40:50.000Z</time></trkpt>
        <trkpt lat="29.5706261" lon="103.441314"><ele>495.32</ele><time>2026-02-04T22:41:06.000Z</time></trkpt>
        <trkpt lat="29.5706209" lon="103.4413762"><ele>495.03</ele><time>2026-02-04T22:41:12.000Z</time></trkpt>
        <trkpt lat="29.570627" lon="103.441283"><ele>495.69</ele><time>2026-02-04T22:46:16.000Z</time></trkpt>
        <trkpt lat="29.5706598" lon="103.4411716"><ele>496.24</ele><time>2026-02-04T22:46:26.000Z</time></trkpt>
        <trkpt lat="29.5706183" lon="103.4410828"><ele>496.56</ele><time>2026-02-04T22:46:40.000Z</time></trkpt>
        <trkpt lat="29.5705481" lon="103.4410152"><ele>497.57</ele><time>2026-02-04T22:46:54.000Z</time></trkpt>
        <trkpt lat="29.5704681" lon="103.4409491"><ele>497.89</ele><time>2026-02-04T22:47:06.000Z</time></trkpt>
        <trkpt lat="29.5703756" lon="103.4409227"><ele>498.8</ele><time>2026-02-04T22:47:16.000Z</time></trkpt>
        <trkpt lat="29.570382" lon="103.4409968"><ele>499.12</ele><time>2026-02-04T22:47:48.000Z</time></trkpt>
        <trkpt lat="29.5704527" lon="103.4409933"><ele>497.62</ele><time>2026-02-04T22:48:02.000Z</time></trkpt>
        <trkpt lat="29.5704951" lon="103.4410203"><ele>497.26</ele><time>2026-02-04T22:48:10.000Z</time></trkpt>
        <trkpt lat="29.5705944" lon="103.4410406"><ele>497.17</ele><time>2026-02-04T22:48:26.000Z</time></trkpt>
        <trkpt lat="29.5706827" lon="103.4410971"><ele>497.6</ele><time>2026-02-04T22:48:34.000Z</time></trkpt>
        <trkpt lat="29.570743" lon="103.4411893"><ele>498.14</ele><time>2026-02-04T22:48:46.000Z</time></trkpt>
        <trkpt lat="29.5707547" lon="103.4413201"><ele>498.32</ele><time>2026-02-04T22:48:54.000Z</time></trkpt>
        <trkpt lat="29.5706946" lon="103.4414146"><ele>499.07</ele><time>2026-02-04T22:49:04.000Z</time></trkpt>
        <trkpt lat="29.5705918" lon="103.4414677"><ele>498.83</ele><time>2026-02-04T22:49:12.000Z</time></trkpt>
        <trkpt lat="29.570488" lon="103.4414404"><ele>498.75</ele><time>2026-02-04T22:49:20.000Z</time></trkpt>
        <trkpt lat="29.5703974" lon="103.441371"><ele>499.01</ele><time>2026-02-04T22:49:28.000Z</time></trkpt>
        <trkpt lat="29.5703056" lon="103.4412912"><ele>499</ele><time>2026-02-04T22:49:36.000Z</time></trkpt>
        <trkpt lat="29.570212" lon="103.4412243"><ele>499.49</ele><time>2026-02-04T22:49:44.000Z</time></trkpt>
        <trkpt lat="29.5701208" lon="103.4411585"><ele>500.13</ele><time>2026-02-04T22:49:52.000Z</time></trkpt>
        <trkpt lat="29.570023" lon="103.4411063"><ele>500.89</ele><time>2026-02-04T22:50:00.000Z</time></trkpt>
        <trkpt lat="29.5699336" lon="103.4410643"><ele>503.34</ele><time>2026-02-04T22:50:08.000Z</time></trkpt>
        <trkpt lat="29.569826" lon="103.441027"><ele>502.41</ele><time>2026-02-04T22:50:16.000Z</time></trkpt>
        <trkpt lat="29.5697164" lon="103.4409872"><ele>502</ele><time>2026-02-04T22:50:24.000Z</time></trkpt>
        <trkpt lat="29.5695986" lon="103.4409669"><ele>502.03</ele><time>2026-02-04T22:50:32.000Z</time></trkpt>
        <trkpt lat="29.5694924" lon="103.4409491"><ele>501.8</ele><time>2026-02-04T22:50:40.000Z</time></trkpt>
        <trkpt lat="29.5693834" lon="103.4409475"><ele>498.9</ele><time>2026-02-04T22:50:48.000Z</time></trkpt>
        <trkpt lat="29.5692773" lon="103.440953"><ele>497.34</ele><time>2026-02-04T22:50:56.000Z</time></trkpt>
        <trkpt lat="29.5691857" lon="103.4409089"><ele>495.51</ele><time>2026-02-04T22:51:06.000Z</time></trkpt>
        <trkpt lat="29.5690898" lon="103.4408655"><ele>491.34</ele><time>2026-02-04T22:51:15.000Z</time></trkpt>
        <trkpt lat="29.5690934" lon="103.4407263"><ele>490.99</ele><time>2026-02-04T22:52:21.000Z</time></trkpt>
        <trkpt lat="29.5690652" lon="103.4405986"><ele>490.19</ele><time>2026-02-04T22:52:29.000Z</time></trkpt>
        <trkpt lat="29.5690576" lon="103.4405673"><ele>491.02</ele><time>2026-02-04T22:52:31.000Z</time></trkpt>
        <trkpt lat="29.5690475" lon="103.4404645"><ele>491.89</ele><time>2026-02-04T22:52:45.000Z</time></trkpt>
        <trkpt lat="29.5690289" lon="103.4403474"><ele>493.75</ele><time>2026-02-04T22:52:53.000Z</time></trkpt>
        <trkpt lat="29.5690006" lon="103.4402339"><ele>495.83</ele><time>2026-02-04T22:53:01.000Z</time></trkpt>
        <trkpt lat="29.5689439" lon="103.4401413"><ele>496.39</ele><time>2026-02-04T22:53:09.000Z</time></trkpt>
        <trkpt lat="29.5688773" lon="103.440052"><ele>497.85</ele><time>2026-02-04T22:53:19.000Z</time></trkpt>
        <trkpt lat="29.5688139" lon="103.43997"><ele>499.78</ele><time>2026-02-04T22:53:27.000Z</time></trkpt>
        <trkpt lat="29.5687612" lon="103.4398845"><ele>501.35</ele><time>2026-02-04T22:53:35.000Z</time></trkpt>
        <trkpt lat="29.568707" lon="103.439791"><ele>502.67</ele><time>2026-02-04T22:53:43.000Z</time></trkpt>
        <trkpt lat="29.5686435" lon="103.4396937"><ele>503.89</ele><time>2026-02-04T22:53:51.000Z</time></trkpt>
        <trkpt lat="29.5685744" lon="103.4396038"><ele>504.47</ele><time>2026-02-04T22:53:59.000Z</time></trkpt>
        <trkpt lat="29.5685072" lon="103.4395211"><ele>505.56</ele><time>2026-02-04T22:54:07.000Z</time></trkpt>
        <trkpt lat="29.5684332" lon="103.4394348"><ele>507.46</ele><time>2026-02-04T22:54:15.000Z</time></trkpt>
        <trkpt lat="29.5683522" lon="103.4393658"><ele>508.1</ele><time>2026-02-04T22:54:23.000Z</time></trkpt>
        <trkpt lat="29.5682751" lon="103.4392967"><ele>509.42</ele><time>2026-02-04T22:54:31.000Z</time></trkpt>
        <trkpt lat="29.5682044" lon="103.4392269"><ele>509.74</ele><time>2026-02-04T22:54:39.000Z</time></trkpt>
        <trkpt lat="29.568131" lon="103.4391516"><ele>510.05</ele><time>2026-02-04T22:54:47.000Z</time></trkpt>
        <trkpt lat="29.5680533" lon="103.4390586"><ele>510.18</ele><time>2026-02-04T22:54:55.000Z</time></trkpt>
        <trkpt lat="29.5679748" lon="103.4389716"><ele>510.44</ele><time>2026-02-04T22:55:03.000Z</time></trkpt>
        <trkpt lat="29.5679173" lon="103.4388724"><ele>510.51</ele><time>2026-02-04T22:55:11.000Z</time></trkpt>
        <trkpt lat="29.567847" lon="103.4387734"><ele>511.72</ele><time>2026-02-04T22:55:21.000Z</time></trkpt>
        <trkpt lat="29.5677733" lon="103.4386893"><ele>512.13</ele><time>2026-02-04T22:55:29.000Z</time></trkpt>
        <trkpt lat="29.5676862" lon="103.4386106"><ele>512.44</ele><time>2026-02-04T22:55:37.000Z</time></trkpt>
        <trkpt lat="29.5676189" lon="103.438523"><ele>513.17</ele><time>2026-02-04T22:55:45.000Z</time></trkpt>
        <trkpt lat="29.5675603" lon="103.438432"><ele>514.27</ele><time>2026-02-04T22:55:53.000Z</time></trkpt>
        <trkpt lat="29.5674962" lon="103.4383488"><ele>514.63</ele><time>2026-02-04T22:56:01.000Z</time></trkpt>
        <trkpt lat="29.5674305" lon="103.4382643"><ele>515.39</ele><time>2026-02-04T22:56:09.000Z</time></trkpt>
        <trkpt lat="29.567373" lon="103.4381738"><ele>516.77</ele><time>2026-02-04T22:56:17.000Z</time></trkpt>
        <trkpt lat="29.5673153" lon="103.4380762"><ele>518.14</ele><time>2026-02-04T22:56:25.000Z</time></trkpt>
        <trkpt lat="29.5672561" lon="103.4379903"><ele>519.86</ele><time>2026-02-04T22:56:33.000Z</time></trkpt>
        <trkpt lat="29.5671946" lon="103.4378989"><ele>521.2</ele><time>2026-02-04T22:56:41.000Z</time></trkpt>
        <trkpt lat="29.5671532" lon="103.4377961"><ele>522.45</ele><time>2026-02-04T22:56:49.000Z</time></trkpt>
        <trkpt lat="29.567106" lon="103.4377004"><ele>523.46</ele><time>2026-02-04T22:56:57.000Z</time></trkpt>
        <trkpt lat="29.5670528" lon="103.4376049"><ele>524.21</ele><time>2026-02-04T22:57:05.000Z</time></trkpt>
        <trkpt lat="29.5669874" lon="103.4375249"><ele>524.76</ele><time>2026-02-04T22:57:13.000Z</time></trkpt>
        <trkpt lat="29.5669385" lon="103.4374273"><ele>526.28</ele><time>2026-02-04T22:57:21.000Z</time></trkpt>
        <trkpt lat="29.5668902" lon="103.4373187"><ele>526.51</ele><time>2026-02-04T22:57:29.000Z</time></trkpt>
        <trkpt lat="29.5668342" lon="103.437222"><ele>528.17</ele><time>2026-02-04T22:57:37.000Z</time></trkpt>
        <trkpt lat="29.5667721" lon="103.4371323"><ele>530.9</ele><time>2026-02-04T22:57:45.000Z</time></trkpt>
        <trkpt lat="29.5667113" lon="103.4370475"><ele>533.29</ele><time>2026-02-04T22:57:53.000Z</time></trkpt>
        <trkpt lat="29.5666587" lon="103.4369597"><ele>534.79</ele><time>2026-02-04T22:58:01.000Z</time></trkpt>
        <trkpt lat="29.5666008" lon="103.4368797"><ele>536.68</ele><time>2026-02-04T22:58:09.000Z</time></trkpt>
        <trkpt lat="29.566544" lon="103.4367956"><ele>538.2</ele><time>2026-02-04T22:58:17.000Z</time></trkpt>
        <trkpt lat="29.5664902" lon="103.4367082"><ele>539.59</ele><time>2026-02-04T22:58:25.000Z</time></trkpt>
        <trkpt lat="29.5664412" lon="103.4366176"><ele>540.46</ele><time>2026-02-04T22:58:33.000Z</time></trkpt>
        <trkpt lat="29.5663941" lon="103.4365272"><ele>542.37</ele><time>2026-02-04T22:58:41.000Z</time></trkpt>
        <trkpt lat="29.5663542" lon="103.4364328"><ele>542.78</ele><time>2026-02-04T22:58:49.000Z</time></trkpt>
        <trkpt lat="29.5663228" lon="103.4363241"><ele>543.53</ele><time>2026-02-04T22:58:59.000Z</time></trkpt>
        <trkpt lat="29.5662883" lon="103.4362112"><ele>541.9</ele><time>2026-02-04T22:59:09.000Z</time></trkpt>
        <trkpt lat="29.5662558" lon="103.4360961"><ele>542.14</ele><time>2026-02-04T22:59:19.000Z</time></trkpt>
        <trkpt lat="29.5662105" lon="103.4359877"><ele>541.32</ele><time>2026-02-04T22:59:29.000Z</time></trkpt>
        <trkpt lat="29.566191" lon="103.4358689"><ele>542.74</ele><time>2026-02-04T22:59:39.000Z</time></trkpt>
        <trkpt lat="29.5661648" lon="103.4357602"><ele>542.46</ele><time>2026-02-04T22:59:49.000Z</time></trkpt>
        <trkpt lat="29.5661402" lon="103.4356578"><ele>541.59</ele><time>2026-02-04T22:59:59.000Z</time></trkpt>
        <trkpt lat="29.5660906" lon="103.4355707"><ele>540.82</ele><time>2026-02-04T23:00:09.000Z</time></trkpt>
        <trkpt lat="29.5660576" lon="103.4355678"><ele>540.1</ele><time>2026-02-04T23:00:15.000Z</time></trkpt>
        <trkpt lat="29.5659775" lon="103.4355674"><ele>538.85</ele><time>2026-02-04T23:00:53.000Z</time></trkpt>
        <trkpt lat="29.5658896" lon="103.4355209"><ele>536.51</ele><time>2026-02-04T23:01:03.000Z</time></trkpt>
        <trkpt lat="29.565886" lon="103.4355118"><ele>535.89</ele><time>2026-02-04T23:01:05.000Z</time></trkpt>
        <trkpt lat="29.5658737" lon="103.4354259"><ele>535.16</ele><time>2026-02-04T23:01:13.000Z</time></trkpt>
        <trkpt lat="29.5658171" lon="103.4353318"><ele>535.6</ele><time>2026-02-04T23:01:24.000Z</time></trkpt>
        <trkpt lat="29.5657786" lon="103.4352264"><ele>536.06</ele><time>2026-02-04T23:01:46.000Z</time></trkpt>
        <trkpt lat="29.5657134" lon="103.4351466"><ele>537.11</ele><time>2026-02-04T23:02:12.000Z</time></trkpt>
        <trkpt lat="29.5656279" lon="103.4350822"><ele>534.27</ele><time>2026-02-04T23:02:28.000Z</time></trkpt>
        <trkpt lat="29.5655187" lon="103.4350966"><ele>533.56</ele><time>2026-02-04T23:02:36.000Z</time></trkpt>
        <trkpt lat="29.5654775" lon="103.4351064"><ele>534.56</ele><time>2026-02-04T23:02:42.000Z</time></trkpt>
        <trkpt lat="29.565555" lon="103.435101"><ele>534.37</ele><time>2026-02-04T23:02:54.000Z</time></trkpt>
        <trkpt lat="29.5656586" lon="103.4351182"><ele>532.95</ele><time>2026-02-04T23:03:02.000Z</time></trkpt>
        <trkpt lat="29.5657662" lon="103.4351637"><ele>532.16</ele><time>2026-02-04T23:03:12.000Z</time></trkpt>
        <trkpt lat="29.5658418" lon="103.4352521"><ele>532.26</ele><time>2026-02-04T23:03:22.000Z</time></trkpt>
        <trkpt lat="29.5658903" lon="103.4353708"><ele>531.82</ele><time>2026-02-04T23:03:34.000Z</time></trkpt>
        <trkpt lat="29.5659406" lon="103.4354821"><ele>529.93</ele><time>2026-02-04T23:03:44.000Z</time></trkpt>
        <trkpt lat="29.5659856" lon="103.4355893"><ele>529.05</ele><time>2026-02-04T23:03:54.000Z</time></trkpt>
        <trkpt lat="29.5660325" lon="103.4356215"><ele>529.42</ele><time>2026-02-04T23:04:02.000Z</time></trkpt>
        <trkpt lat="29.5661183" lon="103.4356352"><ele>528.42</ele><time>2026-02-04T23:04:48.000Z</time></trkpt>
        <trkpt lat="29.5661461" lon="103.4355529"><ele>525.65</ele><time>2026-02-04T23:05:02.000Z</time></trkpt>
        <trkpt lat="29.5661151" lon="103.4354482"><ele>526.2</ele><time>2026-02-04T23:05:10.000Z</time></trkpt>
        <trkpt lat="29.5660815" lon="103.4353345"><ele>528.1</ele><time>2026-02-04T23:05:18.000Z</time></trkpt>
        <trkpt lat="29.5660402" lon="103.4352183"><ele>528.9</ele><time>2026-02-04T23:05:26.000Z</time></trkpt>
        <trkpt lat="29.5659973" lon="103.4350993"><ele>529.87</ele><time>2026-02-04T23:05:36.000Z</time></trkpt>
        <trkpt lat="29.5659321" lon="103.4350159"><ele>530.6</ele><time>2026-02-04T23:05:44.000Z</time></trkpt>
        <trkpt lat="29.5658481" lon="103.434941"><ele>532.16</ele><time>2026-02-04T23:05:54.000Z</time></trkpt>
        <trkpt lat="29.5657488" lon="103.4348857"><ele>533.61</ele><time>2026-02-04T23:06:04.000Z</time></trkpt>
        <trkpt lat="29.5656537" lon="103.4348337"><ele>536.29</ele><time>2026-02-04T23:06:14.000Z</time></trkpt>
        <trkpt lat="29.5655928" lon="103.4347544"><ele>539.1</ele><time>2026-02-04T23:06:22.000Z</time></trkpt>
        <trkpt lat="29.5655769" lon="103.4346464"><ele>541.2</ele><time>2026-02-04T23:06:30.000Z</time></trkpt>
        <trkpt lat="29.5656016" lon="103.434534"><ele>543.03</ele><time>2026-02-04T23:06:38.000Z</time></trkpt>
        <trkpt lat="29.5656596" lon="103.4344433"><ele>544.94</ele><time>2026-02-04T23:06:47.000Z</time></trkpt>
        <trkpt lat="29.5657146" lon="103.434348"><ele>546.27</ele><time>2026-02-04T23:06:57.000Z</time></trkpt>
        <trkpt lat="29.5657807" lon="103.4342669"><ele>547.28</ele><time>2026-02-04T23:07:07.000Z</time></trkpt>
        <trkpt lat="29.565817" lon="103.4341682"><ele>548.88</ele><time>2026-02-04T23:07:17.000Z</time></trkpt>
        <trkpt lat="29.565815" lon="103.4340635"><ele>549.45</ele><time>2026-02-04T23:07:27.000Z</time></trkpt>
        <trkpt lat="29.5657787" lon="103.4339609"><ele>551.67</ele><time>2026-02-04T23:07:39.000Z</time></trkpt>
        <trkpt lat="29.565781" lon="103.4338844"><ele>553.4</ele><time>2026-02-04T23:07:53.000Z</time></trkpt>
        <trkpt lat="29.5657874" lon="103.4337853"><ele>552.91</ele><time>2026-02-04T23:08:11.000Z</time></trkpt>
        <trkpt lat="29.5657823" lon="103.4336767"><ele>553.43</ele><time>2026-02-04T23:08:21.000Z</time></trkpt>
        <trkpt lat="29.5657711" lon="103.4335605"><ele>554.11</ele><time>2026-02-04T23:08:31.000Z</time></trkpt>
        <trkpt lat="29.5657736" lon="103.4334486"><ele>555.31</ele><time>2026-02-04T23:08:39.000Z</time></trkpt>
        <trkpt lat="29.565766" lon="103.4333389"><ele>557.04</ele><time>2026-02-04T23:08:49.000Z</time></trkpt>
        <trkpt lat="29.5657575" lon="103.4332194"><ele>558.63</ele><time>2026-02-04T23:08:59.000Z</time></trkpt>
        <trkpt lat="29.565742" lon="103.4331017"><ele>557.89</ele><time>2026-02-04T23:09:09.000Z</time></trkpt>
        <trkpt lat="29.5657089" lon="103.4330547"><ele>557.63</ele><time>2026-02-04T23:09:25.000Z</time></trkpt>
        <trkpt lat="29.5656557" lon="103.4329664"><ele>564.7</ele><time>2026-02-04T23:09:55.000Z</time></trkpt>
        <trkpt lat="29.5656119" lon="103.4328593"><ele>566.23</ele><time>2026-02-04T23:10:03.000Z</time></trkpt>
        <trkpt lat="29.5655798" lon="103.4327473"><ele>566.33</ele><time>2026-02-04T23:10:11.000Z</time></trkpt>
        <trkpt lat="29.565542" lon="103.4326476"><ele>564.92</ele><time>2026-02-04T23:10:19.000Z</time></trkpt>
        <trkpt lat="29.5654998" lon="103.4325344"><ele>563.32</ele><time>2026-02-04T23:10:29.000Z</time></trkpt>
        <trkpt lat="29.5654637" lon="103.4324183"><ele>562.89</ele><time>2026-02-04T23:10:39.000Z</time></trkpt>
        <trkpt lat="29.5654301" lon="103.4323197"><ele>564.2</ele><time>2026-02-04T23:10:49.000Z</time></trkpt>
        <trkpt lat="29.5654008" lon="103.432221"><ele>565.21</ele><time>2026-02-04T23:11:03.000Z</time></trkpt>
        <trkpt lat="29.5653642" lon="103.4321221"><ele>565.64</ele><time>2026-02-04T23:11:13.000Z</time></trkpt>
        <trkpt lat="29.5653311" lon="103.4320222"><ele>566.18</ele><time>2026-02-04T23:11:25.000Z</time></trkpt>
        <trkpt lat="29.5653194" lon="103.4319143"><ele>566.24</ele><time>2026-02-04T23:11:37.000Z</time></trkpt>
        <trkpt lat="29.5653747" lon="103.4318208"><ele>566.68</ele><time>2026-02-04T23:11:51.000Z</time></trkpt>
        <trkpt lat="29.5654304" lon="103.4317256"><ele>566.59</ele><time>2026-02-04T23:12:01.000Z</time></trkpt>
        <trkpt lat="29.5654531" lon="103.4316177"><ele>568.4</ele><time>2026-02-04T23:12:11.000Z</time></trkpt>
        <trkpt lat="29.5654608" lon="103.4315078"><ele>571.04</ele><time>2026-02-04T23:12:21.000Z</time></trkpt>
        <trkpt lat="29.5654845" lon="103.4313948"><ele>573.38</ele><time>2026-02-04T23:12:42.000Z</time></trkpt>
        <trkpt lat="29.56549" lon="103.4312805"><ele>577.94</ele><time>2026-02-04T23:13:15.000Z</time></trkpt>
        <trkpt lat="29.5655077" lon="103.4311708"><ele>582.21</ele><time>2026-02-04T23:13:27.000Z</time></trkpt>
        <trkpt lat="29.565551" lon="103.4310765"><ele>582.68</ele><time>2026-02-04T23:13:37.000Z</time></trkpt>
        <trkpt lat="29.5655241" lon="103.4309799"><ele>583.48</ele><time>2026-02-04T23:13:51.000Z</time></trkpt>
        <trkpt lat="29.5654585" lon="103.4309062"><ele>584.91</ele><time>2026-02-04T23:14:03.000Z</time></trkpt>
        <trkpt lat="29.5653863" lon="103.430835"><ele>587.39</ele><time>2026-02-04T23:14:11.000Z</time></trkpt>
        <trkpt lat="29.5653587" lon="103.4307378"><ele>589.11</ele><time>2026-02-04T23:14:19.000Z</time></trkpt>
        <trkpt lat="29.5653553" lon="103.4306167"><ele>589.51</ele><time>2026-02-04T23:14:31.000Z</time></trkpt>
        <trkpt lat="29.5653304" lon="103.4304973"><ele>590.79</ele><time>2026-02-04T23:14:41.000Z</time></trkpt>
        <trkpt lat="29.5653252" lon="103.4303755"><ele>592.26</ele><time>2026-02-04T23:14:53.000Z</time></trkpt>
        <trkpt lat="29.5653212" lon="103.4302479"><ele>592.51</ele><time>2026-02-04T23:15:03.000Z</time></trkpt>
        <trkpt lat="29.5653105" lon="103.430126"><ele>593.61</ele><time>2026-02-04T23:15:13.000Z</time></trkpt>
        <trkpt lat="29.5652926" lon="103.4300191"><ele>595.5</ele><time>2026-02-04T23:15:21.000Z</time></trkpt>
        <trkpt lat="29.5652587" lon="103.4299055"><ele>596.04</ele><time>2026-02-04T23:15:31.000Z</time></trkpt>
        <trkpt lat="29.5652122" lon="103.4298085"><ele>596.6</ele><time>2026-02-04T23:15:39.000Z</time></trkpt>
        <trkpt lat="29.565173" lon="103.4297122"><ele>597.17</ele><time>2026-02-04T23:15:49.000Z</time></trkpt>
        <trkpt lat="29.5651267" lon="103.4296116"><ele>597.4</ele><time>2026-02-04T23:15:59.000Z</time></trkpt>
        <trkpt lat="29.5650716" lon="103.4295047"><ele>597.63</ele><time>2026-02-04T23:16:09.000Z</time></trkpt>
        <trkpt lat="29.5650118" lon="103.4294174"><ele>597.22</ele><time>2026-02-04T23:16:17.000Z</time></trkpt>
        <trkpt lat="29.5649632" lon="103.4293234"><ele>597.3</ele><time>2026-02-04T23:16:25.000Z</time></trkpt>
        <trkpt lat="29.5649415" lon="103.429211"><ele>596.8</ele><time>2026-02-04T23:16:35.000Z</time></trkpt>
        <trkpt lat="29.5649103" lon="103.4291064"><ele>596.25</ele><time>2026-02-04T23:16:43.000Z</time></trkpt>
        <trkpt lat="29.5648933" lon="103.4289891"><ele>596.18</ele><time>2026-02-04T23:16:52.000Z</time></trkpt>
        <trkpt lat="29.5648757" lon="103.4288703"><ele>595.89</ele><time>2026-02-04T23:17:02.000Z</time></trkpt>
        <trkpt lat="29.5648621" lon="103.4287606"><ele>595.52</ele><time>2026-02-04T23:17:10.000Z</time></trkpt>
        <trkpt lat="29.5648597" lon="103.4286517"><ele>596.86</ele><time>2026-02-04T23:17:18.000Z</time></trkpt>
        <trkpt lat="29.5648604" lon="103.42854"><ele>596.7</ele><time>2026-02-04T23:17:26.000Z</time></trkpt>
        <trkpt lat="29.564905" lon="103.4284383"><ele>596.35</ele><time>2026-02-04T23:17:38.000Z</time></trkpt>
        <trkpt lat="29.5649898" lon="103.428381"><ele>596.32</ele><time>2026-02-04T23:17:48.000Z</time></trkpt>
        <trkpt lat="29.5650833" lon="103.4283433"><ele>596.14</ele><time>2026-02-04T23:17:58.000Z</time></trkpt>
        <trkpt lat="29.5651698" lon="103.4282896"><ele>595.81</ele><time>2026-02-04T23:18:08.000Z</time></trkpt>
        <trkpt lat="29.565256" lon="103.4282277"><ele>595.88</ele><time>2026-02-04T23:18:18.000Z</time></trkpt>
        <trkpt lat="29.5653368" lon="103.4281679"><ele>596.64</ele><time>2026-02-04T23:18:26.000Z</time></trkpt>
        <trkpt lat="29.5654204" lon="103.4280931"><ele>597.2</ele><time>2026-02-04T23:18:36.000Z</time></trkpt>
        <trkpt lat="29.565484" lon="103.4279999"><ele>598.32</ele><time>2026-02-04T23:18:46.000Z</time></trkpt>
        <trkpt lat="29.565498" lon="103.4278896"><ele>598.95</ele><time>2026-02-04T23:18:56.000Z</time></trkpt>
        <trkpt lat="29.5654871" lon="103.4277796"><ele>598.4</ele><time>2026-02-04T23:19:10.000Z</time></trkpt>
        <trkpt lat="29.5654629" lon="103.4276739"><ele>599.89</ele><time>2026-02-04T23:19:18.000Z</time></trkpt>
        <trkpt lat="29.5654283" lon="103.4275567"><ele>600.51</ele><time>2026-02-04T23:19:28.000Z</time></trkpt>
        <trkpt lat="29.5653955" lon="103.4274384"><ele>600.16</ele><time>2026-02-04T23:19:38.000Z</time></trkpt>
        <trkpt lat="29.5653608" lon="103.4273269"><ele>599.07</ele><time>2026-02-04T23:19:48.000Z</time></trkpt>
        <trkpt lat="29.5653323" lon="103.42722"><ele>598.38</ele><time>2026-02-04T23:19:58.000Z</time></trkpt>
        <trkpt lat="29.5652787" lon="103.4271214"><ele>598.34</ele><time>2026-02-04T23:20:10.000Z</time></trkpt>
        <trkpt lat="29.5652002" lon="103.4270576"><ele>601.43</ele><time>2026-02-04T23:20:20.000Z</time></trkpt>
        <trkpt lat="29.565115" lon="103.4269916"><ele>605.24</ele><time>2026-02-04T23:20:30.000Z</time></trkpt>
        <trkpt lat="29.5650217" lon="103.4269387"><ele>608.9</ele><time>2026-02-04T23:20:40.000Z</time></trkpt>
        <trkpt lat="29.5649642" lon="103.4268488"><ele>612.79</ele><time>2026-02-04T23:20:50.000Z</time></trkpt>
        <trkpt lat="29.56496" lon="103.4267424"><ele>613.49</ele><time>2026-02-04T23:21:04.000Z</time></trkpt>
        <trkpt lat="29.5650379" lon="103.4266475"><ele>614.17</ele><time>2026-02-04T23:22:22.000Z</time></trkpt>
        <trkpt lat="29.5650453" lon="103.4265439"><ele>615.52</ele><time>2026-02-04T23:22:44.000Z</time></trkpt>
        <trkpt lat="29.565079" lon="103.4264478"><ele>618.06</ele><time>2026-02-04T23:23:10.000Z</time></trkpt>
        <trkpt lat="29.5651029" lon="103.4263389"><ele>620.32</ele><time>2026-02-04T23:23:34.000Z</time></trkpt>
        <trkpt lat="29.5651181" lon="103.4262325"><ele>623.27</ele><time>2026-02-04T23:23:56.000Z</time></trkpt>
        <trkpt lat="29.5651606" lon="103.4261369"><ele>625.52</ele><time>2026-02-04T23:24:24.000Z</time></trkpt>
        <trkpt lat="29.5651899" lon="103.4260349"><ele>629.06</ele><time>2026-02-04T23:24:52.000Z</time></trkpt>
        <trkpt lat="29.5651693" lon="103.4259337"><ele>633.49</ele><time>2026-02-04T23:25:18.000Z</time></trkpt>
        <trkpt lat="29.5651948" lon="103.4258396"><ele>636.52</ele><time>2026-02-04T23:25:44.000Z</time></trkpt>
        <trkpt lat="29.5652094" lon="103.4257366"><ele>641.53</ele><time>2026-02-04T23:27:00.000Z</time></trkpt>
        <trkpt lat="29.5651405" lon="103.4258171"><ele>647.21</ele><time>2026-02-04T23:27:30.000Z</time></trkpt>
        <trkpt lat="29.5651349" lon="103.4259224"><ele>650.43</ele><time>2026-02-04T23:27:48.000Z</time></trkpt>
        <trkpt lat="29.5650714" lon="103.4259125"><ele>656.38</ele><time>2026-02-04T23:28:10.000Z</time></trkpt>
        <trkpt lat="29.5650036" lon="103.4258269"><ele>660.67</ele><time>2026-02-04T23:28:18.000Z</time></trkpt>
        <trkpt lat="29.5650343" lon="103.4258585"><ele>662.98</ele><time>2026-02-04T23:28:42.000Z</time></trkpt>
        <trkpt lat="29.5651098" lon="103.42581"><ele>664.84</ele><time>2026-02-04T23:29:00.000Z</time></trkpt>
        <trkpt lat="29.565202" lon="103.4257539"><ele>662.1</ele><time>2026-02-04T23:29:10.000Z</time></trkpt>
        <trkpt lat="29.5651781" lon="103.4256871"><ele>658.91</ele><time>2026-02-04T23:29:18.000Z</time></trkpt>
        <trkpt lat="29.5651109" lon="103.4255945"><ele>656.43</ele><time>2026-02-04T23:29:28.000Z</time></trkpt>
        <trkpt lat="29.5650386" lon="103.4255016"><ele>655.1</ele><time>2026-02-04T23:29:36.000Z</time></trkpt>
        <trkpt lat="29.5649822" lon="103.4253959"><ele>655.78</ele><time>2026-02-04T23:29:46.000Z</time></trkpt>
        <trkpt lat="29.5649083" lon="103.4253029"><ele>656.18</ele><time>2026-02-04T23:29:54.000Z</time></trkpt>
        <trkpt lat="29.5648299" lon="103.4252129"><ele>657.92</ele><time>2026-02-04T23:30:02.000Z</time></trkpt>
        <trkpt lat="29.5647745" lon="103.4251121"><ele>658.9</ele><time>2026-02-04T23:30:10.000Z</time></trkpt>
        <trkpt lat="29.5647494" lon="103.4250241"><ele>660.76</ele><time>2026-02-04T23:30:22.000Z</time></trkpt>
        <trkpt lat="29.5647215" lon="103.4249238"><ele>662.23</ele><time>2026-02-04T23:30:44.000Z</time></trkpt>
        <trkpt lat="29.5646817" lon="103.424822"><ele>664.63</ele><time>2026-02-04T23:31:00.000Z</time></trkpt>
        <trkpt lat="29.5646782" lon="103.4247122"><ele>666.65</ele><time>2026-02-04T23:31:10.000Z</time></trkpt>
        <trkpt lat="29.5646644" lon="103.4246033"><ele>668.29</ele><time>2026-02-04T23:31:20.000Z</time></trkpt>
        <trkpt lat="29.5646504" lon="103.4244977"><ele>670.99</ele><time>2026-02-04T23:31:42.000Z</time></trkpt>
        <trkpt lat="29.56462" lon="103.4243901"><ele>669.78</ele><time>2026-02-04T23:31:54.000Z</time></trkpt>
        <trkpt lat="29.564622" lon="103.4243576"><ele>669.9</ele><time>2026-02-04T23:32:02.000Z</time></trkpt>
        <trkpt lat="29.5646301" lon="103.4242794"><ele>669.85</ele><time>2026-02-04T23:32:18.000Z</time></trkpt>
        <trkpt lat="29.5645701" lon="103.4242187"><ele>670.99</ele><time>2026-02-04T23:32:52.000Z</time></trkpt>
        <trkpt lat="29.5644859" lon="103.4241752"><ele>670.96</ele><time>2026-02-04T23:33:10.000Z</time></trkpt>
        <trkpt lat="29.5644362" lon="103.4240908"><ele>673</ele><time>2026-02-04T23:33:32.000Z</time></trkpt>
        <trkpt lat="29.5643899" lon="103.4239828"><ele>675.75</ele><time>2026-02-04T23:33:52.000Z</time></trkpt>
        <trkpt lat="29.5643771" lon="103.4238633"><ele>678.3</ele><time>2026-02-04T23:34:04.000Z</time></trkpt>
        <trkpt lat="29.5643633" lon="103.4237478"><ele>680.43</ele><time>2026-02-04T23:34:22.000Z</time></trkpt>
        <trkpt lat="29.5643406" lon="103.4236372"><ele>682.71</ele><time>2026-02-04T23:34:44.000Z</time></trkpt>
        <trkpt lat="29.5643606" lon="103.4235238"><ele>686.3</ele><time>2026-02-04T23:34:58.000Z</time></trkpt>
        <trkpt lat="29.5643913" lon="103.4234176"><ele>691.47</ele><time>2026-02-04T23:35:12.000Z</time></trkpt>
        <trkpt lat="29.5644428" lon="103.4233282"><ele>696.92</ele><time>2026-02-04T23:35:31.000Z</time></trkpt>
        <trkpt lat="29.564484" lon="103.4232348"><ele>702.5</ele><time>2026-02-04T23:35:47.000Z</time></trkpt>
        <trkpt lat="29.5645214" lon="103.423135"><ele>704.13</ele><time>2026-02-04T23:36:07.000Z</time></trkpt>
        <trkpt lat="29.5645156" lon="103.4230276"><ele>704.59</ele><time>2026-02-04T23:36:35.000Z</time></trkpt>
        <trkpt lat="29.5644981" lon="103.4229119"><ele>708.57</ele><time>2026-02-04T23:36:57.000Z</time></trkpt>
        <trkpt lat="29.5644836" lon="103.4227997"><ele>711.26</ele><time>2026-02-04T23:37:19.000Z</time></trkpt>
        <trkpt lat="29.5644485" lon="103.4226929"><ele>715.18</ele><time>2026-02-04T23:37:37.000Z</time></trkpt>
        <trkpt lat="29.5644272" lon="103.4225847"><ele>715.79</ele><time>2026-02-04T23:37:51.000Z</time></trkpt>
        <trkpt lat="29.5644221" lon="103.4224777"><ele>717.13</ele><time>2026-02-04T23:38:26.000Z</time></trkpt>
        <trkpt lat="29.5644077" lon="103.4223747"><ele>716.59</ele><time>2026-02-04T23:38:52.000Z</time></trkpt>
        <trkpt lat="29.5644008" lon="103.4222673"><ele>718.48</ele><time>2026-02-04T23:39:20.000Z</time></trkpt>
        <trkpt lat="29.5644086" lon="103.422156"><ele>721.96</ele><time>2026-02-04T23:39:38.000Z</time></trkpt>
        <trkpt lat="29.564386" lon="103.4220533"><ele>725.04</ele><time>2026-02-04T23:40:00.000Z</time></trkpt>
        <trkpt lat="29.5643641" lon="103.4219482"><ele>725.82</ele><time>2026-02-04T23:40:33.000Z</time></trkpt>
        <trkpt lat="29.5643744" lon="103.4218438"><ele>725.87</ele><time>2026-02-04T23:41:39.000Z</time></trkpt>
        <trkpt lat="29.564381" lon="103.4217294"><ele>730.03</ele><time>2026-02-04T23:42:05.000Z</time></trkpt>
        <trkpt lat="29.5643358" lon="103.421638"><ele>736.23</ele><time>2026-02-04T23:42:35.000Z</time></trkpt>
        <trkpt lat="29.5643153" lon="103.4215376"><ele>739.7</ele><time>2026-02-04T23:42:59.000Z</time></trkpt>
        <trkpt lat="29.5642657" lon="103.4214456"><ele>743.99</ele><time>2026-02-04T23:43:23.000Z</time></trkpt>
        <trkpt lat="29.5642606" lon="103.4213461"><ele>747.86</ele><time>2026-02-04T23:43:39.000Z</time></trkpt>
        <trkpt lat="29.5643331" lon="103.4213217"><ele>751.53</ele><time>2026-02-04T23:43:51.000Z</time></trkpt>
        <trkpt lat="29.5644315" lon="103.4212946"><ele>755.21</ele><time>2026-02-04T23:44:03.000Z</time></trkpt>
        <trkpt lat="29.564531" lon="103.4212446"><ele>758.04</ele><time>2026-02-04T23:44:15.000Z</time></trkpt>
        <trkpt lat="29.5646303" lon="103.4211939"><ele>759.75</ele><time>2026-02-04T23:44:27.000Z</time></trkpt>
        <trkpt lat="29.5647057" lon="103.4211143"><ele>762.25</ele><time>2026-02-04T23:44:45.000Z</time></trkpt>
        <trkpt lat="29.5647662" lon="103.4211536"><ele>765.11</ele><time>2026-02-04T23:45:01.000Z</time></trkpt>
        <trkpt lat="29.5648333" lon="103.4212214"><ele>768.47</ele><time>2026-02-04T23:45:15.000Z</time></trkpt>
        <trkpt lat="29.5648985" lon="103.4213107"><ele>771.74</ele><time>2026-02-04T23:45:29.000Z</time></trkpt>
        <trkpt lat="29.5649723" lon="103.4213803"><ele>775.13</ele><time>2026-02-04T23:46:03.000Z</time></trkpt>
        <trkpt lat="29.5650617" lon="103.4213773"><ele>778.81</ele><time>2026-02-04T23:46:33.000Z</time></trkpt>
        <trkpt lat="29.5651537" lon="103.4213533"><ele>781.5</ele><time>2026-02-04T23:46:51.000Z</time></trkpt>
        <trkpt lat="29.5652442" lon="103.4213158"><ele>784.5</ele><time>2026-02-04T23:47:25.000Z</time></trkpt>
        <trkpt lat="29.5653294" lon="103.4212574"><ele>787.18</ele><time>2026-02-04T23:47:49.000Z</time></trkpt>
        <trkpt lat="29.5654121" lon="103.4211898"><ele>791.75</ele><time>2026-02-04T23:48:11.000Z</time></trkpt>
        <trkpt lat="29.5655001" lon="103.4211627"><ele>794.26</ele><time>2026-02-04T23:48:25.000Z</time></trkpt>
        <trkpt lat="29.5655944" lon="103.4211203"><ele>794.89</ele><time>2026-02-04T23:48:37.000Z</time></trkpt>
        <trkpt lat="29.5656895" lon="103.4211097"><ele>795.08</ele><time>2026-02-04T23:48:45.000Z</time></trkpt>
        <trkpt lat="29.5657835" lon="103.4211165"><ele>797.27</ele><time>2026-02-04T23:48:53.000Z</time></trkpt>
        <trkpt lat="29.5658735" lon="103.4211451"><ele>797.77</ele><time>2026-02-04T23:49:05.000Z</time></trkpt>
        <trkpt lat="29.5659729" lon="103.4211501"><ele>802.41</ele><time>2026-02-04T23:49:15.000Z</time></trkpt>
        <trkpt lat="29.566068" lon="103.4211685"><ele>803.75</ele><time>2026-02-04T23:49:31.000Z</time></trkpt>
        <trkpt lat="29.5661594" lon="103.4211786"><ele>806.62</ele><time>2026-02-04T23:49:45.000Z</time></trkpt>
        <trkpt lat="29.566239" lon="103.4211258"><ele>805.87</ele><time>2026-02-04T23:50:07.000Z</time></trkpt>
        <trkpt lat="29.5662777" lon="103.4210312"><ele>809.62</ele><time>2026-02-04T23:50:17.000Z</time></trkpt>
        <trkpt lat="29.5663009" lon="103.4209076"><ele>812.92</ele><time>2026-02-04T23:50:29.000Z</time></trkpt>
        <trkpt lat="29.5663485" lon="103.4208127"><ele>814.71</ele><time>2026-02-04T23:50:49.000Z</time></trkpt>
        <trkpt lat="29.5663589" lon="103.42071"><ele>813.79</ele><time>2026-02-04T23:50:57.000Z</time></trkpt>
        <trkpt lat="29.5663773" lon="103.4206016"><ele>812.53</ele><time>2026-02-04T23:51:05.000Z</time></trkpt>
        <trkpt lat="29.5663981" lon="103.4204864"><ele>812.23</ele><time>2026-02-04T23:51:15.000Z</time></trkpt>
        <trkpt lat="29.5664468" lon="103.4203785"><ele>811.6</ele><time>2026-02-04T23:51:25.000Z</time></trkpt>
        <trkpt lat="29.566509" lon="103.4202948"><ele>810.23</ele><time>2026-02-04T23:51:35.000Z</time></trkpt>
        <trkpt lat="29.5665711" lon="103.4202076"><ele>807.74</ele><time>2026-02-04T23:51:45.000Z</time></trkpt>
        <trkpt lat="29.5666389" lon="103.4201264"><ele>806.95</ele><time>2026-02-04T23:51:55.000Z</time></trkpt>
        <trkpt lat="29.5666729" lon="103.4200171"><ele>806.81</ele><time>2026-02-04T23:52:05.000Z</time></trkpt>
        <trkpt lat="29.5666975" lon="103.4199052"><ele>806.36</ele><time>2026-02-04T23:52:15.000Z</time></trkpt>
        <trkpt lat="29.5667716" lon="103.4198584"><ele>808.22</ele><time>2026-02-04T23:53:01.000Z</time></trkpt>
        <trkpt lat="29.5668638" lon="103.4198909"><ele>809.13</ele><time>2026-02-04T23:53:15.000Z</time></trkpt>
        <trkpt lat="29.5669495" lon="103.4199658"><ele>812.03</ele><time>2026-02-04T23:53:35.000Z</time></trkpt>
        <trkpt lat="29.5670172" lon="103.4200559"><ele>814.3</ele><time>2026-02-04T23:53:53.000Z</time></trkpt>
        <trkpt lat="29.5670464" lon="103.4201648"><ele>817.97</ele><time>2026-02-04T23:54:11.000Z</time></trkpt>
        <trkpt lat="29.5670485" lon="103.4202823"><ele>821.71</ele><time>2026-02-04T23:54:21.000Z</time></trkpt>
        <trkpt lat="29.5670548" lon="103.4203349"><ele>823.56</ele><time>2026-02-04T23:54:33.000Z</time></trkpt>
        <trkpt lat="29.5671049" lon="103.4204057"><ele>825.5</ele><time>2026-02-04T23:54:53.000Z</time></trkpt>
        <trkpt lat="29.5671777" lon="103.4204658"><ele>825.56</ele><time>2026-02-04T23:55:07.000Z</time></trkpt>
        <trkpt lat="29.5672658" lon="103.4205044"><ele>826.88</ele><time>2026-02-04T23:55:23.000Z</time></trkpt>
        <trkpt lat="29.5673616" lon="103.4205133"><ele>829.11</ele><time>2026-02-04T23:55:43.000Z</time></trkpt>
        <trkpt lat="29.5674555" lon="103.4204978"><ele>831.3</ele><time>2026-02-04T23:55:59.000Z</time></trkpt>
        <trkpt lat="29.5675301" lon="103.4204324"><ele>833.44</ele><time>2026-02-04T23:56:21.000Z</time></trkpt>
        <trkpt lat="29.5676089" lon="103.420373"><ele>837.63</ele><time>2026-02-04T23:56:41.000Z</time></trkpt>
        <trkpt lat="29.5676883" lon="103.4203162"><ele>840.47</ele><time>2026-02-04T23:57:09.000Z</time></trkpt>
        <trkpt lat="29.5677736" lon="103.4202678"><ele>844.76</ele><time>2026-02-04T23:57:31.000Z</time></trkpt>
        <trkpt lat="29.5678548" lon="103.4202098"><ele>849.14</ele><time>2026-02-04T23:57:53.000Z</time></trkpt>
        <trkpt lat="29.5679393" lon="103.4201564"><ele>854.08</ele><time>2026-02-04T23:58:13.000Z</time></trkpt>
        <trkpt lat="29.5680293" lon="103.420125"><ele>858.54</ele><time>2026-02-04T23:58:29.000Z</time></trkpt>
        <trkpt lat="29.5681211" lon="103.42011"><ele>862.09</ele><time>2026-02-04T23:58:53.000Z</time></trkpt>
        <trkpt lat="29.568213" lon="103.4200781"><ele>866.75</ele><time>2026-02-04T23:59:21.000Z</time></trkpt>
        <trkpt lat="29.5683046" lon="103.4200721"><ele>870.25</ele><time>2026-02-04T23:59:43.000Z</time></trkpt>
        <trkpt lat="29.5683979" lon="103.4200704"><ele>872.88</ele><time>2026-02-05T00:00:05.000Z</time></trkpt>
        <trkpt lat="29.5684905" lon="103.4200755"><ele>875.89</ele><time>2026-02-05T00:00:39.000Z</time></trkpt>
        <trkpt lat="29.5685858" lon="103.4200665"><ele>879.37</ele><time>2026-02-05T00:01:05.000Z</time></trkpt>
        <trkpt lat="29.568683" lon="103.4200632"><ele>881.87</ele><time>2026-02-05T00:01:25.000Z</time></trkpt>
        <trkpt lat="29.5687626" lon="103.4200095"><ele>883.52</ele><time>2026-02-05T00:01:49.000Z</time></trkpt>
        <trkpt lat="29.5688461" lon="103.419967"><ele>885.32</ele><time>2026-02-05T00:02:01.000Z</time></trkpt>
        <trkpt lat="29.5689582" lon="103.4199427"><ele>888.04</ele><time>2026-02-05T00:02:23.000Z</time></trkpt>
        <trkpt lat="29.5690533" lon="103.4199078"><ele>889.29</ele><time>2026-02-05T00:02:33.000Z</time></trkpt>
        <trkpt lat="29.5691452" lon="103.4198464"><ele>890.86</ele><time>2026-02-05T00:02:43.000Z</time></trkpt>
        <trkpt lat="29.569242" lon="103.4197969"><ele>892.6</ele><time>2026-02-05T00:02:53.000Z</time></trkpt>
        <trkpt lat="29.5693348" lon="103.419747"><ele>893.73</ele><time>2026-02-05T00:03:03.000Z</time></trkpt>
        <trkpt lat="29.5694243" lon="103.4197027"><ele>893.62</ele><time>2026-02-05T00:03:17.000Z</time></trkpt>
        <trkpt lat="29.569506" lon="103.4196479"><ele>894.32</ele><time>2026-02-05T00:03:29.000Z</time></trkpt>
        <trkpt lat="29.5695867" lon="103.4195774"><ele>894.78</ele><time>2026-02-05T00:03:41.000Z</time></trkpt>
        <trkpt lat="29.5696548" lon="103.4194962"><ele>892.26</ele><time>2026-02-05T00:04:26.000Z</time></trkpt>
        <trkpt lat="29.5697088" lon="103.4194029"><ele>895.09</ele><time>2026-02-05T00:04:36.000Z</time></trkpt>
        <trkpt lat="29.5697452" lon="103.4192915"><ele>894.76</ele><time>2026-02-05T00:04:46.000Z</time></trkpt>
        <trkpt lat="29.5697921" lon="103.4191856"><ele>893.74</ele><time>2026-02-05T00:05:00.000Z</time></trkpt>
        <trkpt lat="29.5697705" lon="103.4190799"><ele>891.46</ele><time>2026-02-05T00:05:10.000Z</time></trkpt>
        <trkpt lat="29.5697746" lon="103.4189749"><ele>890.42</ele><time>2026-02-05T00:05:16.000Z</time></trkpt>
        <trkpt lat="29.5697783" lon="103.4188666"><ele>889.34</ele><time>2026-02-05T00:05:26.000Z</time></trkpt>
        <trkpt lat="29.5697881" lon="103.4187459"><ele>888.95</ele><time>2026-02-05T00:05:36.000Z</time></trkpt>
        <trkpt lat="29.5698162" lon="103.4186295"><ele>890.57</ele><time>2026-02-05T00:05:47.000Z</time></trkpt>
        <trkpt lat="29.5698205" lon="103.4185135"><ele>890.63</ele><time>2026-02-05T00:05:55.000Z</time></trkpt>
        <trkpt lat="29.5698225" lon="103.418401"><ele>889.38</ele><time>2026-02-05T00:06:03.000Z</time></trkpt>
        <trkpt lat="29.5698408" lon="103.4182842"><ele>887.37</ele><time>2026-02-05T00:06:13.000Z</time></trkpt>
        <trkpt lat="29.569865" lon="103.4181684"><ele>886.05</ele><time>2026-02-05T00:06:23.000Z</time></trkpt>
        <trkpt lat="29.5698874" lon="103.4180586"><ele>887.7</ele><time>2026-02-05T00:06:33.000Z</time></trkpt>
        <trkpt lat="29.5699375" lon="103.4179581"><ele>887.64</ele><time>2026-02-05T00:06:43.000Z</time></trkpt>
        <trkpt lat="29.5699931" lon="103.4178669"><ele>886.86</ele><time>2026-02-05T00:06:51.000Z</time></trkpt>
        <trkpt lat="29.5700261" lon="103.4177631"><ele>886.21</ele><time>2026-02-05T00:07:01.000Z</time></trkpt>
        <trkpt lat="29.5700403" lon="103.4176405"><ele>884.12</ele><time>2026-02-05T00:07:11.000Z</time></trkpt>
        <trkpt lat="29.5700352" lon="103.4175176"><ele>880.3</ele><time>2026-02-05T00:07:23.000Z</time></trkpt>
        <trkpt lat="29.5700309" lon="103.4174047"><ele>876.79</ele><time>2026-02-05T00:07:31.000Z</time></trkpt>
        <trkpt lat="29.5700343" lon="103.4172881"><ele>875.37</ele><time>2026-02-05T00:07:41.000Z</time></trkpt>
        <trkpt lat="29.5700394" lon="103.4171631"><ele>874.56</ele><time>2026-02-05T00:07:51.000Z</time></trkpt>
        <trkpt lat="29.5701088" lon="103.4170771"><ele>872.78</ele><time>2026-02-05T00:07:59.000Z</time></trkpt>
        <trkpt lat="29.5702063" lon="103.4170288"><ele>873.04</ele><time>2026-02-05T00:08:08.000Z</time></trkpt>
        <trkpt lat="29.5703092" lon="103.4170347"><ele>874.01</ele><time>2026-02-05T00:08:18.000Z</time></trkpt>
        <trkpt lat="29.5703856" lon="103.4169739"><ele>875.26</ele><time>2026-02-05T00:09:09.000Z</time></trkpt>
        <trkpt lat="29.5703931" lon="103.4168565"><ele>875.11</ele><time>2026-02-05T00:09:21.000Z</time></trkpt>
        <trkpt lat="29.5703868" lon="103.4167267"><ele>875.24</ele><time>2026-02-05T00:09:31.000Z</time></trkpt>
        <trkpt lat="29.5704019" lon="103.4166126"><ele>876.64</ele><time>2026-02-05T00:09:41.000Z</time></trkpt>
        <trkpt lat="29.570419" lon="103.4164965"><ele>878.56</ele><time>2026-02-05T00:09:49.000Z</time></trkpt>
        <trkpt lat="29.5704254" lon="103.4163782"><ele>880.62</ele><time>2026-02-05T00:09:57.000Z</time></trkpt>
        <trkpt lat="29.5704338" lon="103.4162567"><ele>881.46</ele><time>2026-02-05T00:10:07.000Z</time></trkpt>
        <trkpt lat="29.5704754" lon="103.416157"><ele>882.46</ele><time>2026-02-05T00:10:17.000Z</time></trkpt>
        <trkpt lat="29.5705523" lon="103.4160951"><ele>880.6</ele><time>2026-02-05T00:10:27.000Z</time></trkpt>
        <trkpt lat="29.5706499" lon="103.4160866"><ele>878.02</ele><time>2026-02-05T00:10:43.000Z</time></trkpt>
        <trkpt lat="29.5707585" lon="103.4160857"><ele>876.69</ele><time>2026-02-05T00:11:07.000Z</time></trkpt>
        <trkpt lat="29.5707703" lon="103.4160087"><ele>879.15</ele><time>2026-02-05T00:11:27.000Z</time></trkpt>
        <trkpt lat="29.5707183" lon="103.4159183"><ele>881.41</ele><time>2026-02-05T00:11:37.000Z</time></trkpt>
        <trkpt lat="29.5706406" lon="103.4158376"><ele>881.65</ele><time>2026-02-05T00:11:45.000Z</time></trkpt>
        <trkpt lat="29.5705402" lon="103.4157992"><ele>881.79</ele><time>2026-02-05T00:11:53.000Z</time></trkpt>
        <trkpt lat="29.570466" lon="103.4157213"><ele>881.05</ele><time>2026-02-05T00:12:03.000Z</time></trkpt>
        <trkpt lat="29.5703857" lon="103.4156409"><ele>879.82</ele><time>2026-02-05T00:12:13.000Z</time></trkpt>
        <trkpt lat="29.5702996" lon="103.4155816"><ele>878.42</ele><time>2026-02-05T00:12:21.000Z</time></trkpt>
        <trkpt lat="29.5702106" lon="103.4155512"><ele>877.38</ele><time>2026-02-05T00:12:33.000Z</time></trkpt>
        <trkpt lat="29.5701119" lon="103.4155571"><ele>877.06</ele><time>2026-02-05T00:12:49.000Z</time></trkpt>
        <trkpt lat="29.5700211" lon="103.4155277"><ele>877.08</ele><time>2026-02-05T00:13:01.000Z</time></trkpt>
        <trkpt lat="29.5699471" lon="103.4154693"><ele>876.53</ele><time>2026-02-05T00:13:13.000Z</time></trkpt>
        <trkpt lat="29.5699005" lon="103.4153665"><ele>876.4</ele><time>2026-02-05T00:13:23.000Z</time></trkpt>
        <trkpt lat="29.5698779" lon="103.415253"><ele>877.73</ele><time>2026-02-05T00:13:31.000Z</time></trkpt>
        <trkpt lat="29.5698854" lon="103.4151349"><ele>879.35</ele><time>2026-02-05T00:13:41.000Z</time></trkpt>
        <trkpt lat="29.5698835" lon="103.4150122"><ele>880.97</ele><time>2026-02-05T00:13:51.000Z</time></trkpt>
        <trkpt lat="29.569832" lon="103.4149107"><ele>882.38</ele><time>2026-02-05T00:14:01.000Z</time></trkpt>
        <trkpt lat="29.5697714" lon="103.4148183"><ele>882.8</ele><time>2026-02-05T00:14:08.000Z</time></trkpt>
        <trkpt lat="29.5697164" lon="103.4147247"><ele>883.77</ele><time>2026-02-05T00:14:18.000Z</time></trkpt>
        <trkpt lat="29.5696279" lon="103.4146865"><ele>883.7</ele><time>2026-02-05T00:14:26.000Z</time></trkpt>
        <trkpt lat="29.5695343" lon="103.41471"><ele>884.7</ele><time>2026-02-05T00:14:34.000Z</time></trkpt>
        <trkpt lat="29.5694313" lon="103.4147663"><ele>886.26</ele><time>2026-02-05T00:14:44.000Z</time></trkpt>
        <trkpt lat="29.5693344" lon="103.4148332"><ele>886.66</ele><time>2026-02-05T00:14:54.000Z</time></trkpt>
        <trkpt lat="29.5692436" lon="103.4148261"><ele>885.4</ele><time>2026-02-05T00:15:10.000Z</time></trkpt>
        <trkpt lat="29.5691953" lon="103.4147307"><ele>884.54</ele><time>2026-02-05T00:15:22.000Z</time></trkpt>
        <trkpt lat="29.5691484" lon="103.414614"><ele>883.22</ele><time>2026-02-05T00:16:46.000Z</time></trkpt>
        <trkpt lat="29.5691403" lon="103.4144873"><ele>883.48</ele><time>2026-02-05T00:16:56.000Z</time></trkpt>
        <trkpt lat="29.5691454" lon="103.41437"><ele>883.44</ele><time>2026-02-05T00:17:08.000Z</time></trkpt>
        <trkpt lat="29.5691546" lon="103.4142637"><ele>883.36</ele><time>2026-02-05T00:17:16.000Z</time></trkpt>
        <trkpt lat="29.5691333" lon="103.4141564"><ele>882.03</ele><time>2026-02-05T00:17:24.000Z</time></trkpt>
        <trkpt lat="29.569132" lon="103.414045"><ele>880.74</ele><time>2026-02-05T00:17:32.000Z</time></trkpt>
        <trkpt lat="29.5691684" lon="103.4139322"><ele>881.42</ele><time>2026-02-05T00:17:42.000Z</time></trkpt>
        <trkpt lat="29.569161" lon="103.4138247"><ele>881.54</ele><time>2026-02-05T00:17:52.000Z</time></trkpt>
        <trkpt lat="29.569101" lon="103.4137313"><ele>880.16</ele><time>2026-02-05T00:18:02.000Z</time></trkpt>
        <trkpt lat="29.5690413" lon="103.4136193"><ele>879.34</ele><time>2026-02-05T00:18:10.000Z</time></trkpt>
        <trkpt lat="29.5690181" lon="103.4135059"><ele>880.01</ele><time>2026-02-05T00:18:18.000Z</time></trkpt>
        <trkpt lat="29.5690054" lon="103.4133976"><ele>879.82</ele><time>2026-02-05T00:18:28.000Z</time></trkpt>
        <trkpt lat="29.5690015" lon="103.4132808"><ele>877.48</ele><time>2026-02-05T00:18:40.000Z</time></trkpt>
        <trkpt lat="29.5689763" lon="103.4131751"><ele>875.74</ele><time>2026-02-05T00:18:50.000Z</time></trkpt>
        <trkpt lat="29.5690152" lon="103.4130816"><ele>874.98</ele><time>2026-02-05T00:19:00.000Z</time></trkpt>
        <trkpt lat="29.5690705" lon="103.412987"><ele>873.49</ele><time>2026-02-05T00:19:10.000Z</time></trkpt>
        <trkpt lat="29.5691366" lon="103.4128888"><ele>872.63</ele><time>2026-02-05T00:19:20.000Z</time></trkpt>
        <trkpt lat="29.5692291" lon="103.4128246"><ele>871.32</ele><time>2026-02-05T00:19:28.000Z</time></trkpt>
        <trkpt lat="29.5693253" lon="103.4127839"><ele>870.71</ele><time>2026-02-05T00:19:36.000Z</time></trkpt>
        <trkpt lat="29.5694188" lon="103.4127279"><ele>871.96</ele><time>2026-02-05T00:19:46.000Z</time></trkpt>
        <trkpt lat="29.5694252" lon="103.4126354"><ele>872.69</ele><time>2026-02-05T00:19:56.000Z</time></trkpt>
        <trkpt lat="29.5693794" lon="103.412539"><ele>872.86</ele><time>2026-02-05T00:20:06.000Z</time></trkpt>
        <trkpt lat="29.5693785" lon="103.4124369"><ele>872.08</ele><time>2026-02-05T00:20:45.000Z</time></trkpt>
        <trkpt lat="29.5693346" lon="103.4123371"><ele>872</ele><time>2026-02-05T00:20:59.000Z</time></trkpt>
        <trkpt lat="29.5693495" lon="103.4122328"><ele>871.93</ele><time>2026-02-05T00:21:15.000Z</time></trkpt>
        <trkpt lat="29.569282" lon="103.4122108"><ele>870.06</ele><time>2026-02-05T00:21:41.000Z</time></trkpt>
        <trkpt lat="29.569179" lon="103.4122205"><ele>865.64</ele><time>2026-02-05T00:21:55.000Z</time></trkpt>
        <trkpt lat="29.5690753" lon="103.4122176"><ele>860.82</ele><time>2026-02-05T00:22:09.000Z</time></trkpt>
        <trkpt lat="29.5690134" lon="103.4121417"><ele>858.47</ele><time>2026-02-05T00:22:21.000Z</time></trkpt>
        <trkpt lat="29.5689495" lon="103.4120485"><ele>858.26</ele><time>2026-02-05T00:22:33.000Z</time></trkpt>
        <trkpt lat="29.5688893" lon="103.4119541"><ele>857.34</ele><time>2026-02-05T00:22:47.000Z</time></trkpt>
        <trkpt lat="29.5688072" lon="103.4119267"><ele>855.29</ele><time>2026-02-05T00:23:05.000Z</time></trkpt>
        <trkpt lat="29.5687366" lon="103.4118629"><ele>853.48</ele><time>2026-02-05T00:23:21.000Z</time></trkpt>
        <trkpt lat="29.5686516" lon="103.4118721"><ele>853.36</ele><time>2026-02-05T00:23:37.000Z</time></trkpt>
        <trkpt lat="29.5686106" lon="103.4118315"><ele>852.76</ele><time>2026-02-05T00:23:51.000Z</time></trkpt>
        <trkpt lat="29.5685513" lon="103.4117693"><ele>853.05</ele><time>2026-02-05T00:24:09.000Z</time></trkpt>
        <trkpt lat="29.5684968" lon="103.4116833"><ele>854.43</ele><time>2026-02-05T00:24:21.000Z</time></trkpt>
        <trkpt lat="29.568425" lon="103.4116097"><ele>851.94</ele><time>2026-02-05T00:24:31.000Z</time></trkpt>
        <trkpt lat="29.5684009" lon="103.411504"><ele>847.15</ele><time>2026-02-05T00:24:43.000Z</time></trkpt>
        <trkpt lat="29.5684134" lon="103.411394"><ele>843.71</ele><time>2026-02-05T00:24:53.000Z</time></trkpt>
        <trkpt lat="29.5684515" lon="103.4112762"><ele>839.95</ele><time>2026-02-05T00:25:03.000Z</time></trkpt>
        <trkpt lat="29.568489" lon="103.411169"><ele>839.23</ele><time>2026-02-05T00:25:11.000Z</time></trkpt>
        <trkpt lat="29.5684992" lon="103.4110635"><ele>838.29</ele><time>2026-02-05T00:25:19.000Z</time></trkpt>
        <trkpt lat="29.5685243" lon="103.4109625"><ele>837.22</ele><time>2026-02-05T00:25:27.000Z</time></trkpt>
        <trkpt lat="29.5685729" lon="103.4108643"><ele>835.84</ele><time>2026-02-05T00:25:35.000Z</time></trkpt>
        <trkpt lat="29.5685877" lon="103.4107621"><ele>833.77</ele><time>2026-02-05T00:25:43.000Z</time></trkpt>
        <trkpt lat="29.5685726" lon="103.4106611"><ele>831.1</ele><time>2026-02-05T00:25:55.000Z</time></trkpt>
        <trkpt lat="29.5686111" lon="103.410567"><ele>829.88</ele><time>2026-02-05T00:26:07.000Z</time></trkpt>
        <trkpt lat="29.5686492" lon="103.4104645"><ele>830.22</ele><time>2026-02-05T00:26:19.000Z</time></trkpt>
        <trkpt lat="29.5686593" lon="103.4103457"><ele>831.87</ele><time>2026-02-05T00:26:29.000Z</time></trkpt>
        <trkpt lat="29.5686478" lon="103.4102348"><ele>831.69</ele><time>2026-02-05T00:26:37.000Z</time></trkpt>
        <trkpt lat="29.5686213" lon="103.4101163"><ele>830.42</ele><time>2026-02-05T00:26:47.000Z</time></trkpt>
        <trkpt lat="29.5685685" lon="103.4100247"><ele>830.02</ele><time>2026-02-05T00:26:55.000Z</time></trkpt>
        <trkpt lat="29.5684806" lon="103.4099564"><ele>829.93</ele><time>2026-02-05T00:27:05.000Z</time></trkpt>
        <trkpt lat="29.5683905" lon="103.4099105"><ele>829.8</ele><time>2026-02-05T00:27:21.000Z</time></trkpt>
        <trkpt lat="29.5683262" lon="103.4098309"><ele>829.65</ele><time>2026-02-05T00:27:37.000Z</time></trkpt>
        <trkpt lat="29.56829" lon="103.4097266"><ele>830.81</ele><time>2026-02-05T00:27:51.000Z</time></trkpt>
        <trkpt lat="29.5682493" lon="103.4096227"><ele>831.87</ele><time>2026-02-05T00:28:07.000Z</time></trkpt>
        <trkpt lat="29.5682098" lon="103.4095171"><ele>829.94</ele><time>2026-02-05T00:28:27.000Z</time></trkpt>
        <trkpt lat="29.568167" lon="103.4094194"><ele>826.76</ele><time>2026-02-05T00:28:39.000Z</time></trkpt>
        <trkpt lat="29.5680938" lon="103.4093341"><ele>825.02</ele><time>2026-02-05T00:28:53.000Z</time></trkpt>
        <trkpt lat="29.5680529" lon="103.4092268"><ele>825</ele><time>2026-02-05T00:29:09.000Z</time></trkpt>
        <trkpt lat="29.5680461" lon="103.409183"><ele>822.84</ele><time>2026-02-05T00:29:26.000Z</time></trkpt>
        <trkpt lat="29.5680203" lon="103.4091066"><ele>821.22</ele><time>2026-02-05T00:29:58.000Z</time></trkpt>
        <trkpt lat="29.5679731" lon="103.4090248"><ele>816.74</ele><time>2026-02-05T00:30:12.000Z</time></trkpt>
        <trkpt lat="29.5679241" lon="103.4089151"><ele>813.15</ele><time>2026-02-05T00:30:22.000Z</time></trkpt>
        <trkpt lat="29.5678951" lon="103.4088067"><ele>811.24</ele><time>2026-02-05T00:30:36.000Z</time></trkpt>
        <trkpt lat="29.5678758" lon="103.4087003"><ele>807.99</ele><time>2026-02-05T00:31:24.000Z</time></trkpt>
        <trkpt lat="29.5678384" lon="103.4085968"><ele>803.82</ele><time>2026-02-05T00:31:38.000Z</time></trkpt>
        <trkpt lat="29.5677754" lon="103.408516"><ele>799.85</ele><time>2026-02-05T00:31:54.000Z</time></trkpt>
        <trkpt lat="29.5676894" lon="103.4084785"><ele>796.65</ele><time>2026-02-05T00:32:08.000Z</time></trkpt>
        <trkpt lat="29.5675934" lon="103.4085311"><ele>792.27</ele><time>2026-02-05T00:32:30.000Z</time></trkpt>
        <trkpt lat="29.5675103" lon="103.4086245"><ele>786.63</ele><time>2026-02-05T00:32:40.000Z</time></trkpt>
        <trkpt lat="29.5674155" lon="103.4086428"><ele>781.91</ele><time>2026-02-05T00:32:50.000Z</time></trkpt>
        <trkpt lat="29.5673269" lon="103.4086129"><ele>779.23</ele><time>2026-02-05T00:32:58.000Z</time></trkpt>
        <trkpt lat="29.5672429" lon="103.408555"><ele>777.54</ele><time>2026-02-05T00:33:06.000Z</time></trkpt>
        <trkpt lat="29.5671547" lon="103.408512"><ele>776.88</ele><time>2026-02-05T00:33:14.000Z</time></trkpt>
        <trkpt lat="29.5670648" lon="103.4084875"><ele>776.51</ele><time>2026-02-05T00:33:22.000Z</time></trkpt>
        <trkpt lat="29.5669702" lon="103.4084747"><ele>776.15</ele><time>2026-02-05T00:33:30.000Z</time></trkpt>
        <trkpt lat="29.5668736" lon="103.4084674"><ele>775.75</ele><time>2026-02-05T00:33:38.000Z</time></trkpt>
        <trkpt lat="29.5667605" lon="103.4084532"><ele>775.19</ele><time>2026-02-05T00:33:46.000Z</time></trkpt>
        <trkpt lat="29.5667005" lon="103.4083694"><ele>774.96</ele><time>2026-02-05T00:33:54.000Z</time></trkpt>
        <trkpt lat="29.5666957" lon="103.408246"><ele>774.74</ele><time>2026-02-05T00:34:02.000Z</time></trkpt>
        <trkpt lat="29.5667157" lon="103.408129"><ele>775.19</ele><time>2026-02-05T00:34:10.000Z</time></trkpt>
        <trkpt lat="29.5667081" lon="103.408011"><ele>775.76</ele><time>2026-02-05T00:34:18.000Z</time></trkpt>
        <trkpt lat="29.5666387" lon="103.4079587"><ele>777.02</ele><time>2026-02-05T00:34:36.000Z</time></trkpt>
        <trkpt lat="29.5666067" lon="103.4078612"><ele>777.33</ele><time>2026-02-05T00:34:50.000Z</time></trkpt>
        <trkpt lat="29.5666376" lon="103.4077483"><ele>778.62</ele><time>2026-02-05T00:35:00.000Z</time></trkpt>
        <trkpt lat="29.5666351" lon="103.4076367"><ele>779.61</ele><time>2026-02-05T00:35:10.000Z</time></trkpt>
        <trkpt lat="29.5665923" lon="103.4075308"><ele>779.1</ele><time>2026-02-05T00:35:36.000Z</time></trkpt>
        <trkpt lat="29.566531" lon="103.4074359"><ele>781.57</ele><time>2026-02-05T00:35:47.000Z</time></trkpt>
        <trkpt lat="29.566485" lon="103.4073391"><ele>782.92</ele><time>2026-02-05T00:35:56.000Z</time></trkpt>
        <trkpt lat="29.5664851" lon="103.4072145"><ele>783.19</ele><time>2026-02-05T00:36:30.000Z</time></trkpt>
        <trkpt lat="29.5664644" lon="103.4070872"><ele>781.32</ele><time>2026-02-05T00:36:38.000Z</time></trkpt>
        <trkpt lat="29.5664595" lon="103.4069743"><ele>780.57</ele><time>2026-02-05T00:36:46.000Z</time></trkpt>
        <trkpt lat="29.5664928" lon="103.4068631"><ele>779.3</ele><time>2026-02-05T00:36:56.000Z</time></trkpt>
        <trkpt lat="29.5665575" lon="103.4068641"><ele>778.67</ele><time>2026-02-05T00:37:12.000Z</time></trkpt>
        <trkpt lat="29.5665956" lon="103.4067966"><ele>778.73</ele><time>2026-02-05T00:37:26.000Z</time></trkpt>
        <trkpt lat="29.5666323" lon="103.4067052"><ele>776.96</ele><time>2026-02-05T00:37:36.000Z</time></trkpt>
        <trkpt lat="29.5666992" lon="103.4066357"><ele>777.23</ele><time>2026-02-05T00:37:44.000Z</time></trkpt>
        <trkpt lat="29.5667741" lon="103.4065561"><ele>777.26</ele><time>2026-02-05T00:37:52.000Z</time></trkpt>
        <trkpt lat="29.5668598" lon="103.4064712"><ele>777.44</ele><time>2026-02-05T00:38:00.000Z</time></trkpt>
        <trkpt lat="29.5669308" lon="103.4063753"><ele>776.84</ele><time>2026-02-05T00:38:08.000Z</time></trkpt>
        <trkpt lat="29.5669866" lon="103.4062687"><ele>774.74</ele><time>2026-02-05T00:38:16.000Z</time></trkpt>
        <trkpt lat="29.5670347" lon="103.4061585"><ele>773.21</ele><time>2026-02-05T00:38:24.000Z</time></trkpt>
        <trkpt lat="29.5670805" lon="103.4060635"><ele>772.85</ele><time>2026-02-05T00:38:30.000Z</time></trkpt>
        <trkpt lat="29.5671328" lon="103.4059686"><ele>772.45</ele><time>2026-02-05T00:38:38.000Z</time></trkpt>
        <trkpt lat="29.5671778" lon="103.4058602"><ele>771.42</ele><time>2026-02-05T00:38:48.000Z</time></trkpt>
        <trkpt lat="29.5671629" lon="103.4057482"><ele>768.88</ele><time>2026-02-05T00:38:58.000Z</time></trkpt>
        <trkpt lat="29.5670868" lon="103.4056607"><ele>767.07</ele><time>2026-02-05T00:39:08.000Z</time></trkpt>
        <trkpt lat="29.5670263" lon="103.4055659"><ele>766.22</ele><time>2026-02-05T00:39:16.000Z</time></trkpt>
        <trkpt lat="29.5669369" lon="103.4054895"><ele>765.02</ele><time>2026-02-05T00:39:24.000Z</time></trkpt>
        <trkpt lat="29.5668583" lon="103.4053986"><ele>765.38</ele><time>2026-02-05T00:39:32.000Z</time></trkpt>
        <trkpt lat="29.5668059" lon="103.405285"><ele>765.93</ele><time>2026-02-05T00:39:40.000Z</time></trkpt>
        <trkpt lat="29.5667943" lon="103.4051704"><ele>766.55</ele><time>2026-02-05T00:39:48.000Z</time></trkpt>
        <trkpt lat="29.5668265" lon="103.4050675"><ele>765.95</ele><time>2026-02-05T00:39:56.000Z</time></trkpt>
        <trkpt lat="29.5669094" lon="103.4050993"><ele>765.68</ele><time>2026-02-05T00:40:06.000Z</time></trkpt>
        <trkpt lat="29.5670063" lon="103.4051432"><ele>765.9</ele><time>2026-02-05T00:40:14.000Z</time></trkpt>
        <trkpt lat="29.5671109" lon="103.4051474"><ele>767.02</ele><time>2026-02-05T00:40:22.000Z</time></trkpt>
        <trkpt lat="29.5672166" lon="103.4051213"><ele>767.93</ele><time>2026-02-05T00:40:30.000Z</time></trkpt>
        <trkpt lat="29.567324" lon="103.4050986"><ele>768.34</ele><time>2026-02-05T00:40:38.000Z</time></trkpt>
        <trkpt lat="29.5674274" lon="103.4050841"><ele>767.8</ele><time>2026-02-05T00:40:46.000Z</time></trkpt>
        <trkpt lat="29.567529" lon="103.4050853"><ele>767.72</ele><time>2026-02-05T00:40:54.000Z</time></trkpt>
        <trkpt lat="29.5676282" lon="103.4050958"><ele>767.97</ele><time>2026-02-05T00:41:02.000Z</time></trkpt>
        <trkpt lat="29.5677305" lon="103.4051058"><ele>768.13</ele><time>2026-02-05T00:41:10.000Z</time></trkpt>
        <trkpt lat="29.5678352" lon="103.4051358"><ele>767.05</ele><time>2026-02-05T00:41:20.000Z</time></trkpt>
        <trkpt lat="29.567921" lon="103.4051022"><ele>765.73</ele><time>2026-02-05T00:41:28.000Z</time></trkpt>
        <trkpt lat="29.5680113" lon="103.4050565"><ele>764.6</ele><time>2026-02-05T00:41:36.000Z</time></trkpt>
        <trkpt lat="29.568084" lon="103.4049869"><ele>764.58</ele><time>2026-02-05T00:41:42.000Z</time></trkpt>
        <trkpt lat="29.5681597" lon="103.4049141"><ele>764.57</ele><time>2026-02-05T00:41:50.000Z</time></trkpt>
        <trkpt lat="29.5682466" lon="103.4048682"><ele>763.09</ele><time>2026-02-05T00:41:58.000Z</time></trkpt>
        <trkpt lat="29.5683341" lon="103.4048068"><ele>763.02</ele><time>2026-02-05T00:42:08.000Z</time></trkpt>
        <trkpt lat="29.5684025" lon="103.4047272"><ele>761.29</ele><time>2026-02-05T00:42:16.000Z</time></trkpt>
        <trkpt lat="29.5684529" lon="103.4046344"><ele>761.15</ele><time>2026-02-05T00:42:24.000Z</time></trkpt>
        <trkpt lat="29.5685038" lon="103.4045254"><ele>761.06</ele><time>2026-02-05T00:42:32.000Z</time></trkpt>
        <trkpt lat="29.5685439" lon="103.404416"><ele>760.53</ele><time>2026-02-05T00:42:40.000Z</time></trkpt>
        <trkpt lat="29.5685906" lon="103.4043065"><ele>758.91</ele><time>2026-02-05T00:42:48.000Z</time></trkpt>
        <trkpt lat="29.5686413" lon="103.4042016"><ele>756.28</ele><time>2026-02-05T00:42:56.000Z</time></trkpt>
        <trkpt lat="29.5687052" lon="103.404109"><ele>755.79</ele><time>2026-02-05T00:43:04.000Z</time></trkpt>
        <trkpt lat="29.5687768" lon="103.4040176"><ele>755.08</ele><time>2026-02-05T00:43:12.000Z</time></trkpt>
        <trkpt lat="29.5688565" lon="103.4039418"><ele>755.96</ele><time>2026-02-05T00:43:20.000Z</time></trkpt>
        <trkpt lat="29.5689511" lon="103.4039293"><ele>755.71</ele><time>2026-02-05T00:43:28.000Z</time></trkpt>
        <trkpt lat="29.5690392" lon="103.4039873"><ele>752.94</ele><time>2026-02-05T00:43:36.000Z</time></trkpt>
        <trkpt lat="29.5691438" lon="103.404026"><ele>751.66</ele><time>2026-02-05T00:43:44.000Z</time></trkpt>
        <trkpt lat="29.5692382" lon="103.4039905"><ele>751.09</ele><time>2026-02-05T00:43:52.000Z</time></trkpt>
        <trkpt lat="29.5693322" lon="103.4039275"><ele>750.12</ele><time>2026-02-05T00:44:00.000Z</time></trkpt>
        <trkpt lat="29.5694228" lon="103.4038543"><ele>749.23</ele><time>2026-02-05T00:44:08.000Z</time></trkpt>
        <trkpt lat="29.5695024" lon="103.4037795"><ele>748.57</ele><time>2026-02-05T00:44:16.000Z</time></trkpt>
        <trkpt lat="29.5695789" lon="103.4037075"><ele>747.79</ele><time>2026-02-05T00:44:24.000Z</time></trkpt>
        <trkpt lat="29.56966" lon="103.4036379"><ele>747.32</ele><time>2026-02-05T00:44:32.000Z</time></trkpt>
        <trkpt lat="29.5697398" lon="103.4035665"><ele>746.63</ele><time>2026-02-05T00:44:40.000Z</time></trkpt>
        <trkpt lat="29.5698119" lon="103.4034738"><ele>746.32</ele><time>2026-02-05T00:44:50.000Z</time></trkpt>
        <trkpt lat="29.5698902" lon="103.4033945"><ele>743.33</ele><time>2026-02-05T00:44:58.000Z</time></trkpt>
        <trkpt lat="29.5699566" lon="103.4033035"><ele>741.14</ele><time>2026-02-05T00:45:06.000Z</time></trkpt>
        <trkpt lat="29.5700111" lon="103.4032068"><ele>741.43</ele><time>2026-02-05T00:45:14.000Z</time></trkpt>
        <trkpt lat="29.5700388" lon="103.4030981"><ele>741.26</ele><time>2026-02-05T00:45:22.000Z</time></trkpt>
        <trkpt lat="29.5700628" lon="103.4029842"><ele>740.53</ele><time>2026-02-05T00:45:30.000Z</time></trkpt>
        <trkpt lat="29.5701304" lon="103.4028966"><ele>737.85</ele><time>2026-02-05T00:45:38.000Z</time></trkpt>
        <trkpt lat="29.5702243" lon="103.4028304"><ele>738.39</ele><time>2026-02-05T00:45:46.000Z</time></trkpt>
        <trkpt lat="29.5703406" lon="103.4028072"><ele>738.75</ele><time>2026-02-05T00:45:54.000Z</time></trkpt>
        <trkpt lat="29.570458" lon="103.4027928"><ele>738.87</ele><time>2026-02-05T00:46:02.000Z</time></trkpt>
        <trkpt lat="29.5705726" lon="103.4027696"><ele>739.59</ele><time>2026-02-05T00:46:10.000Z</time></trkpt>
        <trkpt lat="29.5706795" lon="103.4027363"><ele>740.37</ele><time>2026-02-05T00:46:18.000Z</time></trkpt>
        <trkpt lat="29.5707883" lon="103.4027097"><ele>738.48</ele><time>2026-02-05T00:46:26.000Z</time></trkpt>
        <trkpt lat="29.5708952" lon="103.4026799"><ele>735.74</ele><time>2026-02-05T00:46:34.000Z</time></trkpt>
        <trkpt lat="29.5709921" lon="103.4026343"><ele>733.81</ele><time>2026-02-05T00:46:42.000Z</time></trkpt>
        <trkpt lat="29.5710774" lon="103.4025776"><ele>732.41</ele><time>2026-02-05T00:46:50.000Z</time></trkpt>
        <trkpt lat="29.5711121" lon="103.4025934"><ele>731.99</ele><time>2026-02-05T00:46:54.000Z</time></trkpt>
        <trkpt lat="29.571063" lon="103.402667"><ele>732.37</ele><time>2026-02-05T00:47:14.000Z</time></trkpt>
        <trkpt lat="29.5709841" lon="103.4027666"><ele>730.64</ele><time>2026-02-05T00:47:24.000Z</time></trkpt>
        <trkpt lat="29.5710194" lon="103.4027776"><ele>728.9</ele><time>2026-02-05T00:47:42.000Z</time></trkpt>
        <trkpt lat="29.5710663" lon="103.4027"><ele>728.24</ele><time>2026-02-05T00:47:52.000Z</time></trkpt>
        <trkpt lat="29.5711044" lon="103.4025901"><ele>727.1</ele><time>2026-02-05T00:48:09.000Z</time></trkpt>
        <trkpt lat="29.5711675" lon="103.4024936"><ele>727.74</ele><time>2026-02-05T00:48:23.000Z</time></trkpt>
        <trkpt lat="29.5712235" lon="103.4023935"><ele>728.14</ele><time>2026-02-05T00:48:33.000Z</time></trkpt>
        <trkpt lat="29.5712854" lon="103.4022926"><ele>727.66</ele><time>2026-02-05T00:48:43.000Z</time></trkpt>
        <trkpt lat="29.571347" lon="103.4021971"><ele>728.33</ele><time>2026-02-05T00:48:51.000Z</time></trkpt>
        <trkpt lat="29.5714172" lon="103.4021036"><ele>729.14</ele><time>2026-02-05T00:48:59.000Z</time></trkpt>
        <trkpt lat="29.5714917" lon="103.4020087"><ele>729.6</ele><time>2026-02-05T00:49:07.000Z</time></trkpt>
        <trkpt lat="29.5715632" lon="103.401926"><ele>729.68</ele><time>2026-02-05T00:49:15.000Z</time></trkpt>
        <trkpt lat="29.5716521" lon="103.4018842"><ele>729.11</ele><time>2026-02-05T00:49:23.000Z</time></trkpt>
        <trkpt lat="29.5717193" lon="103.4018795"><ele>730.42</ele><time>2026-02-05T00:49:31.000Z</time></trkpt>
        <trkpt lat="29.571802" lon="103.4018581"><ele>730.2</ele><time>2026-02-05T00:49:53.000Z</time></trkpt>
        <trkpt lat="29.5718506" lon="103.4017688"><ele>730.09</ele><time>2026-02-05T00:50:09.000Z</time></trkpt>
        <trkpt lat="29.5718779" lon="103.4016957"><ele>729.63</ele><time>2026-02-05T00:50:15.000Z</time></trkpt>
        <trkpt lat="29.5719367" lon="103.401614"><ele>730.03</ele><time>2026-02-05T00:50:29.000Z</time></trkpt>
        <trkpt lat="29.5720138" lon="103.4015421"><ele>730.77</ele><time>2026-02-05T00:50:39.000Z</time></trkpt>
        <trkpt lat="29.572048" lon="103.4014378"><ele>731.3</ele><time>2026-02-05T00:50:51.000Z</time></trkpt>
        <trkpt lat="29.5720372" lon="103.4013243"><ele>731.99</ele><time>2026-02-05T00:51:02.000Z</time></trkpt>
        <trkpt lat="29.5720154" lon="103.401215"><ele>732.12</ele><time>2026-02-05T00:51:16.000Z</time></trkpt>
        <trkpt lat="29.5720142" lon="103.4010976"><ele>730.83</ele><time>2026-02-05T00:51:42.000Z</time></trkpt>
        <trkpt lat="29.5719899" lon="103.4009895"><ele>730.2</ele><time>2026-02-05T00:51:54.000Z</time></trkpt>
        <trkpt lat="29.5719736" lon="103.4008831"><ele>733.16</ele><time>2026-02-05T00:52:06.000Z</time></trkpt>
        <trkpt lat="29.5719646" lon="103.4007725"><ele>736.24</ele><time>2026-02-05T00:52:44.000Z</time></trkpt>
        <trkpt lat="29.5719188" lon="103.4006766"><ele>737.79</ele><time>2026-02-05T00:53:08.000Z</time></trkpt>
        <trkpt lat="29.5719094" lon="103.4006417"><ele>743.48</ele><time>2026-02-05T00:53:14.000Z</time></trkpt>
        <trkpt lat="29.5718732" lon="103.4005748"><ele>746.42</ele><time>2026-02-05T00:53:36.000Z</time></trkpt>
        <trkpt lat="29.5718985" lon="103.4004836"><ele>749.18</ele><time>2026-02-05T00:54:04.000Z</time></trkpt>
        <trkpt lat="29.5718772" lon="103.4003837"><ele>751.57</ele><time>2026-02-05T00:54:38.000Z</time></trkpt>
        <trkpt lat="29.5718799" lon="103.4002777"><ele>755.51</ele><time>2026-02-05T00:55:02.000Z</time></trkpt>
        <trkpt lat="29.5718774" lon="103.4001691"><ele>757.73</ele><time>2026-02-05T00:55:32.000Z</time></trkpt>
        <trkpt lat="29.5718416" lon="103.4000737"><ele>760.74</ele><time>2026-02-05T00:55:56.000Z</time></trkpt>
        <trkpt lat="29.5718206" lon="103.3999668"><ele>764.73</ele><time>2026-02-05T00:56:18.000Z</time></trkpt>
        <trkpt lat="29.5718462" lon="103.3998609"><ele>768.77</ele><time>2026-02-05T00:56:44.000Z</time></trkpt>
        <trkpt lat="29.5718572" lon="103.3997429"><ele>772.15</ele><time>2026-02-05T01:07:31.000Z</time></trkpt>
        <trkpt lat="29.5718427" lon="103.3996398"><ele>777.04</ele><time>2026-02-05T01:07:43.000Z</time></trkpt>
        <trkpt lat="29.5718485" lon="103.3995306"><ele>780.73</ele><time>2026-02-05T01:08:01.000Z</time></trkpt>
        <trkpt lat="29.5718282" lon="103.3994279"><ele>784.85</ele><time>2026-02-05T01:08:11.000Z</time></trkpt>
        <trkpt lat="29.5718143" lon="103.3993181"><ele>786.96</ele><time>2026-02-05T01:08:21.000Z</time></trkpt>
        <trkpt lat="29.571762" lon="103.3992362"><ele>788.25</ele><time>2026-02-05T01:08:37.000Z</time></trkpt>
        <trkpt lat="29.5717089" lon="103.3991451"><ele>788.65</ele><time>2026-02-05T01:08:59.000Z</time></trkpt>
        <trkpt lat="29.5716774" lon="103.3990415"><ele>790.61</ele><time>2026-02-05T01:09:13.000Z</time></trkpt>
        <trkpt lat="29.5716454" lon="103.3989345"><ele>793.65</ele><time>2026-02-05T01:09:27.000Z</time></trkpt>
        <trkpt lat="29.571621" lon="103.3988298"><ele>795.25</ele><time>2026-02-05T01:09:37.000Z</time></trkpt>
        <trkpt lat="29.5716163" lon="103.3987096"><ele>795.85</ele><time>2026-02-05T01:09:47.000Z</time></trkpt>
        <trkpt lat="29.5716203" lon="103.3986821"><ele>795.89</ele><time>2026-02-05T01:09:49.000Z</time></trkpt>
        <trkpt lat="29.5716178" lon="103.3985885"><ele>796.12</ele><time>2026-02-05T01:10:07.000Z</time></trkpt>
        <trkpt lat="29.5715914" lon="103.3984781"><ele>797.28</ele><time>2026-02-05T01:10:17.000Z</time></trkpt>
        <trkpt lat="29.5715803" lon="103.3983575"><ele>797.72</ele><time>2026-02-05T01:10:29.000Z</time></trkpt>
        <trkpt lat="29.5715882" lon="103.3982431"><ele>797.8</ele><time>2026-02-05T01:10:39.000Z</time></trkpt>
        <trkpt lat="29.5715994" lon="103.3981365"><ele>797.79</ele><time>2026-02-05T01:10:49.000Z</time></trkpt>
        <trkpt lat="29.571605" lon="103.3980275"><ele>797.8</ele><time>2026-02-05T01:10:59.000Z</time></trkpt>
        <trkpt lat="29.5715737" lon="103.3979127"><ele>796.91</ele><time>2026-02-05T01:11:13.000Z</time></trkpt>
        <trkpt lat="29.5715445" lon="103.3978062"><ele>794.52</ele><time>2026-02-05T01:11:23.000Z</time></trkpt>
        <trkpt lat="29.5715066" lon="103.3976976"><ele>792.53</ele><time>2026-02-05T01:11:37.000Z</time></trkpt>
        <trkpt lat="29.5714784" lon="103.397594"><ele>790.06</ele><time>2026-02-05T01:11:49.000Z</time></trkpt>
        <trkpt lat="29.5714532" lon="103.3974902"><ele>785.91</ele><time>2026-02-05T01:12:07.000Z</time></trkpt>
        <trkpt lat="29.571463" lon="103.3973859"><ele>778.85</ele><time>2026-02-05T01:12:17.000Z</time></trkpt>
        <trkpt lat="29.5714967" lon="103.3972849"><ele>773.91</ele><time>2026-02-05T01:12:27.000Z</time></trkpt>
        <trkpt lat="29.5715471" lon="103.3971831"><ele>770.94</ele><time>2026-02-05T01:12:39.000Z</time></trkpt>
        <trkpt lat="29.5716062" lon="103.3970916"><ele>768.1</ele><time>2026-02-05T01:12:51.000Z</time></trkpt>
        <trkpt lat="29.571669" lon="103.3970081"><ele>765.66</ele><time>2026-02-05T01:13:01.000Z</time></trkpt>
        <trkpt lat="29.5717179" lon="103.3969602"><ele>763.82</ele><time>2026-02-05T01:13:09.000Z</time></trkpt>
        <trkpt lat="29.5717789" lon="103.3968904"><ele>762.15</ele><time>2026-02-05T01:13:25.000Z</time></trkpt>
        <trkpt lat="29.5718442" lon="103.3968173"><ele>759.34</ele><time>2026-02-05T01:13:41.000Z</time></trkpt>
        <trkpt lat="29.5719368" lon="103.3967967"><ele>756.83</ele><time>2026-02-05T01:13:57.000Z</time></trkpt>
        <trkpt lat="29.5720315" lon="103.3967638"><ele>754.15</ele><time>2026-02-05T01:14:13.000Z</time></trkpt>
        <trkpt lat="29.5721259" lon="103.396736"><ele>751.18</ele><time>2026-02-05T01:14:25.000Z</time></trkpt>
        <trkpt lat="29.5722252" lon="103.3967216"><ele>747.4</ele><time>2026-02-05T01:14:39.000Z</time></trkpt>
        <trkpt lat="29.572326" lon="103.3967023"><ele>744.04</ele><time>2026-02-05T01:14:53.000Z</time></trkpt>
        <trkpt lat="29.5723763" lon="103.3966157"><ele>740.91</ele><time>2026-02-05T01:15:03.000Z</time></trkpt>
        <trkpt lat="29.5723895" lon="103.3965055"><ele>738.23</ele><time>2026-02-05T01:15:15.000Z</time></trkpt>
        <trkpt lat="29.5723674" lon="103.3963905"><ele>734.19</ele><time>2026-02-05T01:15:25.000Z</time></trkpt>
        <trkpt lat="29.5723977" lon="103.3962842"><ele>731.21</ele><time>2026-02-05T01:15:37.000Z</time></trkpt>
        <trkpt lat="29.5724212" lon="103.3961687"><ele>728.95</ele><time>2026-02-05T01:15:49.000Z</time></trkpt>
        <trkpt lat="29.5724635" lon="103.3960523"><ele>727.5</ele><time>2026-02-05T01:15:59.000Z</time></trkpt>
        <trkpt lat="29.5725391" lon="103.3959926"><ele>727.49</ele><time>2026-02-05T01:16:13.000Z</time></trkpt>
        <trkpt lat="29.5726114" lon="103.3959258"><ele>726.41</ele><time>2026-02-05T01:16:27.000Z</time></trkpt>
        <trkpt lat="29.5726922" lon="103.3958526"><ele>723.9</ele><time>2026-02-05T01:16:39.000Z</time></trkpt>
        <trkpt lat="29.5727802" lon="103.3957838"><ele>720.82</ele><time>2026-02-05T01:16:51.000Z</time></trkpt>
        <trkpt lat="29.5728467" lon="103.3957038"><ele>717.71</ele><time>2026-02-05T01:17:01.000Z</time></trkpt>
        <trkpt lat="29.5728953" lon="103.3956061"><ele>716.17</ele><time>2026-02-05T01:17:11.000Z</time></trkpt>
        <trkpt lat="29.5729282" lon="103.3954934"><ele>714.82</ele><time>2026-02-05T01:17:19.000Z</time></trkpt>
        <trkpt lat="29.5729759" lon="103.3953768"><ele>713.85</ele><time>2026-02-05T01:17:27.000Z</time></trkpt>
        <trkpt lat="29.5730216" lon="103.3952652"><ele>713.73</ele><time>2026-02-05T01:17:37.000Z</time></trkpt>
        <trkpt lat="29.5729746" lon="103.3951792"><ele>714.84</ele><time>2026-02-05T01:17:49.000Z</time></trkpt>
        <trkpt lat="29.5729363" lon="103.3950777"><ele>713.24</ele><time>2026-02-05T01:17:59.000Z</time></trkpt>
        <trkpt lat="29.5729306" lon="103.3949692"><ele>712.2</ele><time>2026-02-05T01:18:09.000Z</time></trkpt>
        <trkpt lat="29.5729444" lon="103.3948539"><ele>709.8</ele><time>2026-02-05T01:18:19.000Z</time></trkpt>
        <trkpt lat="29.5729008" lon="103.3947707"><ele>707.61</ele><time>2026-02-05T01:18:29.000Z</time></trkpt>
        <trkpt lat="29.5728305" lon="103.3946985"><ele>705.05</ele><time>2026-02-05T01:18:41.000Z</time></trkpt>
        <trkpt lat="29.5727457" lon="103.3946341"><ele>701.8</ele><time>2026-02-05T01:18:57.000Z</time></trkpt>
        <trkpt lat="29.5727315" lon="103.3945317"><ele>699.27</ele><time>2026-02-05T01:19:15.000Z</time></trkpt>
        <trkpt lat="29.5727773" lon="103.3944424"><ele>696.61</ele><time>2026-02-05T01:19:27.000Z</time></trkpt>
        <trkpt lat="29.572823" lon="103.3943315"><ele>694.55</ele><time>2026-02-05T01:19:41.000Z</time></trkpt>
        <trkpt lat="29.5728719" lon="103.3942305"><ele>692.48</ele><time>2026-02-05T01:19:51.000Z</time></trkpt>
        <trkpt lat="29.5729094" lon="103.394115"><ele>689.43</ele><time>2026-02-05T01:20:01.000Z</time></trkpt>
        <trkpt lat="29.5729509" lon="103.3940138"><ele>686.57</ele><time>2026-02-05T01:20:09.000Z</time></trkpt>
        <trkpt lat="29.5729985" lon="103.393906"><ele>684.34</ele><time>2026-02-05T01:20:19.000Z</time></trkpt>
        <trkpt lat="29.57304" lon="103.3938085"><ele>682.62</ele><time>2026-02-05T01:20:27.000Z</time></trkpt>
        <trkpt lat="29.5731108" lon="103.3937412"><ele>681.84</ele><time>2026-02-05T01:20:37.000Z</time></trkpt>
        <trkpt lat="29.5732021" lon="103.3937318"><ele>681.33</ele><time>2026-02-05T01:20:47.000Z</time></trkpt>
        <trkpt lat="29.573299" lon="103.393733"><ele>681.05</ele><time>2026-02-05T01:20:59.000Z</time></trkpt>
        <trkpt lat="29.5733807" lon="103.3936734"><ele>680.45</ele><time>2026-02-05T01:21:09.000Z</time></trkpt>
        <trkpt lat="29.5734633" lon="103.3935941"><ele>678.61</ele><time>2026-02-05T01:21:19.000Z</time></trkpt>
        <trkpt lat="29.5735623" lon="103.393544"><ele>677.99</ele><time>2026-02-05T01:21:29.000Z</time></trkpt>
        <trkpt lat="29.5736552" lon="103.3935057"><ele>677.19</ele><time>2026-02-05T01:21:45.000Z</time></trkpt>
        <trkpt lat="29.5736309" lon="103.393437"><ele>677.26</ele><time>2026-02-05T01:22:05.000Z</time></trkpt>
        <trkpt lat="29.5735561" lon="103.3933533"><ele>678.76</ele><time>2026-02-05T01:22:29.000Z</time></trkpt>
        <trkpt lat="29.5734706" lon="103.3932745"><ele>679.04</ele><time>2026-02-05T01:22:51.000Z</time></trkpt>
        <trkpt lat="29.5734646" lon="103.3933349"><ele>679.43</ele><time>2026-02-05T01:23:13.000Z</time></trkpt>
        <trkpt lat="29.5735379" lon="103.3933972"><ele>679.38</ele><time>2026-02-05T01:23:39.000Z</time></trkpt>
        <trkpt lat="29.5736306" lon="103.393474"><ele>677.77</ele><time>2026-02-05T01:23:53.000Z</time></trkpt>
        <trkpt lat="29.5737269" lon="103.393446"><ele>676.18</ele><time>2026-02-05T01:24:03.000Z</time></trkpt>
        <trkpt lat="29.5738201" lon="103.3934041"><ele>674.89</ele><time>2026-02-05T01:24:11.000Z</time></trkpt>
        <trkpt lat="29.5738965" lon="103.3933339"><ele>674.32</ele><time>2026-02-05T01:24:19.000Z</time></trkpt>
        <trkpt lat="29.5739618" lon="103.3932534"><ele>674.73</ele><time>2026-02-05T01:24:27.000Z</time></trkpt>
        <trkpt lat="29.5739945" lon="103.3932095"><ele>675.09</ele><time>2026-02-05T01:24:31.000Z</time></trkpt>
        <trkpt lat="29.5740254" lon="103.393127"><ele>675.49</ele><time>2026-02-05T01:24:45.000Z</time></trkpt>
        <trkpt lat="29.574068" lon="103.3930318"><ele>676.05</ele><time>2026-02-05T01:24:55.000Z</time></trkpt>
        <trkpt lat="29.5741236" lon="103.3929325"><ele>676.64</ele><time>2026-02-05T01:25:07.000Z</time></trkpt>
        <trkpt lat="29.5741555" lon="103.3928226"><ele>676.68</ele><time>2026-02-05T01:25:17.000Z</time></trkpt>
        <trkpt lat="29.5742027" lon="103.3927301"><ele>676.85</ele><time>2026-02-05T01:25:27.000Z</time></trkpt>
        <trkpt lat="29.5742288" lon="103.3926232"><ele>678.34</ele><time>2026-02-05T01:25:41.000Z</time></trkpt>
        <trkpt lat="29.5742261" lon="103.392512"><ele>680.82</ele><time>2026-02-05T01:25:57.000Z</time></trkpt>
        <trkpt lat="29.5741752" lon="103.392426"><ele>682.27</ele><time>2026-02-05T01:26:07.000Z</time></trkpt>
        <trkpt lat="29.5741223" lon="103.3923225"><ele>681.77</ele><time>2026-02-05T01:26:21.000Z</time></trkpt>
        <trkpt lat="29.574151" lon="103.3923574"><ele>679.66</ele><time>2026-02-05T01:26:35.000Z</time></trkpt>
        <trkpt lat="29.5742376" lon="103.3923692"><ele>674.7</ele><time>2026-02-05T01:27:05.000Z</time></trkpt>
        <trkpt lat="29.5742567" lon="103.3922934"><ele>667.5</ele><time>2026-02-05T01:27:21.000Z</time></trkpt>
        <trkpt lat="29.5742302" lon="103.3921837"><ele>659.11</ele><time>2026-02-05T01:27:39.000Z</time></trkpt>
        <trkpt lat="29.5741565" lon="103.3921119"><ele>651.01</ele><time>2026-02-05T01:28:00.000Z</time></trkpt>
        <trkpt lat="29.574075" lon="103.3920273"><ele>649.97</ele><time>2026-02-05T01:28:20.000Z</time></trkpt>
        <trkpt lat="29.5739942" lon="103.3920099"><ele>649.7</ele><time>2026-02-05T01:28:38.000Z</time></trkpt>
        <trkpt lat="29.5739754" lon="103.3919298"><ele>648.92</ele><time>2026-02-05T01:29:08.000Z</time></trkpt>
        <trkpt lat="29.5740186" lon="103.3918402"><ele>649.28</ele><time>2026-02-05T01:29:36.000Z</time></trkpt>
        <trkpt lat="29.5740031" lon="103.3919279"><ele>649.37</ele><time>2026-02-05T01:31:08.000Z</time></trkpt>
        <trkpt lat="29.5740246" lon="103.3920331"><ele>650.85</ele><time>2026-02-05T01:31:44.000Z</time></trkpt>
        <trkpt lat="29.573951" lon="103.3920899"><ele>650.59</ele><time>2026-02-05T01:32:28.000Z</time></trkpt>
        <trkpt lat="29.5738552" lon="103.3921004"><ele>649.94</ele><time>2026-02-05T01:32:42.000Z</time></trkpt>
        <trkpt lat="29.5737651" lon="103.3921391"><ele>650.57</ele><time>2026-02-05T01:32:52.000Z</time></trkpt>
        <trkpt lat="29.5737188" lon="103.3920704"><ele>650.58</ele><time>2026-02-05T01:32:58.000Z</time></trkpt>
        <trkpt lat="29.5736489" lon="103.3919867"><ele>650.71</ele><time>2026-02-05T01:33:08.000Z</time></trkpt>
        <trkpt lat="29.5735917" lon="103.3918799"><ele>649.01</ele><time>2026-02-05T01:33:18.000Z</time></trkpt>
        <trkpt lat="29.5735327" lon="103.3918252"><ele>648.14</ele><time>2026-02-05T01:33:26.000Z</time></trkpt>
        <trkpt lat="29.5734944" lon="103.3917365"><ele>648.62</ele><time>2026-02-05T01:33:42.000Z</time></trkpt>
        <trkpt lat="29.5734208" lon="103.3916664"><ele>646.59</ele><time>2026-02-05T01:33:56.000Z</time></trkpt>
        <trkpt lat="29.5733318" lon="103.3916636"><ele>645.77</ele><time>2026-02-05T01:34:06.000Z</time></trkpt>
        <trkpt lat="29.5732339" lon="103.391685"><ele>647.72</ele><time>2026-02-05T01:34:18.000Z</time></trkpt>
        <trkpt lat="29.5731313" lon="103.3917095"><ele>650.07</ele><time>2026-02-05T01:34:38.000Z</time></trkpt>
        <trkpt lat="29.5730322" lon="103.3917334"><ele>654.65</ele><time>2026-02-05T01:34:50.000Z</time></trkpt>
        <trkpt lat="29.5729546" lon="103.3917977"><ele>655.41</ele><time>2026-02-05T01:34:58.000Z</time></trkpt>
        <trkpt lat="29.5728609" lon="103.3918359"><ele>656.27</ele><time>2026-02-05T01:35:08.000Z</time></trkpt>
        <trkpt lat="29.5727713" lon="103.3918808"><ele>656.77</ele><time>2026-02-05T01:35:18.000Z</time></trkpt>
        <trkpt lat="29.5726938" lon="103.3918438"><ele>658.62</ele><time>2026-02-05T01:35:34.000Z</time></trkpt>
        <trkpt lat="29.572601" lon="103.3918135"><ele>657.46</ele><time>2026-02-05T01:35:50.000Z</time></trkpt>
        <trkpt lat="29.5725113" lon="103.3918277"><ele>657.75</ele><time>2026-02-05T01:36:04.000Z</time></trkpt>
        <trkpt lat="29.5724196" lon="103.3918016"><ele>660.22</ele><time>2026-02-05T01:36:16.000Z</time></trkpt>
        <trkpt lat="29.5723286" lon="103.3917433"><ele>663.19</ele><time>2026-02-05T01:36:28.000Z</time></trkpt>
        <trkpt lat="29.5722365" lon="103.3917214"><ele>666.12</ele><time>2026-02-05T01:36:36.000Z</time></trkpt>
        <trkpt lat="29.5721534" lon="103.3916741"><ele>668.95</ele><time>2026-02-05T01:36:46.000Z</time></trkpt>
        <trkpt lat="29.5720657" lon="103.3916543"><ele>671.25</ele><time>2026-02-05T01:36:54.000Z</time></trkpt>
        <trkpt lat="29.5719679" lon="103.3916528"><ele>672.25</ele><time>2026-02-05T01:37:04.000Z</time></trkpt>
        <trkpt lat="29.571866" lon="103.3916312"><ele>672.33</ele><time>2026-02-05T01:37:14.000Z</time></trkpt>
        <trkpt lat="29.571764" lon="103.3916376"><ele>671.87</ele><time>2026-02-05T01:37:24.000Z</time></trkpt>
        <trkpt lat="29.5716665" lon="103.3916352"><ele>672.01</ele><time>2026-02-05T01:37:34.000Z</time></trkpt>
        <trkpt lat="29.5715648" lon="103.3916377"><ele>672.81</ele><time>2026-02-05T01:37:44.000Z</time></trkpt>
        <trkpt lat="29.5714595" lon="103.3916548"><ele>672.17</ele><time>2026-02-05T01:37:54.000Z</time></trkpt>
        <trkpt lat="29.5713575" lon="103.3916583"><ele>670.01</ele><time>2026-02-05T01:38:04.000Z</time></trkpt>
        <trkpt lat="29.5712642" lon="103.391635"><ele>667.77</ele><time>2026-02-05T01:38:12.000Z</time></trkpt>
        <trkpt lat="29.571209" lon="103.3916103"><ele>666.37</ele><time>2026-02-05T01:38:20.000Z</time></trkpt>
        <trkpt lat="29.5711341" lon="103.3916486"><ele>664.19</ele><time>2026-02-05T01:38:40.000Z</time></trkpt>
        <trkpt lat="29.5710471" lon="103.3916541"><ele>662.17</ele><time>2026-02-05T01:38:52.000Z</time></trkpt>
        <trkpt lat="29.5709556" lon="103.3916379"><ele>663.14</ele><time>2026-02-05T01:39:04.000Z</time></trkpt>
        <trkpt lat="29.5708678" lon="103.3915851"><ele>663.07</ele><time>2026-02-05T01:39:16.000Z</time></trkpt>
        <trkpt lat="29.5707696" lon="103.3915442"><ele>661.48</ele><time>2026-02-05T01:40:18.000Z</time></trkpt>
        <trkpt lat="29.5706503" lon="103.3915408"><ele>661.53</ele><time>2026-02-05T01:40:42.000Z</time></trkpt>
        <trkpt lat="29.5706363" lon="103.3915197"><ele>663.33</ele><time>2026-02-05T01:40:48.000Z</time></trkpt>
        <trkpt lat="29.570558" lon="103.3915378"><ele>664.46</ele><time>2026-02-05T01:41:26.000Z</time></trkpt>
        <trkpt lat="29.5704833" lon="103.3914714"><ele>664.01</ele><time>2026-02-05T01:41:36.000Z</time></trkpt>
        <trkpt lat="29.5703887" lon="103.391427"><ele>663.26</ele><time>2026-02-05T01:41:46.000Z</time></trkpt>
        <trkpt lat="29.5703166" lon="103.3913423"><ele>662.25</ele><time>2026-02-05T01:42:00.000Z</time></trkpt>
        <trkpt lat="29.5702284" lon="103.3912995"><ele>663.44</ele><time>2026-02-05T01:42:12.000Z</time></trkpt>
        <trkpt lat="29.5701315" lon="103.3912892"><ele>661.2</ele><time>2026-02-05T01:42:24.000Z</time></trkpt>
        <trkpt lat="29.5700424" lon="103.3912537"><ele>656.86</ele><time>2026-02-05T01:42:34.000Z</time></trkpt>
        <trkpt lat="29.5699424" lon="103.391218"><ele>651.64</ele><time>2026-02-05T01:42:46.000Z</time></trkpt>
        <trkpt lat="29.5698436" lon="103.3911927"><ele>647.03</ele><time>2026-02-05T01:42:54.000Z</time></trkpt>
        <trkpt lat="29.5697454" lon="103.3911514"><ele>645.06</ele><time>2026-02-05T01:43:02.000Z</time></trkpt>
        <trkpt lat="29.5696375" lon="103.3911175"><ele>643.89</ele><time>2026-02-05T01:43:10.000Z</time></trkpt>
        <trkpt lat="29.5695399" lon="103.3910833"><ele>646.36</ele><time>2026-02-05T01:43:18.000Z</time></trkpt>
        <trkpt lat="29.5694438" lon="103.3910296"><ele>649.13</ele><time>2026-02-05T01:43:30.000Z</time></trkpt>
        <trkpt lat="29.5694037" lon="103.3909381"><ele>652.25</ele><time>2026-02-05T01:43:44.000Z</time></trkpt>
        <trkpt lat="29.5693221" lon="103.3909078"><ele>657.75</ele><time>2026-02-05T01:44:22.000Z</time></trkpt>
        <trkpt lat="29.5692541" lon="103.3908478"><ele>660.65</ele><time>2026-02-05T01:44:30.000Z</time></trkpt>
        <trkpt lat="29.5691731" lon="103.3907998"><ele>661.63</ele><time>2026-02-05T01:44:40.000Z</time></trkpt>
        <trkpt lat="29.5690975" lon="103.390839"><ele>660.53</ele><time>2026-02-05T01:44:48.000Z</time></trkpt>
        <trkpt lat="29.5690154" lon="103.3908991"><ele>660.55</ele><time>2026-02-05T01:44:58.000Z</time></trkpt>
        <trkpt lat="29.5689618" lon="103.3910042"><ele>660.69</ele><time>2026-02-05T01:45:08.000Z</time></trkpt>
        <trkpt lat="29.5689256" lon="103.3911168"><ele>661.05</ele><time>2026-02-05T01:45:20.000Z</time></trkpt>
        <trkpt lat="29.5688577" lon="103.3911986"><ele>660.31</ele><time>2026-02-05T01:45:38.000Z</time></trkpt>
        <trkpt lat="29.5687846" lon="103.3911706"><ele>662.4</ele><time>2026-02-05T01:45:46.000Z</time></trkpt>
        <trkpt lat="29.5687018" lon="103.3910961"><ele>660.79</ele><time>2026-02-05T01:45:54.000Z</time></trkpt>
        <trkpt lat="29.5686526" lon="103.3909931"><ele>659.55</ele><time>2026-02-05T01:46:02.000Z</time></trkpt>
        <trkpt lat="29.568603" lon="103.3908767"><ele>659.68</ele><time>2026-02-05T01:46:12.000Z</time></trkpt>
        <trkpt lat="29.5685631" lon="103.3907665"><ele>660.76</ele><time>2026-02-05T01:46:20.000Z</time></trkpt>
        <trkpt lat="29.5684896" lon="103.3906971"><ele>663.55</ele><time>2026-02-05T01:46:30.000Z</time></trkpt>
        <trkpt lat="29.5683827" lon="103.3906927"><ele>665.1</ele><time>2026-02-05T01:46:38.000Z</time></trkpt>
        <trkpt lat="29.5683584" lon="103.3907915"><ele>666.95</ele><time>2026-02-05T01:46:44.000Z</time></trkpt>
        <trkpt lat="29.5683761" lon="103.3909164"><ele>667.38</ele><time>2026-02-05T01:46:56.000Z</time></trkpt>
        <trkpt lat="29.5684694" lon="103.3909578"><ele>669.85</ele><time>2026-02-05T01:47:13.000Z</time></trkpt>
        <trkpt lat="29.5684802" lon="103.3908717"><ele>671.9</ele><time>2026-02-05T01:47:49.000Z</time></trkpt>
        <trkpt lat="29.568409" lon="103.3908725"><ele>674.85</ele><time>2026-02-05T01:48:01.000Z</time></trkpt>
        <trkpt lat="29.5683134" lon="103.3908907"><ele>678.56</ele><time>2026-02-05T01:48:11.000Z</time></trkpt>
        <trkpt lat="29.5682062" lon="103.3909167"><ele>682.2</ele><time>2026-02-05T01:48:25.000Z</time></trkpt>
        <trkpt lat="29.568121" lon="103.3908641"><ele>685.02</ele><time>2026-02-05T01:48:47.000Z</time></trkpt>
        <trkpt lat="29.5680808" lon="103.3907548"><ele>684.99</ele><time>2026-02-05T01:48:55.000Z</time></trkpt>
        <trkpt lat="29.5680739" lon="103.3906245"><ele>686.15</ele><time>2026-02-05T01:49:05.000Z</time></trkpt>
        <trkpt lat="29.5680023" lon="103.3905634"><ele>684.67</ele><time>2026-02-05T01:49:17.000Z</time></trkpt>
        <trkpt lat="29.5679121" lon="103.390587"><ele>681.7</ele><time>2026-02-05T01:49:23.000Z</time></trkpt>
        <trkpt lat="29.5678161" lon="103.3906435"><ele>678.96</ele><time>2026-02-05T01:49:33.000Z</time></trkpt>
        <trkpt lat="29.5677199" lon="103.3906375"><ele>680.29</ele><time>2026-02-05T01:49:47.000Z</time></trkpt>
        <trkpt lat="29.5676399" lon="103.3905819"><ele>682.62</ele><time>2026-02-05T01:49:57.000Z</time></trkpt>
        <trkpt lat="29.5675707" lon="103.390502"><ele>682.1</ele><time>2026-02-05T01:50:07.000Z</time></trkpt>
        <trkpt lat="29.5675577" lon="103.3903946"><ele>680.55</ele><time>2026-02-05T01:50:21.000Z</time></trkpt>
        <trkpt lat="29.5674891" lon="103.3903351"><ele>680.11</ele><time>2026-02-05T01:50:45.000Z</time></trkpt>
        <trkpt lat="29.5674379" lon="103.390245"><ele>682.42</ele><time>2026-02-05T01:50:51.000Z</time></trkpt>
        <trkpt lat="29.5673741" lon="103.3901669"><ele>684.76</ele><time>2026-02-05T01:50:59.000Z</time></trkpt>
        <trkpt lat="29.5672903" lon="103.3901252"><ele>688.64</ele><time>2026-02-05T01:51:07.000Z</time></trkpt>
        <trkpt lat="29.5672849" lon="103.3900725"><ele>691.76</ele><time>2026-02-05T01:51:13.000Z</time></trkpt>
        <trkpt lat="29.5672251" lon="103.3900336"><ele>690.65</ele><time>2026-02-05T01:51:25.000Z</time></trkpt>
        <trkpt lat="29.5671325" lon="103.3900177"><ele>692.22</ele><time>2026-02-05T01:51:31.000Z</time></trkpt>
        <trkpt lat="29.56705" lon="103.3899564"><ele>694.93</ele><time>2026-02-05T01:51:41.000Z</time></trkpt>
        <trkpt lat="29.5670172" lon="103.3899253"><ele>699.78</ele><time>2026-02-05T01:51:49.000Z</time></trkpt>
        <trkpt lat="29.5669382" lon="103.389943"><ele>701.58</ele><time>2026-02-05T01:52:01.000Z</time></trkpt>
        <trkpt lat="29.5668564" lon="103.3899916"><ele>704.02</ele><time>2026-02-05T01:52:11.000Z</time></trkpt>
        <trkpt lat="29.5667749" lon="103.3899585"><ele>707.98</ele><time>2026-02-05T01:52:33.000Z</time></trkpt>
        <trkpt lat="29.5667282" lon="103.3898629"><ele>708.39</ele><time>2026-02-05T01:52:41.000Z</time></trkpt>
        <trkpt lat="29.5666557" lon="103.3897788"><ele>708.16</ele><time>2026-02-05T01:52:51.000Z</time></trkpt>
        <trkpt lat="29.5665624" lon="103.3897287"><ele>706.07</ele><time>2026-02-05T01:52:59.000Z</time></trkpt>
        <trkpt lat="29.566466" lon="103.3897122"><ele>705.82</ele><time>2026-02-05T01:53:07.000Z</time></trkpt>
        <trkpt lat="29.5663634" lon="103.3897284"><ele>703.67</ele><time>2026-02-05T01:53:17.000Z</time></trkpt>
        <trkpt lat="29.5662633" lon="103.3897333"><ele>701.78</ele><time>2026-02-05T01:53:31.000Z</time></trkpt>
        <trkpt lat="29.5661666" lon="103.3897087"><ele>699.39</ele><time>2026-02-05T01:53:43.000Z</time></trkpt>
        <trkpt lat="29.5660776" lon="103.3896763"><ele>697.41</ele><time>2026-02-05T01:53:53.000Z</time></trkpt>
        <trkpt lat="29.5659843" lon="103.3896843"><ele>695.15</ele><time>2026-02-05T01:54:03.000Z</time></trkpt>
        <trkpt lat="29.5660074" lon="103.3896718"><ele>693.81</ele><time>2026-02-05T01:54:11.000Z</time></trkpt>
        <trkpt lat="29.5659543" lon="103.3896935"><ele>692.96</ele><time>2026-02-05T01:54:25.000Z</time></trkpt>
        <trkpt lat="29.5658719" lon="103.3897324"><ele>691.81</ele><time>2026-02-05T01:54:37.000Z</time></trkpt>
        <trkpt lat="29.5657735" lon="103.3897417"><ele>691.37</ele><time>2026-02-05T01:54:49.000Z</time></trkpt>
        <trkpt lat="29.5656782" lon="103.3897567"><ele>691.46</ele><time>2026-02-05T01:55:05.000Z</time></trkpt>
        <trkpt lat="29.5656285" lon="103.3896822"><ele>692.47</ele><time>2026-02-05T01:55:19.000Z</time></trkpt>
        <trkpt lat="29.5656352" lon="103.3895723"><ele>691.91</ele><time>2026-02-05T01:55:31.000Z</time></trkpt>
        <trkpt lat="29.5655701" lon="103.389549"><ele>689.61</ele><time>2026-02-05T01:55:53.000Z</time></trkpt>
        <trkpt lat="29.5654755" lon="103.3895353"><ele>692.18</ele><time>2026-02-05T01:56:03.000Z</time></trkpt>
        <trkpt lat="29.5653821" lon="103.3894878"><ele>695.98</ele><time>2026-02-05T01:56:13.000Z</time></trkpt>
        <trkpt lat="29.5652864" lon="103.389446"><ele>700.58</ele><time>2026-02-05T01:56:25.000Z</time></trkpt>
        <trkpt lat="29.5652022" lon="103.3893918"><ele>703.12</ele><time>2026-02-05T01:56:37.000Z</time></trkpt>
        <trkpt lat="29.5651406" lon="103.3892996"><ele>703.82</ele><time>2026-02-05T01:56:47.000Z</time></trkpt>
        <trkpt lat="29.5650733" lon="103.3892151"><ele>703.8</ele><time>2026-02-05T01:56:57.000Z</time></trkpt>
        <trkpt lat="29.5650146" lon="103.3891187"><ele>704.45</ele><time>2026-02-05T01:57:09.000Z</time></trkpt>
        <trkpt lat="29.5649438" lon="103.3890442"><ele>702.85</ele><time>2026-02-05T01:57:49.000Z</time></trkpt>
        <trkpt lat="29.5648783" lon="103.3889565"><ele>701.89</ele><time>2026-02-05T01:58:01.000Z</time></trkpt>
        <trkpt lat="29.5647949" lon="103.3889035"><ele>698.79</ele><time>2026-02-05T01:58:15.000Z</time></trkpt>
        <trkpt lat="29.5647736" lon="103.3889157"><ele>698.19</ele><time>2026-02-05T01:58:21.000Z</time></trkpt>
        <trkpt lat="29.5647123" lon="103.3889795"><ele>698.54</ele><time>2026-02-05T01:59:03.000Z</time></trkpt>
        <trkpt lat="29.5646273" lon="103.3890145"><ele>698.2</ele><time>2026-02-05T01:59:13.000Z</time></trkpt>
        <trkpt lat="29.5645284" lon="103.3890325"><ele>698.91</ele><time>2026-02-05T01:59:25.000Z</time></trkpt>
        <trkpt lat="29.5644309" lon="103.3890716"><ele>698.7</ele><time>2026-02-05T01:59:35.000Z</time></trkpt>
        <trkpt lat="29.5644316" lon="103.3890794"><ele>700.25</ele><time>2026-02-05T01:59:37.000Z</time></trkpt>
        <trkpt lat="29.5643629" lon="103.3890772"><ele>698.87</ele><time>2026-02-05T01:59:59.000Z</time></trkpt>
        <trkpt lat="29.5642743" lon="103.3890701"><ele>698.95</ele><time>2026-02-05T02:00:09.000Z</time></trkpt>
        <trkpt lat="29.5641964" lon="103.3890676"><ele>699.63</ele><time>2026-02-05T02:00:17.000Z</time></trkpt>
        <trkpt lat="29.5641209" lon="103.3891339"><ele>699.68</ele><time>2026-02-05T02:00:56.000Z</time></trkpt>
        <trkpt lat="29.5640361" lon="103.3891648"><ele>699</ele><time>2026-02-05T02:01:06.000Z</time></trkpt>
        <trkpt lat="29.5640669" lon="103.3892212"><ele>702.68</ele><time>2026-02-05T02:01:34.000Z</time></trkpt>
        <trkpt lat="29.5640186" lon="103.389251"><ele>704.44</ele><time>2026-02-05T02:01:48.000Z</time></trkpt>
        <trkpt lat="29.5639915" lon="103.3891624"><ele>702.59</ele><time>2026-02-05T02:01:54.000Z</time></trkpt>
        <trkpt lat="29.5639711" lon="103.3890424"><ele>703.99</ele><time>2026-02-05T02:02:02.000Z</time></trkpt>
        <trkpt lat="29.5638905" lon="103.389036"><ele>705.19</ele><time>2026-02-05T02:02:12.000Z</time></trkpt>
        <trkpt lat="29.5637869" lon="103.389014"><ele>704.6</ele><time>2026-02-05T02:02:22.000Z</time></trkpt>
        <trkpt lat="29.5636886" lon="103.388989"><ele>705.03</ele><time>2026-02-05T02:02:30.000Z</time></trkpt>
        <trkpt lat="29.5635862" lon="103.3889706"><ele>705.71</ele><time>2026-02-05T02:02:42.000Z</time></trkpt>
        <trkpt lat="29.5635011" lon="103.3889499"><ele>706.34</ele><time>2026-02-05T02:02:56.000Z</time></trkpt>
        <trkpt lat="29.5635839" lon="103.3889986"><ele>705.41</ele><time>2026-02-05T02:04:06.000Z</time></trkpt>
        <trkpt lat="29.5636111" lon="103.3889535"><ele>704.31</ele><time>2026-02-05T02:04:14.000Z</time></trkpt>
        <trkpt lat="29.5635344" lon="103.3889666"><ele>705.07</ele><time>2026-02-05T02:04:36.000Z</time></trkpt>
        <trkpt lat="29.5634459" lon="103.3889989"><ele>704.68</ele><time>2026-02-05T02:04:44.000Z</time></trkpt>
        <trkpt lat="29.5633576" lon="103.3890638"><ele>704.5</ele><time>2026-02-05T02:04:52.000Z</time></trkpt>
        <trkpt lat="29.5632716" lon="103.3890634"><ele>704.26</ele><time>2026-02-05T02:05:07.000Z</time></trkpt>
        <trkpt lat="29.5633108" lon="103.3889493"><ele>703.71</ele><time>2026-02-05T02:07:59.000Z</time></trkpt>
        <trkpt lat="29.5632138" lon="103.3889157"><ele>708.87</ele><time>2026-02-05T02:08:11.000Z</time></trkpt>
        <trkpt lat="29.5631177" lon="103.3889446"><ele>712.71</ele><time>2026-02-05T02:08:21.000Z</time></trkpt>
        <trkpt lat="29.5630266" lon="103.3889765"><ele>715.32</ele><time>2026-02-05T02:08:31.000Z</time></trkpt>
        <trkpt lat="29.5629251" lon="103.3890211"><ele>718.24</ele><time>2026-02-05T02:08:41.000Z</time></trkpt>
        <trkpt lat="29.5628319" lon="103.3890686"><ele>720.05</ele><time>2026-02-05T02:08:49.000Z</time></trkpt>
        <trkpt lat="29.5627352" lon="103.3890995"><ele>721.1</ele><time>2026-02-05T02:08:59.000Z</time></trkpt>
        <trkpt lat="29.5627456" lon="103.3890999"><ele>722.45</ele><time>2026-02-05T02:09:09.000Z</time></trkpt>
        <trkpt lat="29.5626845" lon="103.3890908"><ele>721.2</ele><time>2026-02-05T02:09:21.000Z</time></trkpt>
        <trkpt lat="29.5625996" lon="103.3890886"><ele>723.35</ele><time>2026-02-05T02:09:31.000Z</time></trkpt>
        <trkpt lat="29.5625076" lon="103.3890634"><ele>726.31</ele><time>2026-02-05T02:09:43.000Z</time></trkpt>
        <trkpt lat="29.5624257" lon="103.3889897"><ele>729.85</ele><time>2026-02-05T02:10:00.000Z</time></trkpt>
        <trkpt lat="29.5623249" lon="103.3889633"><ele>730.82</ele><time>2026-02-05T02:10:10.000Z</time></trkpt>
        <trkpt lat="29.5622197" lon="103.3889882"><ele>730.61</ele><time>2026-02-05T02:10:18.000Z</time></trkpt>
        <trkpt lat="29.5621195" lon="103.3890056"><ele>731.41</ele><time>2026-02-05T02:10:29.000Z</time></trkpt>
        <trkpt lat="29.5620405" lon="103.3890728"><ele>731.52</ele><time>2026-02-05T02:10:41.000Z</time></trkpt>
        <trkpt lat="29.5619765" lon="103.3891384"><ele>730.86</ele><time>2026-02-05T02:10:53.000Z</time></trkpt>
        <trkpt lat="29.5619639" lon="103.3892481"><ele>730.72</ele><time>2026-02-05T02:11:05.000Z</time></trkpt>
        <trkpt lat="29.5620316" lon="103.3893216"><ele>729.93</ele><time>2026-02-05T02:11:15.000Z</time></trkpt>
        <trkpt lat="29.5620774" lon="103.3894311"><ele>729.16</ele><time>2026-02-05T02:11:25.000Z</time></trkpt>
        <trkpt lat="29.5620578" lon="103.3894233"><ele>727.82</ele><time>2026-02-05T02:11:37.000Z</time></trkpt>
        <trkpt lat="29.5619743" lon="103.3893834"><ele>725.73</ele><time>2026-02-05T02:12:05.000Z</time></trkpt>
        <trkpt lat="29.5619188" lon="103.3893598"><ele>726.77</ele><time>2026-02-05T02:12:17.000Z</time></trkpt>
        <trkpt lat="29.561827" lon="103.3893423"><ele>729.27</ele><time>2026-02-05T02:12:41.000Z</time></trkpt>
        <trkpt lat="29.5617478" lon="103.3892743"><ele>732.86</ele><time>2026-02-05T02:12:53.000Z</time></trkpt>
        <trkpt lat="29.5616522" lon="103.3892535"><ele>733.72</ele><time>2026-02-05T02:13:03.000Z</time></trkpt>
        <trkpt lat="29.5615573" lon="103.3892509"><ele>736.09</ele><time>2026-02-05T02:13:11.000Z</time></trkpt>
        <trkpt lat="29.5614554" lon="103.3892467"><ele>737.25</ele><time>2026-02-05T02:13:21.000Z</time></trkpt>
        <trkpt lat="29.5613494" lon="103.3892325"><ele>738.05</ele><time>2026-02-05T02:13:31.000Z</time></trkpt>
        <trkpt lat="29.5612473" lon="103.3892256"><ele>738.31</ele><time>2026-02-05T02:13:39.000Z</time></trkpt>
        <trkpt lat="29.5611449" lon="103.3892363"><ele>740.14</ele><time>2026-02-05T02:13:49.000Z</time></trkpt>
        <trkpt lat="29.5610463" lon="103.3892656"><ele>742.85</ele><time>2026-02-05T02:13:59.000Z</time></trkpt>
        <trkpt lat="29.5609475" lon="103.3893086"><ele>745.18</ele><time>2026-02-05T02:14:09.000Z</time></trkpt>
        <trkpt lat="29.560855" lon="103.3893585"><ele>745.56</ele><time>2026-02-05T02:14:19.000Z</time></trkpt>
        <trkpt lat="29.5607666" lon="103.3893968"><ele>744.15</ele><time>2026-02-05T02:14:27.000Z</time></trkpt>
        <trkpt lat="29.5606763" lon="103.389408"><ele>741.67</ele><time>2026-02-05T02:14:35.000Z</time></trkpt>
        <trkpt lat="29.5605789" lon="103.3894301"><ele>741.61</ele><time>2026-02-05T02:14:43.000Z</time></trkpt>
        <trkpt lat="29.5604828" lon="103.3894255"><ele>742.01</ele><time>2026-02-05T02:14:51.000Z</time></trkpt>
        <trkpt lat="29.5603944" lon="103.3893931"><ele>741.72</ele><time>2026-02-05T02:14:59.000Z</time></trkpt>
        <trkpt lat="29.560296" lon="103.3893579"><ele>742.11</ele><time>2026-02-05T02:15:09.000Z</time></trkpt>
        <trkpt lat="29.5602797" lon="103.3893001"><ele>743.59</ele><time>2026-02-05T02:15:21.000Z</time></trkpt>
        <trkpt lat="29.5603953" lon="103.3893235"><ele>750.14</ele><time>2026-02-05T02:17:45.000Z</time></trkpt>
        <trkpt lat="29.5604137" lon="103.3894074"><ele>751.19</ele><time>2026-02-05T02:17:51.000Z</time></trkpt>
        <trkpt lat="29.5603307" lon="103.3893566"><ele>749.87</ele><time>2026-02-05T02:18:57.000Z</time></trkpt>
        <trkpt lat="29.5603557" lon="103.3892562"><ele>747.06</ele><time>2026-02-05T02:19:07.000Z</time></trkpt>
        <trkpt lat="29.5602829" lon="103.3892234"><ele>745.38</ele><time>2026-02-05T02:19:15.000Z</time></trkpt>
        <trkpt lat="29.5601906" lon="103.389197"><ele>743.1</ele><time>2026-02-05T02:19:27.000Z</time></trkpt>
        <trkpt lat="29.5601381" lon="103.3891067"><ele>742.68</ele><time>2026-02-05T02:19:43.000Z</time></trkpt>
        <trkpt lat="29.5601268" lon="103.3889988"><ele>742.88</ele><time>2026-02-05T02:19:51.000Z</time></trkpt>
        <trkpt lat="29.560119" lon="103.3888874"><ele>744.36</ele><time>2026-02-05T02:20:03.000Z</time></trkpt>
        <trkpt lat="29.560155" lon="103.3887849"><ele>745.85</ele><time>2026-02-05T02:20:15.000Z</time></trkpt>
        <trkpt lat="29.5601265" lon="103.3886954"><ele>747.02</ele><time>2026-02-05T02:20:31.000Z</time></trkpt>
        <trkpt lat="29.5600508" lon="103.3886481"><ele>748.81</ele><time>2026-02-05T02:20:39.000Z</time></trkpt>
        <trkpt lat="29.5599487" lon="103.3885991"><ele>750.12</ele><time>2026-02-05T02:20:49.000Z</time></trkpt>
        <trkpt lat="29.5598501" lon="103.3885332"><ele>751.78</ele><time>2026-02-05T02:20:59.000Z</time></trkpt>
        <trkpt lat="29.5597721" lon="103.3884626"><ele>753.36</ele><time>2026-02-05T02:21:07.000Z</time></trkpt>
        <trkpt lat="29.5597044" lon="103.3883884"><ele>754.99</ele><time>2026-02-05T02:21:15.000Z</time></trkpt>
        <trkpt lat="29.5596767" lon="103.3882919"><ele>755.84</ele><time>2026-02-05T02:21:23.000Z</time></trkpt>
        <trkpt lat="29.5596695" lon="103.3881832"><ele>757.95</ele><time>2026-02-05T02:21:31.000Z</time></trkpt>
        <trkpt lat="29.5596241" lon="103.3880767"><ele>757.97</ele><time>2026-02-05T02:21:39.000Z</time></trkpt>
        <trkpt lat="29.5595528" lon="103.3879789"><ele>758.58</ele><time>2026-02-05T02:21:47.000Z</time></trkpt>
        <trkpt lat="29.5594638" lon="103.3879016"><ele>758.38</ele><time>2026-02-05T02:21:55.000Z</time></trkpt>
        <trkpt lat="29.5593716" lon="103.3878374"><ele>758.43</ele><time>2026-02-05T02:22:03.000Z</time></trkpt>
        <trkpt lat="29.5592794" lon="103.3877774"><ele>758.47</ele><time>2026-02-05T02:22:11.000Z</time></trkpt>
        <trkpt lat="29.5591841" lon="103.3877305"><ele>757.21</ele><time>2026-02-05T02:22:19.000Z</time></trkpt>
        <trkpt lat="29.5590784" lon="103.3877321"><ele>755.71</ele><time>2026-02-05T02:22:27.000Z</time></trkpt>
        <trkpt lat="29.5589783" lon="103.3876903"><ele>756</ele><time>2026-02-05T02:22:37.000Z</time></trkpt>
        <trkpt lat="29.55887" lon="103.3876903"><ele>757.71</ele><time>2026-02-05T02:22:47.000Z</time></trkpt>
        <trkpt lat="29.558769" lon="103.3877149"><ele>758.34</ele><time>2026-02-05T02:22:55.000Z</time></trkpt>
        <trkpt lat="29.5586797" lon="103.3877022"><ele>759.1</ele><time>2026-02-05T02:23:03.000Z</time></trkpt>
        <trkpt lat="29.558585" lon="103.3876828"><ele>759.55</ele><time>2026-02-05T02:23:13.000Z</time></trkpt>
        <trkpt lat="29.5584933" lon="103.3876345"><ele>759.83</ele><time>2026-02-05T02:23:23.000Z</time></trkpt>
        <trkpt lat="29.5584088" lon="103.3875591"><ele>759.99</ele><time>2026-02-05T02:23:33.000Z</time></trkpt>
        <trkpt lat="29.5583292" lon="103.3874874"><ele>761.08</ele><time>2026-02-05T02:23:43.000Z</time></trkpt>
        <trkpt lat="29.558267" lon="103.3873572"><ele>762.78</ele><time>2026-02-05T02:24:03.000Z</time></trkpt>
        <trkpt lat="29.5581941" lon="103.3872663"><ele>761.71</ele><time>2026-02-05T02:24:09.000Z</time></trkpt>
        <trkpt lat="29.5581255" lon="103.3871785"><ele>763.05</ele><time>2026-02-05T02:24:21.000Z</time></trkpt>
        <trkpt lat="29.5580445" lon="103.3871278"><ele>764.96</ele><time>2026-02-05T02:24:29.000Z</time></trkpt>
        <trkpt lat="29.557946" lon="103.3870947"><ele>767.29</ele><time>2026-02-05T02:24:39.000Z</time></trkpt>
        <trkpt lat="29.5578497" lon="103.3870706"><ele>768.69</ele><time>2026-02-05T02:24:47.000Z</time></trkpt>
        <trkpt lat="29.5577528" lon="103.3870472"><ele>769.5</ele><time>2026-02-05T02:24:55.000Z</time></trkpt>
        <trkpt lat="29.5576931" lon="103.3869731"><ele>769.86</ele><time>2026-02-05T02:25:05.000Z</time></trkpt>
        <trkpt lat="29.5576913" lon="103.3868615"><ele>768.92</ele><time>2026-02-05T02:25:19.000Z</time></trkpt>
        <trkpt lat="29.557658" lon="103.386754"><ele>771.44</ele><time>2026-02-05T02:25:33.000Z</time></trkpt>
        <trkpt lat="29.5575857" lon="103.3866829"><ele>775.27</ele><time>2026-02-05T02:25:43.000Z</time></trkpt>
        <trkpt lat="29.5575359" lon="103.3865967"><ele>778</ele><time>2026-02-05T02:25:53.000Z</time></trkpt>
        <trkpt lat="29.5574891" lon="103.3864935"><ele>779.65</ele><time>2026-02-05T02:26:03.000Z</time></trkpt>
        <trkpt lat="29.5574092" lon="103.3864465"><ele>781.99</ele><time>2026-02-05T02:26:13.000Z</time></trkpt>
        <trkpt lat="29.5573185" lon="103.3864125"><ele>785.18</ele><time>2026-02-05T02:26:31.000Z</time></trkpt>
        <trkpt lat="29.5572246" lon="103.3863792"><ele>783.53</ele><time>2026-02-05T02:26:49.000Z</time></trkpt>
        <trkpt lat="29.5571249" lon="103.3863923"><ele>782.56</ele><time>2026-02-05T02:27:03.000Z</time></trkpt>
        <trkpt lat="29.5570422" lon="103.3863588"><ele>781.99</ele><time>2026-02-05T02:27:21.000Z</time></trkpt>
        <trkpt lat="29.557017" lon="103.3862597"><ele>782.26</ele><time>2026-02-05T02:27:33.000Z</time></trkpt>
        <trkpt lat="29.556962" lon="103.3861637"><ele>782.24</ele><time>2026-02-05T02:27:43.000Z</time></trkpt>
        <trkpt lat="29.5568764" lon="103.3860822"><ele>783.81</ele><time>2026-02-05T02:27:53.000Z</time></trkpt>
        <trkpt lat="29.5567963" lon="103.3860145"><ele>784.69</ele><time>2026-02-05T02:28:03.000Z</time></trkpt>
        <trkpt lat="29.556699" lon="103.3860269"><ele>785.07</ele><time>2026-02-05T02:28:13.000Z</time></trkpt>
        <trkpt lat="29.5566029" lon="103.386073"><ele>784</ele><time>2026-02-05T02:28:25.000Z</time></trkpt>
        <trkpt lat="29.5565122" lon="103.3861295"><ele>783.27</ele><time>2026-02-05T02:28:39.000Z</time></trkpt>
        <trkpt lat="29.556439" lon="103.3860696"><ele>781.68</ele><time>2026-02-05T02:42:36.000Z</time></trkpt>
        <trkpt lat="29.556435" lon="103.3860511"><ele>785.38</ele><time>2026-02-05T02:42:45.000Z</time></trkpt>
        <trkpt lat="29.556436" lon="103.3859586"><ele>788.51</ele><time>2026-02-05T02:43:09.000Z</time></trkpt>
        <trkpt lat="29.5563682" lon="103.3859664"><ele>792.8</ele><time>2026-02-05T02:43:57.000Z</time></trkpt>
        <trkpt lat="29.5562979" lon="103.386032"><ele>800.04</ele><time>2026-02-05T02:44:23.000Z</time></trkpt>
        <trkpt lat="29.5562131" lon="103.3860917"><ele>803.77</ele><time>2026-02-05T02:44:51.000Z</time></trkpt>
        <trkpt lat="29.5561216" lon="103.3860951"><ele>807.67</ele><time>2026-02-05T02:45:15.000Z</time></trkpt>
        <trkpt lat="29.55603" lon="103.3860715"><ele>811.6</ele><time>2026-02-05T02:45:53.000Z</time></trkpt>
        <trkpt lat="29.5559547" lon="103.3859809"><ele>817.04</ele><time>2026-02-05T02:47:15.000Z</time></trkpt>
        <trkpt lat="29.5560418" lon="103.3859367"><ele>819.18</ele><time>2026-02-05T02:48:01.000Z</time></trkpt>
        <trkpt lat="29.5559801" lon="103.3858574"><ele>823.11</ele><time>2026-02-05T02:49:06.000Z</time></trkpt>
        <trkpt lat="29.5560483" lon="103.3857762"><ele>830.15</ele><time>2026-02-05T02:49:26.000Z</time></trkpt>
        <trkpt lat="29.5560638" lon="103.3856711"><ele>835.56</ele><time>2026-02-05T02:49:48.000Z</time></trkpt>
        <trkpt lat="29.5560767" lon="103.3855632"><ele>838.32</ele><time>2026-02-05T02:50:12.000Z</time></trkpt>
        <trkpt lat="29.5561044" lon="103.3854611"><ele>841.54</ele><time>2026-02-05T02:50:32.000Z</time></trkpt>
        <trkpt lat="29.5560449" lon="103.3854598"><ele>845.26</ele><time>2026-02-05T02:51:08.000Z</time></trkpt>
        <trkpt lat="29.5559792" lon="103.3855359"><ele>848.24</ele><time>2026-02-05T02:51:26.000Z</time></trkpt>
        <trkpt lat="29.5559291" lon="103.3854951"><ele>851.23</ele><time>2026-02-05T02:52:14.000Z</time></trkpt>
        <trkpt lat="29.5558521" lon="103.3855212"><ele>855.41</ele><time>2026-02-05T02:52:38.000Z</time></trkpt>
        <trkpt lat="29.5557574" lon="103.3855378"><ele>858.7</ele><time>2026-02-05T02:53:08.000Z</time></trkpt>
        <trkpt lat="29.5557307" lon="103.3854645"><ele>863.64</ele><time>2026-02-05T02:53:56.000Z</time></trkpt>
        <trkpt lat="29.5556691" lon="103.3853949"><ele>868.12</ele><time>2026-02-05T02:54:42.000Z</time></trkpt>
        <trkpt lat="29.5556264" lon="103.3852952"><ele>873.42</ele><time>2026-02-05T02:55:13.000Z</time></trkpt>
        <trkpt lat="29.5556317" lon="103.3851877"><ele>876.6</ele><time>2026-02-05T02:55:49.000Z</time></trkpt>
        <trkpt lat="29.5556552" lon="103.3850748"><ele>879.88</ele><time>2026-02-05T02:56:17.000Z</time></trkpt>
        <trkpt lat="29.5555969" lon="103.3850498"><ele>883.62</ele><time>2026-02-05T02:56:57.000Z</time></trkpt>
        <trkpt lat="29.5554966" lon="103.3850298"><ele>888.66</ele><time>2026-02-05T02:57:31.000Z</time></trkpt>
        <trkpt lat="29.5553967" lon="103.3850114"><ele>891.98</ele><time>2026-02-05T02:57:53.000Z</time></trkpt>
        <trkpt lat="29.5553057" lon="103.3849689"><ele>895.18</ele><time>2026-02-05T02:58:11.000Z</time></trkpt>
        <trkpt lat="29.5552179" lon="103.3849289"><ele>896.06</ele><time>2026-02-05T02:58:33.000Z</time></trkpt>
        <trkpt lat="29.5551268" lon="103.3849367"><ele>898.21</ele><time>2026-02-05T02:58:55.000Z</time></trkpt>
        <trkpt lat="29.5550334" lon="103.3849181"><ele>902.16</ele><time>2026-02-05T02:59:11.000Z</time></trkpt>
        <trkpt lat="29.5549618" lon="103.384853"><ele>905.17</ele><time>2026-02-05T02:59:27.000Z</time></trkpt>
        <trkpt lat="29.5548812" lon="103.3847986"><ele>907.29</ele><time>2026-02-05T02:59:39.000Z</time></trkpt>
        <trkpt lat="29.5547963" lon="103.3847348"><ele>910.96</ele><time>2026-02-05T02:59:55.000Z</time></trkpt>
        <trkpt lat="29.5547174" lon="103.3846694"><ele>913.55</ele><time>2026-02-05T03:00:07.000Z</time></trkpt>
        <trkpt lat="29.5546377" lon="103.3846008"><ele>916.74</ele><time>2026-02-05T03:00:21.000Z</time></trkpt>
        <trkpt lat="29.5546335" lon="103.3844906"><ele>919.31</ele><time>2026-02-05T03:07:38.000Z</time></trkpt>
        <trkpt lat="29.5547288" lon="103.3845072"><ele>923.07</ele><time>2026-02-05T03:08:04.000Z</time></trkpt>
        <trkpt lat="29.5548203" lon="103.3844737"><ele>928.26</ele><time>2026-02-05T03:08:30.000Z</time></trkpt>
        <trkpt lat="29.5548869" lon="103.3843948"><ele>932.91</ele><time>2026-02-05T03:08:56.000Z</time></trkpt>
        <trkpt lat="29.5549611" lon="103.3843189"><ele>935.65</ele><time>2026-02-05T03:09:18.000Z</time></trkpt>
        <trkpt lat="29.5550442" lon="103.3842741"><ele>939.32</ele><time>2026-02-05T03:09:44.000Z</time></trkpt>
        <trkpt lat="29.5550689" lon="103.3841857"><ele>943.72</ele><time>2026-02-05T03:10:18.000Z</time></trkpt>
        <trkpt lat="29.5550278" lon="103.3840901"><ele>948.45</ele><time>2026-02-05T03:10:32.000Z</time></trkpt>
        <trkpt lat="29.554974" lon="103.3839923"><ele>950.89</ele><time>2026-02-05T03:10:52.000Z</time></trkpt>
        <trkpt lat="29.554958" lon="103.383877"><ele>948.75</ele><time>2026-02-05T03:11:02.000Z</time></trkpt>
        <trkpt lat="29.5549941" lon="103.3837665"><ele>949.19</ele><time>2026-02-05T03:11:12.000Z</time></trkpt>
        <trkpt lat="29.5550506" lon="103.3836653"><ele>949.7</ele><time>2026-02-05T03:11:22.000Z</time></trkpt>
        <trkpt lat="29.5550686" lon="103.3836407"><ele>951.1</ele><time>2026-02-05T03:11:24.000Z</time></trkpt>
        <trkpt lat="29.5550555" lon="103.3835671"><ele>952.42</ele><time>2026-02-05T03:11:42.000Z</time></trkpt>
        <trkpt lat="29.5550435" lon="103.383552"><ele>951.71</ele><time>2026-02-05T03:11:44.000Z</time></trkpt>
        <trkpt lat="29.5550072" lon="103.3834748"><ele>951.23</ele><time>2026-02-05T03:11:58.000Z</time></trkpt>
        <trkpt lat="29.5549245" lon="103.3834563"><ele>951.27</ele><time>2026-02-05T03:12:08.000Z</time></trkpt>
        <trkpt lat="29.5548419" lon="103.383407"><ele>951.14</ele><time>2026-02-05T03:12:20.000Z</time></trkpt>
        <trkpt lat="29.5547555" lon="103.3833526"><ele>950.84</ele><time>2026-02-05T03:12:32.000Z</time></trkpt>
        <trkpt lat="29.5546661" lon="103.3833077"><ele>950.12</ele><time>2026-02-05T03:12:42.000Z</time></trkpt>
        <trkpt lat="29.5545848" lon="103.3832444"><ele>949.36</ele><time>2026-02-05T03:12:52.000Z</time></trkpt>
        <trkpt lat="29.5544994" lon="103.3831897"><ele>948.53</ele><time>2026-02-05T03:13:04.000Z</time></trkpt>
        <trkpt lat="29.5544504" lon="103.3830918"><ele>949.44</ele><time>2026-02-05T03:13:14.000Z</time></trkpt>
        <trkpt lat="29.5544108" lon="103.3829843"><ele>950.75</ele><time>2026-02-05T03:13:26.000Z</time></trkpt>
        <trkpt lat="29.5543923" lon="103.3828735"><ele>954.58</ele><time>2026-02-05T03:13:48.000Z</time></trkpt>
        <trkpt lat="29.5544178" lon="103.3827708"><ele>958.71</ele><time>2026-02-05T03:14:14.000Z</time></trkpt>
        <trkpt lat="29.5544461" lon="103.3826646"><ele>961.38</ele><time>2026-02-05T03:14:44.000Z</time></trkpt>
        <trkpt lat="29.55441" lon="103.3825692"><ele>966.36</ele><time>2026-02-05T03:15:02.000Z</time></trkpt>
        <trkpt lat="29.5543394" lon="103.3825027"><ele>969.47</ele><time>2026-02-05T03:15:20.000Z</time></trkpt>
        <trkpt lat="29.5542683" lon="103.3824288"><ele>973.04</ele><time>2026-02-05T03:15:38.000Z</time></trkpt>
        <trkpt lat="29.554225" lon="103.382332"><ele>973.56</ele><time>2026-02-05T03:15:50.000Z</time></trkpt>
        <trkpt lat="29.5542172" lon="103.3822278"><ele>972.96</ele><time>2026-02-05T03:16:02.000Z</time></trkpt>
        <trkpt lat="29.5542245" lon="103.3821105"><ele>974.16</ele><time>2026-02-05T03:16:18.000Z</time></trkpt>
        <trkpt lat="29.5542299" lon="103.3819994"><ele>976.09</ele><time>2026-02-05T03:16:30.000Z</time></trkpt>
        <trkpt lat="29.5542043" lon="103.3819009"><ele>977.25</ele><time>2026-02-05T03:16:40.000Z</time></trkpt>
        <trkpt lat="29.5541716" lon="103.3818006"><ele>978.99</ele><time>2026-02-05T03:16:52.000Z</time></trkpt>
        <trkpt lat="29.5541566" lon="103.3816909"><ele>981.07</ele><time>2026-02-05T03:17:18.000Z</time></trkpt>
        <trkpt lat="29.5541254" lon="103.381585"><ele>982.47</ele><time>2026-02-05T03:17:32.000Z</time></trkpt>
        <trkpt lat="29.5540853" lon="103.3814832"><ele>983.69</ele><time>2026-02-05T03:17:44.000Z</time></trkpt>
        <trkpt lat="29.5540575" lon="103.3813708"><ele>985.36</ele><time>2026-02-05T03:17:58.000Z</time></trkpt>
        <trkpt lat="29.5540387" lon="103.3812589"><ele>987.2</ele><time>2026-02-05T03:18:10.000Z</time></trkpt>
        <trkpt lat="29.5540269" lon="103.3811528"><ele>987.52</ele><time>2026-02-05T03:18:20.000Z</time></trkpt>
        <trkpt lat="29.553983" lon="103.3810531"><ele>988.64</ele><time>2026-02-05T03:18:32.000Z</time></trkpt>
        <trkpt lat="29.553948" lon="103.3809422"><ele>990.59</ele><time>2026-02-05T03:18:46.000Z</time></trkpt>
        <trkpt lat="29.5539603" lon="103.3808274"><ele>990.75</ele><time>2026-02-05T03:19:00.000Z</time></trkpt>
        <trkpt lat="29.5540018" lon="103.3807156"><ele>993.21</ele><time>2026-02-05T03:19:12.000Z</time></trkpt>
        <trkpt lat="29.5540492" lon="103.3806094"><ele>995.07</ele><time>2026-02-05T03:19:24.000Z</time></trkpt>
        <trkpt lat="29.5540552" lon="103.3805019"><ele>997.35</ele><time>2026-02-05T03:19:34.000Z</time></trkpt>
        <trkpt lat="29.5540362" lon="103.3803841"><ele>998.97</ele><time>2026-02-05T03:19:44.000Z</time></trkpt>
        <trkpt lat="29.5540221" lon="103.3802649"><ele>1000.06</ele><time>2026-02-05T03:19:54.000Z</time></trkpt>
        <trkpt lat="29.5540032" lon="103.3801471"><ele>1000.3</ele><time>2026-02-05T03:20:04.000Z</time></trkpt>
        <trkpt lat="29.5540045" lon="103.3800378"><ele>1000.52</ele><time>2026-02-05T03:20:12.000Z</time></trkpt>
        <trkpt lat="29.5539858" lon="103.3799321"><ele>1001.29</ele><time>2026-02-05T03:20:26.000Z</time></trkpt>
        <trkpt lat="29.5539688" lon="103.3798275"><ele>1002.25</ele><time>2026-02-05T03:20:46.000Z</time></trkpt>
        <trkpt lat="29.5539445" lon="103.3797262"><ele>1005.2</ele><time>2026-02-05T03:21:14.000Z</time></trkpt>
        <trkpt lat="29.5539264" lon="103.379618"><ele>1007.84</ele><time>2026-02-05T03:21:36.000Z</time></trkpt>
        <trkpt lat="29.5538994" lon="103.3795155"><ele>1011.69</ele><time>2026-02-05T03:21:54.000Z</time></trkpt>
        <trkpt lat="29.5538744" lon="103.3794071"><ele>1015.35</ele><time>2026-02-05T03:22:10.000Z</time></trkpt>
        <trkpt lat="29.5538652" lon="103.3792994"><ele>1018.23</ele><time>2026-02-05T03:22:28.000Z</time></trkpt>
        <trkpt lat="29.5538516" lon="103.379191"><ele>1019.66</ele><time>2026-02-05T03:22:44.000Z</time></trkpt>
        <trkpt lat="29.5538345" lon="103.3790825"><ele>1020.98</ele><time>2026-02-05T03:23:00.000Z</time></trkpt>
        <trkpt lat="29.55381" lon="103.378976"><ele>1021.37</ele><time>2026-02-05T03:23:14.000Z</time></trkpt>
        <trkpt lat="29.5538115" lon="103.3788617"><ele>1023</ele><time>2026-02-05T03:23:29.000Z</time></trkpt>
        <trkpt lat="29.5538351" lon="103.3787581"><ele>1025.02</ele><time>2026-02-05T03:23:39.000Z</time></trkpt>
        <trkpt lat="29.5538508" lon="103.3787009"><ele>1026.79</ele><time>2026-02-05T03:23:45.000Z</time></trkpt>
        <trkpt lat="29.5538549" lon="103.3786126"><ele>1027.91</ele><time>2026-02-05T03:23:59.000Z</time></trkpt>
        <trkpt lat="29.5538454" lon="103.3785121"><ele>1031.47</ele><time>2026-02-05T03:24:19.000Z</time></trkpt>
        <trkpt lat="29.5538205" lon="103.3784058"><ele>1035.76</ele><time>2026-02-05T03:24:35.000Z</time></trkpt>
        <trkpt lat="29.5537602" lon="103.3783227"><ele>1038.21</ele><time>2026-02-05T03:24:57.000Z</time></trkpt>
        <trkpt lat="29.5536962" lon="103.3782418"><ele>1039.02</ele><time>2026-02-05T03:25:15.000Z</time></trkpt>
        <trkpt lat="29.5536443" lon="103.378145"><ele>1040.66</ele><time>2026-02-05T03:25:27.000Z</time></trkpt>
        <trkpt lat="29.5535769" lon="103.3780673"><ele>1040.12</ele><time>2026-02-05T03:25:41.000Z</time></trkpt>
        <trkpt lat="29.5535231" lon="103.377983"><ele>1039.41</ele><time>2026-02-05T03:26:05.000Z</time></trkpt>
        <trkpt lat="29.5534835" lon="103.3778856"><ele>1042.33</ele><time>2026-02-05T03:26:33.000Z</time></trkpt>
        <trkpt lat="29.5534371" lon="103.377793"><ele>1047.29</ele><time>2026-02-05T03:27:01.000Z</time></trkpt>
        <trkpt lat="29.5533681" lon="103.3777228"><ele>1051.64</ele><time>2026-02-05T03:27:35.000Z</time></trkpt>
        <trkpt lat="29.5532745" lon="103.3776837"><ele>1056.48</ele><time>2026-02-05T03:28:15.000Z</time></trkpt>
        <trkpt lat="29.5532124" lon="103.3776068"><ele>1060.56</ele><time>2026-02-05T03:28:45.000Z</time></trkpt>
        <trkpt lat="29.5531607" lon="103.3775197"><ele>1067.29</ele><time>2026-02-05T03:29:09.000Z</time></trkpt>
        <trkpt lat="29.5530892" lon="103.3774592"><ele>1072.94</ele><time>2026-02-05T03:29:55.000Z</time></trkpt>
        <trkpt lat="29.5530206" lon="103.3773928"><ele>1077.46</ele><time>2026-02-05T03:30:31.000Z</time></trkpt>
        <trkpt lat="29.5529821" lon="103.3773021"><ele>1081.74</ele><time>2026-02-05T03:31:03.000Z</time></trkpt>
        <trkpt lat="29.5529194" lon="103.3772242"><ele>1087.3</ele><time>2026-02-05T03:31:29.000Z</time></trkpt>
        <trkpt lat="29.5528353" lon="103.3771821"><ele>1091.92</ele><time>2026-02-05T03:32:09.000Z</time></trkpt>
        <trkpt lat="29.5527428" lon="103.3771434"><ele>1095.65</ele><time>2026-02-05T03:32:33.000Z</time></trkpt>
        <trkpt lat="29.5526645" lon="103.3770862"><ele>1100.1</ele><time>2026-02-05T03:33:00.000Z</time></trkpt>
        <trkpt lat="29.5525752" lon="103.3770557"><ele>1103.62</ele><time>2026-02-05T03:33:37.000Z</time></trkpt>
        <trkpt lat="29.5524872" lon="103.3770223"><ele>1106.8</ele><time>2026-02-05T03:34:03.000Z</time></trkpt>
        <trkpt lat="29.5523971" lon="103.3770022"><ele>1110.41</ele><time>2026-02-05T03:34:23.000Z</time></trkpt>
        <trkpt lat="29.5523164" lon="103.3769562"><ele>1112.96</ele><time>2026-02-05T03:34:45.000Z</time></trkpt>
        <trkpt lat="29.5522316" lon="103.3769183"><ele>1116.86</ele><time>2026-02-05T03:35:11.000Z</time></trkpt>
        <trkpt lat="29.5521459" lon="103.3768605"><ele>1119.69</ele><time>2026-02-05T03:35:31.000Z</time></trkpt>
        <trkpt lat="29.552065" lon="103.3767971"><ele>1122.48</ele><time>2026-02-05T03:35:51.000Z</time></trkpt>
        <trkpt lat="29.5519791" lon="103.3767567"><ele>1127.01</ele><time>2026-02-05T03:36:07.000Z</time></trkpt>
        <trkpt lat="29.5518909" lon="103.3767288"><ele>1128.78</ele><time>2026-02-05T03:36:23.000Z</time></trkpt>
        <trkpt lat="29.5517925" lon="103.3766884"><ele>1128.62</ele><time>2026-02-05T03:43:13.000Z</time></trkpt>
        <trkpt lat="29.5517933" lon="103.3767111"><ele>1129.65</ele><time>2026-02-05T03:43:17.000Z</time></trkpt>
        <trkpt lat="29.5518206" lon="103.3766261"><ele>1130.87</ele><time>2026-02-05T03:43:25.000Z</time></trkpt>
        <trkpt lat="29.5518194" lon="103.3766147"><ele>1134.77</ele><time>2026-02-05T03:43:29.000Z</time></trkpt>
        <trkpt lat="29.5518426" lon="103.3767"><ele>1136.35</ele><time>2026-02-05T03:43:41.000Z</time></trkpt>
        <trkpt lat="29.5518173" lon="103.3766562"><ele>1137.9</ele><time>2026-02-05T03:43:51.000Z</time></trkpt>
        <trkpt lat="29.5518048" lon="103.3765585"><ele>1139.33</ele><time>2026-02-05T03:44:15.000Z</time></trkpt>
        <trkpt lat="29.5517662" lon="103.3764549"><ele>1142.07</ele><time>2026-02-05T03:44:51.000Z</time></trkpt>
        <trkpt lat="29.5517299" lon="103.3763485"><ele>1145.6</ele><time>2026-02-05T03:45:39.000Z</time></trkpt>
        <trkpt lat="29.5517238" lon="103.376236"><ele>1151.98</ele><time>2026-02-05T03:46:17.000Z</time></trkpt>
        <trkpt lat="29.5517253" lon="103.3761235"><ele>1157.91</ele><time>2026-02-05T03:46:35.000Z</time></trkpt>
        <trkpt lat="29.5517262" lon="103.3760142"><ele>1162.9</ele><time>2026-02-05T03:46:57.000Z</time></trkpt>
        <trkpt lat="29.5517418" lon="103.3759087"><ele>1167.73</ele><time>2026-02-05T03:47:25.000Z</time></trkpt>
        <trkpt lat="29.5517054" lon="103.3758153"><ele>1172.91</ele><time>2026-02-05T03:47:39.000Z</time></trkpt>
        <trkpt lat="29.5516644" lon="103.3757174"><ele>1176.09</ele><time>2026-02-05T03:47:51.000Z</time></trkpt>
        <trkpt lat="29.5516279" lon="103.3756151"><ele>1177.97</ele><time>2026-02-05T03:48:01.000Z</time></trkpt>
        <trkpt lat="29.5515587" lon="103.3755296"><ele>1179.32</ele><time>2026-02-05T03:48:13.000Z</time></trkpt>
        <trkpt lat="29.5514782" lon="103.3754526"><ele>1179.21</ele><time>2026-02-05T03:48:23.000Z</time></trkpt>
        <trkpt lat="29.5513963" lon="103.3753835"><ele>1178.7</ele><time>2026-02-05T03:48:33.000Z</time></trkpt>
        <trkpt lat="29.5513146" lon="103.375319"><ele>1178.35</ele><time>2026-02-05T03:48:43.000Z</time></trkpt>
        <trkpt lat="29.5512294" lon="103.3752688"><ele>1177.73</ele><time>2026-02-05T03:48:59.000Z</time></trkpt>
        <trkpt lat="29.5511495" lon="103.3752153"><ele>1180.01</ele><time>2026-02-05T03:49:50.000Z</time></trkpt>
        <trkpt lat="29.5510559" lon="103.3751811"><ele>1184.97</ele><time>2026-02-05T03:50:00.000Z</time></trkpt>
        <trkpt lat="29.5509613" lon="103.3752078"><ele>1187.83</ele><time>2026-02-05T03:50:18.000Z</time></trkpt>
        <trkpt lat="29.5508631" lon="103.3752154"><ele>1188.12</ele><time>2026-02-05T03:50:32.000Z</time></trkpt>
        <trkpt lat="29.5507706" lon="103.3751814"><ele>1190.36</ele><time>2026-02-05T03:50:44.000Z</time></trkpt>
        <trkpt lat="29.5506748" lon="103.3751182"><ele>1192.38</ele><time>2026-02-05T03:50:54.000Z</time></trkpt>
        <trkpt lat="29.5505841" lon="103.3750665"><ele>1194.42</ele><time>2026-02-05T03:51:04.000Z</time></trkpt>
        <trkpt lat="29.5504896" lon="103.3750239"><ele>1196.69</ele><time>2026-02-05T03:51:14.000Z</time></trkpt>
        <trkpt lat="29.5503937" lon="103.3749968"><ele>1199.03</ele><time>2026-02-05T03:51:24.000Z</time></trkpt>
        <trkpt lat="29.5503121" lon="103.3749352"><ele>1199.41</ele><time>2026-02-05T03:51:36.000Z</time></trkpt>
        <trkpt lat="29.5502423" lon="103.3748968"><ele>1198.49</ele><time>2026-02-05T03:51:48.000Z</time></trkpt>
        <trkpt lat="29.5501632" lon="103.3748523"><ele>1196.16</ele><time>2026-02-05T03:52:10.000Z</time></trkpt>
        <trkpt lat="29.5500733" lon="103.3748156"><ele>1197.55</ele><time>2026-02-05T03:52:28.000Z</time></trkpt>
        <trkpt lat="29.5499839" lon="103.3747725"><ele>1198.58</ele><time>2026-02-05T03:52:40.000Z</time></trkpt>
        <trkpt lat="29.5499325" lon="103.374679"><ele>1199.16</ele><time>2026-02-05T03:52:56.000Z</time></trkpt>
        <trkpt lat="29.5499628" lon="103.3745796"><ele>1200.46</ele><time>2026-02-05T03:53:08.000Z</time></trkpt>
        <trkpt lat="29.5500249" lon="103.3744866"><ele>1201.06</ele><time>2026-02-05T03:53:30.000Z</time></trkpt>
        <trkpt lat="29.550118" lon="103.3744178"><ele>1203.03</ele><time>2026-02-05T03:54:23.000Z</time></trkpt>
        <trkpt lat="29.5502045" lon="103.3743336"><ele>1208.66</ele><time>2026-02-05T03:54:33.000Z</time></trkpt>
        <trkpt lat="29.5503057" lon="103.3742949"><ele>1212.12</ele><time>2026-02-05T03:54:43.000Z</time></trkpt>
        <trkpt lat="29.5503959" lon="103.3742381"><ele>1216.03</ele><time>2026-02-05T03:54:53.000Z</time></trkpt>
        <trkpt lat="29.550465" lon="103.3741667"><ele>1219.16</ele><time>2026-02-05T03:55:01.000Z</time></trkpt>
        <trkpt lat="29.5505275" lon="103.3740918"><ele>1220.85</ele><time>2026-02-05T03:55:11.000Z</time></trkpt>
        <trkpt lat="29.5506109" lon="103.3740466"><ele>1221.97</ele><time>2026-02-05T03:55:21.000Z</time></trkpt>
        <trkpt lat="29.5507066" lon="103.3740331"><ele>1221.96</ele><time>2026-02-05T03:55:31.000Z</time></trkpt>
        <trkpt lat="29.5507782" lon="103.3739776"><ele>1222.93</ele><time>2026-02-05T03:55:39.000Z</time></trkpt>
        <trkpt lat="29.5507995" lon="103.3739419"><ele>1222.83</ele><time>2026-02-05T03:55:43.000Z</time></trkpt>
        <trkpt lat="29.5508624" lon="103.3739033"><ele>1221.86</ele><time>2026-02-05T03:56:05.000Z</time></trkpt>
        <trkpt lat="29.5509221" lon="103.3738331"><ele>1223.14</ele><time>2026-02-05T03:56:15.000Z</time></trkpt>
        <trkpt lat="29.5510002" lon="103.3737554"><ele>1223.11</ele><time>2026-02-05T03:56:27.000Z</time></trkpt>
        <trkpt lat="29.5510959" lon="103.3737019"><ele>1221.92</ele><time>2026-02-05T03:56:39.000Z</time></trkpt>
        <trkpt lat="29.5511966" lon="103.3736803"><ele>1219.03</ele><time>2026-02-05T03:56:49.000Z</time></trkpt>
        <trkpt lat="29.5512922" lon="103.3736314"><ele>1216.92</ele><time>2026-02-05T03:57:01.000Z</time></trkpt>
        <trkpt lat="29.5512692" lon="103.3735236"><ele>1216.63</ele><time>2026-02-05T03:58:25.000Z</time></trkpt>
        <trkpt lat="29.5513238" lon="103.3734104"><ele>1213.97</ele><time>2026-02-05T03:58:37.000Z</time></trkpt>
        <trkpt lat="29.5513549" lon="103.3732961"><ele>1212.39</ele><time>2026-02-05T03:58:47.000Z</time></trkpt>
        <trkpt lat="29.5513126" lon="103.3731927"><ele>1211.31</ele><time>2026-02-05T03:58:56.000Z</time></trkpt>
        <trkpt lat="29.5512399" lon="103.3731184"><ele>1211.01</ele><time>2026-02-05T03:59:08.000Z</time></trkpt>
        <trkpt lat="29.5511814" lon="103.3730226"><ele>1211.39</ele><time>2026-02-05T03:59:23.000Z</time></trkpt>
        <trkpt lat="29.5511261" lon="103.3729247"><ele>1211.15</ele><time>2026-02-05T03:59:33.000Z</time></trkpt>
        <trkpt lat="29.5510348" lon="103.372926"><ele>1211.83</ele><time>2026-02-05T03:59:45.000Z</time></trkpt>
        <trkpt lat="29.5509265" lon="103.3729214"><ele>1211</ele><time>2026-02-05T03:59:55.000Z</time></trkpt>
        <trkpt lat="29.5508123" lon="103.3729367"><ele>1210.1</ele><time>2026-02-05T04:00:05.000Z</time></trkpt>
        <trkpt lat="29.5507125" lon="103.3729482"><ele>1209.3</ele><time>2026-02-05T04:00:13.000Z</time></trkpt>
        <trkpt lat="29.5506184" lon="103.3729703"><ele>1207.98</ele><time>2026-02-05T04:00:21.000Z</time></trkpt>
        <trkpt lat="29.5505175" lon="103.3729672"><ele>1206.94</ele><time>2026-02-05T04:00:29.000Z</time></trkpt>
        <trkpt lat="29.5504244" lon="103.3730124"><ele>1206.61</ele><time>2026-02-05T04:00:39.000Z</time></trkpt>
        <trkpt lat="29.5503276" lon="103.3730661"><ele>1205.66</ele><time>2026-02-05T04:00:49.000Z</time></trkpt>
        <trkpt lat="29.5502287" lon="103.3730468"><ele>1205.23</ele><time>2026-02-05T04:00:59.000Z</time></trkpt>
        <trkpt lat="29.5501413" lon="103.3729723"><ele>1204.92</ele><time>2026-02-05T04:01:09.000Z</time></trkpt>
        <trkpt lat="29.5501511" lon="103.3728594"><ele>1204.17</ele><time>2026-02-05T04:01:19.000Z</time></trkpt>
        <trkpt lat="29.5502349" lon="103.3727865"><ele>1205.59</ele><time>2026-02-05T04:01:29.000Z</time></trkpt>
        <trkpt lat="29.5503319" lon="103.3727019"><ele>1205.32</ele><time>2026-02-05T04:01:39.000Z</time></trkpt>
        <trkpt lat="29.5504159" lon="103.3726112"><ele>1205.43</ele><time>2026-02-05T04:01:49.000Z</time></trkpt>
        <trkpt lat="29.5504997" lon="103.3725332"><ele>1206.25</ele><time>2026-02-05T04:01:59.000Z</time></trkpt>
        <trkpt lat="29.5505888" lon="103.372467"><ele>1207.92</ele><time>2026-02-05T04:02:09.000Z</time></trkpt>
        <trkpt lat="29.5506492" lon="103.372367"><ele>1209.41</ele><time>2026-02-05T04:02:19.000Z</time></trkpt>
        <trkpt lat="29.550693" lon="103.3722567"><ele>1210.8</ele><time>2026-02-05T04:02:29.000Z</time></trkpt>
        <trkpt lat="29.5507174" lon="103.3721496"><ele>1211.85</ele><time>2026-02-05T04:02:37.000Z</time></trkpt>
        <trkpt lat="29.5506951" lon="103.3720384"><ele>1211.79</ele><time>2026-02-05T04:02:47.000Z</time></trkpt>
        <trkpt lat="29.5506287" lon="103.3719432"><ele>1210.92</ele><time>2026-02-05T04:02:57.000Z</time></trkpt>
        <trkpt lat="29.550562" lon="103.3718522"><ele>1210.5</ele><time>2026-02-05T04:03:07.000Z</time></trkpt>
        <trkpt lat="29.5504937" lon="103.3717566"><ele>1210.95</ele><time>2026-02-05T04:03:19.000Z</time></trkpt>
        <trkpt lat="29.5504606" lon="103.3716526"><ele>1208.74</ele><time>2026-02-05T04:03:29.000Z</time></trkpt>
        <trkpt lat="29.5504063" lon="103.3715715"><ele>1206.98</ele><time>2026-02-05T04:03:39.000Z</time></trkpt>
        <trkpt lat="29.550337" lon="103.3715062"><ele>1204.55</ele><time>2026-02-05T04:03:51.000Z</time></trkpt>
        <trkpt lat="29.5502473" lon="103.3714689"><ele>1203.86</ele><time>2026-02-05T04:04:03.000Z</time></trkpt>
        <trkpt lat="29.5502027" lon="103.3713857"><ele>1203.01</ele><time>2026-02-05T04:04:13.000Z</time></trkpt>
        <trkpt lat="29.5502629" lon="103.371332"><ele>1202.61</ele><time>2026-02-05T04:04:21.000Z</time></trkpt>
        <trkpt lat="29.5503341" lon="103.3712511"><ele>1201.9</ele><time>2026-02-05T04:04:29.000Z</time></trkpt>
        <trkpt lat="29.5504113" lon="103.3711624"><ele>1200.21</ele><time>2026-02-05T04:04:39.000Z</time></trkpt>
        <trkpt lat="29.5504729" lon="103.3710725"><ele>1199.61</ele><time>2026-02-05T04:04:47.000Z</time></trkpt>
        <trkpt lat="29.5504971" lon="103.3709591"><ele>1197.83</ele><time>2026-02-05T04:04:57.000Z</time></trkpt>
        <trkpt lat="29.5504875" lon="103.3708943"><ele>1196.8</ele><time>2026-02-05T04:05:03.000Z</time></trkpt>
        <trkpt lat="29.5504016" lon="103.3708542"><ele>1198.18</ele><time>2026-02-05T04:05:17.000Z</time></trkpt>
        <trkpt lat="29.5503611" lon="103.370853"><ele>1197.92</ele><time>2026-02-05T04:05:19.000Z</time></trkpt>
        <trkpt lat="29.5503513" lon="103.3707681"><ele>1196.99</ele><time>2026-02-05T04:05:37.000Z</time></trkpt>
        <trkpt lat="29.5503497" lon="103.3706549"><ele>1195.59</ele><time>2026-02-05T04:05:49.000Z</time></trkpt>
        <trkpt lat="29.55037" lon="103.3705404"><ele>1194.29</ele><time>2026-02-05T04:06:03.000Z</time></trkpt>
        <trkpt lat="29.5504075" lon="103.3704234"><ele>1193.14</ele><time>2026-02-05T04:06:44.000Z</time></trkpt>
        <trkpt lat="29.5504147" lon="103.3703548"><ele>1189.45</ele><time>2026-02-05T04:06:52.000Z</time></trkpt>
        <trkpt lat="29.5504535" lon="103.3702767"><ele>1188.15</ele><time>2026-02-05T04:07:12.000Z</time></trkpt>
        <trkpt lat="29.5504468" lon="103.3701825"><ele>1188.05</ele><time>2026-02-05T04:07:38.000Z</time></trkpt>
        <trkpt lat="29.5503706" lon="103.3701639"><ele>1189.2</ele><time>2026-02-05T04:07:52.000Z</time></trkpt>
        <trkpt lat="29.5503385" lon="103.3700821"><ele>1190.27</ele><time>2026-02-05T04:08:06.000Z</time></trkpt>
        <trkpt lat="29.550332" lon="103.3699726"><ele>1191.11</ele><time>2026-02-05T04:08:20.000Z</time></trkpt>
        <trkpt lat="29.550289" lon="103.369875"><ele>1193.02</ele><time>2026-02-05T04:08:30.000Z</time></trkpt>
        <trkpt lat="29.5502103" lon="103.3698279"><ele>1195.74</ele><time>2026-02-05T04:08:40.000Z</time></trkpt>
        <trkpt lat="29.5501594" lon="103.3697478"><ele>1198.53</ele><time>2026-02-05T04:09:18.000Z</time></trkpt>
        <trkpt lat="29.5501561" lon="103.3696386"><ele>1202.59</ele><time>2026-02-05T04:10:24.000Z</time></trkpt>
        <trkpt lat="29.5501288" lon="103.3695397"><ele>1205.62</ele><time>2026-02-05T04:11:26.000Z</time></trkpt>
        <trkpt lat="29.550041" lon="103.369496"><ele>1207.79</ele><time>2026-02-05T04:12:06.000Z</time></trkpt>
        <trkpt lat="29.5499776" lon="103.3694117"><ele>1212.6</ele><time>2026-02-05T04:12:22.000Z</time></trkpt>
        <trkpt lat="29.5499263" lon="103.3693223"><ele>1216.45</ele><time>2026-02-05T04:12:34.000Z</time></trkpt>
        <trkpt lat="29.5498726" lon="103.3692325"><ele>1219.58</ele><time>2026-02-05T04:12:46.000Z</time></trkpt>
        <trkpt lat="29.5498718" lon="103.3691215"><ele>1221.8</ele><time>2026-02-05T04:13:04.000Z</time></trkpt>
        <trkpt lat="29.5498729" lon="103.3690053"><ele>1224.24</ele><time>2026-02-05T04:13:18.000Z</time></trkpt>
        <trkpt lat="29.549852" lon="103.3689539"><ele>1227.08</ele><time>2026-02-05T04:13:26.000Z</time></trkpt>
        <trkpt lat="29.5499147" lon="103.3689324"><ele>1228.18</ele><time>2026-02-05T04:13:46.000Z</time></trkpt>
        <trkpt lat="29.5499676" lon="103.3688424"><ele>1231.62</ele><time>2026-02-05T04:15:36.000Z</time></trkpt>
        <trkpt lat="29.549875" lon="103.3688531"><ele>1239.23</ele><time>2026-02-05T04:15:56.000Z</time></trkpt>
        <trkpt lat="29.5497959" lon="103.368904"><ele>1242.04</ele><time>2026-02-05T04:16:18.000Z</time></trkpt>
        <trkpt lat="29.5497143" lon="103.3688831"><ele>1244.34</ele><time>2026-02-05T04:16:38.000Z</time></trkpt>
        <trkpt lat="29.5497103" lon="103.3687852"><ele>1244.91</ele><time>2026-02-05T04:16:50.000Z</time></trkpt>
        <trkpt lat="29.5496488" lon="103.3687247"><ele>1246.64</ele><time>2026-02-05T04:17:02.000Z</time></trkpt>
        <trkpt lat="29.5496068" lon="103.3686329"><ele>1247.65</ele><time>2026-02-05T04:17:16.000Z</time></trkpt>
        <trkpt lat="29.5496426" lon="103.3685401"><ele>1246.75</ele><time>2026-02-05T04:17:40.000Z</time></trkpt>
        <trkpt lat="29.5497161" lon="103.368441"><ele>1246.73</ele><time>2026-02-05T04:19:18.000Z</time></trkpt>
        <trkpt lat="29.5497556" lon="103.3685342"><ele>1256.27</ele><time>2026-02-05T04:19:42.000Z</time></trkpt>
        <trkpt lat="29.5497748" lon="103.3684517"><ele>1262.31</ele><time>2026-02-05T04:20:02.000Z</time></trkpt>
        <trkpt lat="29.5498513" lon="103.3683725"><ele>1266.8</ele><time>2026-02-05T04:25:14.000Z</time></trkpt>
        <trkpt lat="29.5497729" lon="103.3683154"><ele>1271.93</ele><time>2026-02-05T04:25:34.000Z</time></trkpt>
        <trkpt lat="29.5497989" lon="103.368226"><ele>1276.66</ele><time>2026-02-05T04:25:56.000Z</time></trkpt>
        <trkpt lat="29.5498797" lon="103.3682197"><ele>1280.74</ele><time>2026-02-05T04:26:22.000Z</time></trkpt>
        <trkpt lat="29.549847" lon="103.36819"><ele>1287.33</ele><time>2026-02-05T04:27:02.000Z</time></trkpt>
        <trkpt lat="29.5498737" lon="103.3681151"><ele>1294.91</ele><time>2026-02-05T04:27:22.000Z</time></trkpt>
        <trkpt lat="29.5498836" lon="103.3680142"><ele>1300.62</ele><time>2026-02-05T04:27:44.000Z</time></trkpt>
        <trkpt lat="29.5498179" lon="103.3680124"><ele>1304.05</ele><time>2026-02-05T04:28:16.000Z</time></trkpt>
        <trkpt lat="29.5498117" lon="103.3679422"><ele>1309.47</ele><time>2026-02-05T04:28:36.000Z</time></trkpt>
        <trkpt lat="29.5498481" lon="103.3678497"><ele>1314.13</ele><time>2026-02-05T04:29:26.000Z</time></trkpt>
        <trkpt lat="29.5499336" lon="103.3678205"><ele>1321.86</ele><time>2026-02-05T04:29:42.000Z</time></trkpt>
        <trkpt lat="29.5500084" lon="103.3677553"><ele>1327.12</ele><time>2026-02-05T04:30:34.000Z</time></trkpt>
        <trkpt lat="29.5500324" lon="103.3677331"><ele>1335.26</ele><time>2026-02-05T04:30:36.000Z</time></trkpt>
        <trkpt lat="29.5500762" lon="103.3676674"><ele>1339.89</ele><time>2026-02-05T04:30:58.000Z</time></trkpt>
        <trkpt lat="29.5501195" lon="103.3675795"><ele>1342.84</ele><time>2026-02-05T04:31:12.000Z</time></trkpt>
        <trkpt lat="29.5501387" lon="103.3674706"><ele>1344.64</ele><time>2026-02-05T04:31:36.000Z</time></trkpt>
        <trkpt lat="29.5501739" lon="103.3673706"><ele>1346.25</ele><time>2026-02-05T04:32:04.000Z</time></trkpt>
        <trkpt lat="29.5501117" lon="103.3673461"><ele>1349.63</ele><time>2026-02-05T04:33:00.000Z</time></trkpt>
        <trkpt lat="29.5500899" lon="103.367268"><ele>1356.89</ele><time>2026-02-05T04:33:34.000Z</time></trkpt>
        <trkpt lat="29.5501172" lon="103.3671714"><ele>1361.5</ele><time>2026-02-05T04:33:52.000Z</time></trkpt>
        <trkpt lat="29.5501662" lon="103.367076"><ele>1365.89</ele><time>2026-02-05T04:34:08.000Z</time></trkpt>
        <trkpt lat="29.5502317" lon="103.3669949"><ele>1369.01</ele><time>2026-02-05T04:34:24.000Z</time></trkpt>
        <trkpt lat="29.550309" lon="103.3669306"><ele>1372.04</ele><time>2026-02-05T04:34:36.000Z</time></trkpt>
        <trkpt lat="29.5503576" lon="103.366844"><ele>1373.2</ele><time>2026-02-05T04:34:54.000Z</time></trkpt>
        <trkpt lat="29.5503248" lon="103.3667561"><ele>1374.55</ele><time>2026-02-05T04:35:10.000Z</time></trkpt>
        <trkpt lat="29.5502351" lon="103.3667049"><ele>1376.43</ele><time>2026-02-05T04:35:22.000Z</time></trkpt>
        <trkpt lat="29.5501522" lon="103.3666408"><ele>1376.85</ele><time>2026-02-05T04:35:46.000Z</time></trkpt>
        <trkpt lat="29.5500567" lon="103.3666466"><ele>1378.86</ele><time>2026-02-05T04:36:18.000Z</time></trkpt>
        <trkpt lat="29.5499942" lon="103.3665868"><ele>1386.74</ele><time>2026-02-05T04:36:44.000Z</time></trkpt>
        <trkpt lat="29.549905" lon="103.3665555"><ele>1391.37</ele><time>2026-02-05T04:51:57.000Z</time></trkpt>
        <trkpt lat="29.5498125" lon="103.3665497"><ele>1401.89</ele><time>2026-02-05T04:52:15.000Z</time></trkpt>
        <trkpt lat="29.5497257" lon="103.3666069"><ele>1407.74</ele><time>2026-02-05T04:52:29.000Z</time></trkpt>
        <trkpt lat="29.5496359" lon="103.3665842"><ele>1413.72</ele><time>2026-02-05T04:52:57.000Z</time></trkpt>
        <trkpt lat="29.549581" lon="103.3665243"><ele>1418.13</ele><time>2026-02-05T04:53:15.000Z</time></trkpt>
        <trkpt lat="29.5495031" lon="103.3664981"><ele>1419.93</ele><time>2026-02-05T04:53:41.000Z</time></trkpt>
        <trkpt lat="29.5494205" lon="103.3664413"><ele>1425.6</ele><time>2026-02-05T04:54:45.000Z</time></trkpt>
        <trkpt lat="29.549388" lon="103.3663445"><ele>1432.92</ele><time>2026-02-05T04:55:51.000Z</time></trkpt>
        <trkpt lat="29.5492965" lon="103.3663431"><ele>1439.55</ele><time>2026-02-05T04:56:33.000Z</time></trkpt>
        <trkpt lat="29.549223" lon="103.3663997"><ele>1445.66</ele><time>2026-02-05T04:56:53.000Z</time></trkpt>
        <trkpt lat="29.5492942" lon="103.3663335"><ele>1448.3</ele><time>2026-02-05T04:58:07.000Z</time></trkpt>
        <trkpt lat="29.5493956" lon="103.3662842"><ele>1449.46</ele><time>2026-02-05T05:06:06.000Z</time></trkpt>
        <trkpt lat="29.5494794" lon="103.3662293"><ele>1450.3</ele><time>2026-02-05T05:06:16.000Z</time></trkpt>
        <trkpt lat="29.549561" lon="103.3661824"><ele>1451.63</ele><time>2026-02-05T05:06:26.000Z</time></trkpt>
        <trkpt lat="29.5496492" lon="103.3661223"><ele>1452.17</ele><time>2026-02-05T05:06:42.000Z</time></trkpt>
        <trkpt lat="29.5497146" lon="103.3660393"><ele>1450.51</ele><time>2026-02-05T05:06:54.000Z</time></trkpt>
        <trkpt lat="29.549708" lon="103.3659389"><ele>1450.53</ele><time>2026-02-05T05:07:06.000Z</time></trkpt>
        <trkpt lat="29.5496822" lon="103.3658307"><ele>1450.77</ele><time>2026-02-05T05:07:24.000Z</time></trkpt>
        <trkpt lat="29.5496281" lon="103.3657312"><ele>1451.56</ele><time>2026-02-05T05:07:40.000Z</time></trkpt>
        <trkpt lat="29.5495837" lon="103.365626"><ele>1452.84</ele><time>2026-02-05T05:07:52.000Z</time></trkpt>
        <trkpt lat="29.5495046" lon="103.365576"><ele>1456.43</ele><time>2026-02-05T05:08:02.000Z</time></trkpt>
        <trkpt lat="29.5495053" lon="103.3654804"><ele>1459.92</ele><time>2026-02-05T05:08:14.000Z</time></trkpt>
        <trkpt lat="29.5495648" lon="103.3654052"><ele>1461.16</ele><time>2026-02-05T05:08:24.000Z</time></trkpt>
        <trkpt lat="29.5496466" lon="103.3653307"><ele>1461.71</ele><time>2026-02-05T05:08:32.000Z</time></trkpt>
        <trkpt lat="29.5497106" lon="103.3652468"><ele>1461.35</ele><time>2026-02-05T05:08:40.000Z</time></trkpt>
        <trkpt lat="29.5497828" lon="103.3651565"><ele>1460.73</ele><time>2026-02-05T05:08:50.000Z</time></trkpt>
        <trkpt lat="29.5498488" lon="103.3650732"><ele>1459.72</ele><time>2026-02-05T05:08:58.000Z</time></trkpt>
        <trkpt lat="29.5498945" lon="103.3649766"><ele>1459.4</ele><time>2026-02-05T05:09:22.000Z</time></trkpt>
        <trkpt lat="29.5499428" lon="103.3648826"><ele>1460.16</ele><time>2026-02-05T05:09:36.000Z</time></trkpt>
        <trkpt lat="29.5500108" lon="103.3648125"><ele>1461.44</ele><time>2026-02-05T05:09:48.000Z</time></trkpt>
        <trkpt lat="29.5500665" lon="103.3647283"><ele>1462.4</ele><time>2026-02-05T05:09:58.000Z</time></trkpt>
        <trkpt lat="29.5500861" lon="103.3646274"><ele>1461.69</ele><time>2026-02-05T05:10:06.000Z</time></trkpt>
        <trkpt lat="29.5501111" lon="103.3645261"><ele>1460.5</ele><time>2026-02-05T05:10:16.000Z</time></trkpt>
        <trkpt lat="29.5501748" lon="103.3644583"><ele>1459.37</ele><time>2026-02-05T05:10:26.000Z</time></trkpt>
        <trkpt lat="29.5502467" lon="103.36439"><ele>1458.12</ele><time>2026-02-05T05:10:36.000Z</time></trkpt>
        <trkpt lat="29.5503039" lon="103.3642887"><ele>1457.62</ele><time>2026-02-05T05:10:46.000Z</time></trkpt>
        <trkpt lat="29.550347" lon="103.3641786"><ele>1458.03</ele><time>2026-02-05T05:10:56.000Z</time></trkpt>
        <trkpt lat="29.5503692" lon="103.3640691"><ele>1458.96</ele><time>2026-02-05T05:11:08.000Z</time></trkpt>
        <trkpt lat="29.5504099" lon="103.3639712"><ele>1459.45</ele><time>2026-02-05T05:11:26.000Z</time></trkpt>
        <trkpt lat="29.5504879" lon="103.3639531"><ele>1460.82</ele><time>2026-02-05T05:12:02.000Z</time></trkpt>
        <trkpt lat="29.5504913" lon="103.3638804"><ele>1463.95</ele><time>2026-02-05T05:12:18.000Z</time></trkpt>
        <trkpt lat="29.550555" lon="103.363831"><ele>1466.87</ele><time>2026-02-05T05:12:44.000Z</time></trkpt>
        <trkpt lat="29.5506433" lon="103.3637663"><ele>1470.32</ele><time>2026-02-05T05:12:56.000Z</time></trkpt>
        <trkpt lat="29.5507304" lon="103.3637139"><ele>1473.93</ele><time>2026-02-05T05:13:04.000Z</time></trkpt>
        <trkpt lat="29.5507961" lon="103.3636359"><ele>1476.18</ele><time>2026-02-05T05:13:14.000Z</time></trkpt>
        <trkpt lat="29.5507868" lon="103.363527"><ele>1477.23</ele><time>2026-02-05T05:13:22.000Z</time></trkpt>
        <trkpt lat="29.550741" lon="103.3634271"><ele>1478.14</ele><time>2026-02-05T05:13:30.000Z</time></trkpt>
        <trkpt lat="29.5507258" lon="103.3633228"><ele>1479.19</ele><time>2026-02-05T05:13:42.000Z</time></trkpt>
        <trkpt lat="29.5507461" lon="103.3632203"><ele>1478.73</ele><time>2026-02-05T05:14:04.000Z</time></trkpt>
        <trkpt lat="29.5507779" lon="103.3632671"><ele>1477.27</ele><time>2026-02-05T05:14:30.000Z</time></trkpt>
        <trkpt lat="29.5508159" lon="103.3632213"><ele>1481.63</ele><time>2026-02-05T05:14:52.000Z</time></trkpt>
        <trkpt lat="29.5508262" lon="103.3631271"><ele>1486.09</ele><time>2026-02-05T05:15:18.000Z</time></trkpt>
        <trkpt lat="29.5507848" lon="103.3630353"><ele>1490.98</ele><time>2026-02-05T05:15:46.000Z</time></trkpt>
        <trkpt lat="29.5508361" lon="103.363043"><ele>1494.84</ele><time>2026-02-05T05:16:24.000Z</time></trkpt>
        <trkpt lat="29.5508357" lon="103.3629803"><ele>1500.68</ele><time>2026-02-05T05:16:44.000Z</time></trkpt>
        <trkpt lat="29.5507736" lon="103.3629198"><ele>1505.12</ele><time>2026-02-05T05:17:14.000Z</time></trkpt>
        <trkpt lat="29.5506772" lon="103.3628991"><ele>1510.18</ele><time>2026-02-05T05:17:36.000Z</time></trkpt>
        <trkpt lat="29.5505752" lon="103.3628827"><ele>1516.04</ele><time>2026-02-05T05:18:12.000Z</time></trkpt>
        <trkpt lat="29.5505585" lon="103.3628033"><ele>1519.19</ele><time>2026-02-05T05:18:40.000Z</time></trkpt>
        <trkpt lat="29.550587" lon="103.3627041"><ele>1523.72</ele><time>2026-02-05T05:19:06.000Z</time></trkpt>
        <trkpt lat="29.5506362" lon="103.3626024"><ele>1528.5</ele><time>2026-02-05T05:19:38.000Z</time></trkpt>
        <trkpt lat="29.5506585" lon="103.362494"><ele>1533.11</ele><time>2026-02-05T05:20:08.000Z</time></trkpt>
        <trkpt lat="29.5506939" lon="103.3623899"><ele>1537.91</ele><time>2026-02-05T05:20:44.000Z</time></trkpt>
        <trkpt lat="29.5506812" lon="103.362285"><ele>1542.49</ele><time>2026-02-05T05:21:12.000Z</time></trkpt>
        <trkpt lat="29.5506315" lon="103.3621972"><ele>1547.79</ele><time>2026-02-05T05:21:40.000Z</time></trkpt>
        <trkpt lat="29.5505776" lon="103.3621083"><ele>1554.04</ele><time>2026-02-05T05:22:04.000Z</time></trkpt>
        <trkpt lat="29.5505647" lon="103.3619933"><ele>1559.43</ele><time>2026-02-05T05:26:36.000Z</time></trkpt>
        <trkpt lat="29.5506311" lon="103.3619231"><ele>1564.31</ele><time>2026-02-05T05:27:00.000Z</time></trkpt>
        <trkpt lat="29.5505896" lon="103.3618469"><ele>1567.96</ele><time>2026-02-05T05:27:24.000Z</time></trkpt>
        <trkpt lat="29.5505399" lon="103.3617524"><ele>1570.78</ele><time>2026-02-05T05:27:54.000Z</time></trkpt>
        <trkpt lat="29.5504819" lon="103.3616637"><ele>1573.96</ele><time>2026-02-05T05:28:12.000Z</time></trkpt>
        <trkpt lat="29.5503999" lon="103.361602"><ele>1575.88</ele><time>2026-02-05T05:28:36.000Z</time></trkpt>
        <trkpt lat="29.550411" lon="103.3615212"><ele>1579.06</ele><time>2026-02-05T05:29:20.000Z</time></trkpt>
        <trkpt lat="29.5503548" lon="103.3614728"><ele>1584.45</ele><time>2026-02-05T05:29:36.000Z</time></trkpt>
        <trkpt lat="29.5503001" lon="103.3613989"><ele>1589.27</ele><time>2026-02-05T05:30:02.000Z</time></trkpt>
        <trkpt lat="29.5502445" lon="103.3613117"><ele>1591.9</ele><time>2026-02-05T05:30:36.000Z</time></trkpt>
        <trkpt lat="29.5501651" lon="103.3612614"><ele>1596.68</ele><time>2026-02-05T05:30:56.000Z</time></trkpt>
        <trkpt lat="29.5500728" lon="103.361213"><ele>1599.9</ele><time>2026-02-05T05:31:18.000Z</time></trkpt>
        <trkpt lat="29.5499819" lon="103.3611769"><ele>1601.81</ele><time>2026-02-05T05:31:28.000Z</time></trkpt>
        <trkpt lat="29.549915" lon="103.3610973"><ele>1602.83</ele><time>2026-02-05T05:31:42.000Z</time></trkpt>
        <trkpt lat="29.5498881" lon="103.3609846"><ele>1604.46</ele><time>2026-02-05T05:31:54.000Z</time></trkpt>
        <trkpt lat="29.5498523" lon="103.3608699"><ele>1606.58</ele><time>2026-02-05T05:32:08.000Z</time></trkpt>
        <trkpt lat="29.5498614" lon="103.3607552"><ele>1608.1</ele><time>2026-02-05T05:32:24.000Z</time></trkpt>
        <trkpt lat="29.5498945" lon="103.3606458"><ele>1608.04</ele><time>2026-02-05T05:32:38.000Z</time></trkpt>
        <trkpt lat="29.5499326" lon="103.3605454"><ele>1608.07</ele><time>2026-02-05T05:32:50.000Z</time></trkpt>
        <trkpt lat="29.5499811" lon="103.3604541"><ele>1608.16</ele><time>2026-02-05T05:33:02.000Z</time></trkpt>
        <trkpt lat="29.5500277" lon="103.3603497"><ele>1607.75</ele><time>2026-02-05T05:33:16.000Z</time></trkpt>
        <trkpt lat="29.5500716" lon="103.3602506"><ele>1607.8</ele><time>2026-02-05T05:33:28.000Z</time></trkpt>
        <trkpt lat="29.5501261" lon="103.360163"><ele>1606.35</ele><time>2026-02-05T05:33:44.000Z</time></trkpt>
        <trkpt lat="29.5501425" lon="103.3600607"><ele>1607.38</ele><time>2026-02-05T05:34:06.000Z</time></trkpt>
        <trkpt lat="29.5501195" lon="103.3599606"><ele>1606.42</ele><time>2026-02-05T05:34:32.000Z</time></trkpt>
        <trkpt lat="29.5500695" lon="103.3598647"><ele>1607.87</ele><time>2026-02-05T05:35:20.000Z</time></trkpt>
        <trkpt lat="29.5500205" lon="103.3597711"><ele>1610.92</ele><time>2026-02-05T05:35:56.000Z</time></trkpt>
        <trkpt lat="29.5499557" lon="103.359691"><ele>1615.52</ele><time>2026-02-05T05:36:16.000Z</time></trkpt>
        <trkpt lat="29.5499315" lon="103.359647"><ele>1618.83</ele><time>2026-02-05T05:36:24.000Z</time></trkpt>
        <trkpt lat="29.5498876" lon="103.359577"><ele>1620.58</ele><time>2026-02-05T05:42:00.000Z</time></trkpt>
        <trkpt lat="29.5498422" lon="103.3594858"><ele>1622.52</ele><time>2026-02-05T05:42:18.000Z</time></trkpt>
        <trkpt lat="29.5498489" lon="103.3593831"><ele>1626.2</ele><time>2026-02-05T05:42:36.000Z</time></trkpt>
        <trkpt lat="29.549907" lon="103.3592893"><ele>1630.29</ele><time>2026-02-05T05:42:58.000Z</time></trkpt>
        <trkpt lat="29.5499954" lon="103.3592319"><ele>1634.76</ele><time>2026-02-05T05:43:16.000Z</time></trkpt>
        <trkpt lat="29.5500648" lon="103.3591542"><ele>1639.46</ele><time>2026-02-05T05:43:28.000Z</time></trkpt>
        <trkpt lat="29.5501554" lon="103.3591161"><ele>1642.92</ele><time>2026-02-05T05:43:40.000Z</time></trkpt>
        <trkpt lat="29.5502427" lon="103.3590765"><ele>1645.04</ele><time>2026-02-05T05:43:50.000Z</time></trkpt>
        <trkpt lat="29.5502562" lon="103.3589791"><ele>1645.7</ele><time>2026-02-05T05:44:00.000Z</time></trkpt>
        <trkpt lat="29.550237" lon="103.3588658"><ele>1645.87</ele><time>2026-02-05T05:44:12.000Z</time></trkpt>
        <trkpt lat="29.5502557" lon="103.3587612"><ele>1645.31</ele><time>2026-02-05T05:44:26.000Z</time></trkpt>
        <trkpt lat="29.5502578" lon="103.3586471"><ele>1647.86</ele><time>2026-02-05T05:44:44.000Z</time></trkpt>
        <trkpt lat="29.5502725" lon="103.3585388"><ele>1649.96</ele><time>2026-02-05T05:45:02.000Z</time></trkpt>
        <trkpt lat="29.5503305" lon="103.3584502"><ele>1654.34</ele><time>2026-02-05T05:45:38.000Z</time></trkpt>
        <trkpt lat="29.5503377" lon="103.3583382"><ele>1660.05</ele><time>2026-02-05T05:45:56.000Z</time></trkpt>
        <trkpt lat="29.5503086" lon="103.3582232"><ele>1662.72</ele><time>2026-02-05T05:46:08.000Z</time></trkpt>
        <trkpt lat="29.550306" lon="103.3581106"><ele>1663.44</ele><time>2026-02-05T05:46:20.000Z</time></trkpt>
        <trkpt lat="29.5503259" lon="103.3579983"><ele>1664.47</ele><time>2026-02-05T05:46:40.000Z</time></trkpt>
        <trkpt lat="29.550359" lon="103.3578938"><ele>1666.55</ele><time>2026-02-05T05:47:14.000Z</time></trkpt>
        <trkpt lat="29.5503978" lon="103.3577888"><ele>1669.24</ele><time>2026-02-05T05:47:32.000Z</time></trkpt>
        <trkpt lat="29.5504086" lon="103.3576825"><ele>1672.33</ele><time>2026-02-05T05:47:48.000Z</time></trkpt>
        <trkpt lat="29.5504007" lon="103.3575656"><ele>1675.8</ele><time>2026-02-05T05:48:00.000Z</time></trkpt>
        <trkpt lat="29.5503948" lon="103.3574507"><ele>1677.12</ele><time>2026-02-05T05:48:14.000Z</time></trkpt>
        <trkpt lat="29.5504014" lon="103.3573421"><ele>1677.74</ele><time>2026-02-05T05:48:28.000Z</time></trkpt>
        <trkpt lat="29.5504162" lon="103.3572351"><ele>1680.5</ele><time>2026-02-05T05:48:50.000Z</time></trkpt>
        <trkpt lat="29.5504134" lon="103.3571257"><ele>1683.6</ele><time>2026-02-05T05:49:14.000Z</time></trkpt>
        <trkpt lat="29.5503766" lon="103.3570316"><ele>1686.55</ele><time>2026-02-05T05:49:24.000Z</time></trkpt>
        <trkpt lat="29.5503179" lon="103.3569475"><ele>1686.7</ele><time>2026-02-05T05:49:34.000Z</time></trkpt>
        <trkpt lat="29.5502323" lon="103.356895"><ele>1687.01</ele><time>2026-02-05T05:49:46.000Z</time></trkpt>
        <trkpt lat="29.5501836" lon="103.3570229"><ele>1687.37</ele><time>2026-02-05T05:50:59.000Z</time></trkpt>
        <trkpt lat="29.5501031" lon="103.3569657"><ele>1693.42</ele><time>2026-02-05T05:51:07.000Z</time></trkpt>
        <trkpt lat="29.5500232" lon="103.356889"><ele>1695.81</ele><time>2026-02-05T05:54:19.000Z</time></trkpt>
        <trkpt lat="29.5500041" lon="103.3568652"><ele>1696.64</ele><time>2026-02-05T05:54:25.000Z</time></trkpt>
        <trkpt lat="29.5499731" lon="103.3569514"><ele>1696.89</ele><time>2026-02-05T05:55:15.000Z</time></trkpt>
        <trkpt lat="29.5500468" lon="103.356911"><ele>1698.36</ele><time>2026-02-05T06:06:31.000Z</time></trkpt>
        <trkpt lat="29.5500504" lon="103.3568816"><ele>1698.19</ele><time>2026-02-05T06:06:37.000Z</time></trkpt>
        <trkpt lat="29.5499769" lon="103.3568531"><ele>1697.63</ele><time>2026-02-05T06:07:27.000Z</time></trkpt>
        <trkpt lat="29.5499362" lon="103.356926"><ele>1696.87</ele><time>2026-02-05T06:07:47.000Z</time></trkpt>
        <trkpt lat="29.5498432" lon="103.3569246"><ele>1696.21</ele><time>2026-02-05T06:09:53.000Z</time></trkpt>
        <trkpt lat="29.5497447" lon="103.3568734"><ele>1695.93</ele><time>2026-02-05T06:10:05.000Z</time></trkpt>
        <trkpt lat="29.5496544" lon="103.356832"><ele>1695.26</ele><time>2026-02-05T06:10:15.000Z</time></trkpt>
        <trkpt lat="29.5496231" lon="103.356909"><ele>1694.7</ele><time>2026-02-05T06:10:33.000Z</time></trkpt>
        <trkpt lat="29.5496255" lon="103.3570237"><ele>1697.19</ele><time>2026-02-05T06:10:47.000Z</time></trkpt>
        <trkpt lat="29.5495768" lon="103.357108"><ele>1699.09</ele><time>2026-02-05T06:11:05.000Z</time></trkpt>
        <trkpt lat="29.549533" lon="103.3570548"><ele>1699.78</ele><time>2026-02-05T06:11:37.000Z</time></trkpt>
        <trkpt lat="29.5494892" lon="103.3569558"><ele>1699.55</ele><time>2026-02-05T06:11:55.000Z</time></trkpt>
        <trkpt lat="29.5495421" lon="103.3568636"><ele>1698.67</ele><time>2026-02-05T06:12:07.000Z</time></trkpt>
        <trkpt lat="29.5495408" lon="103.3569197"><ele>1694.42</ele><time>2026-02-05T06:12:51.000Z</time></trkpt>
        <trkpt lat="29.5495529" lon="103.3570293"><ele>1695.83</ele><time>2026-02-05T06:12:59.000Z</time></trkpt>
        <trkpt lat="29.5496328" lon="103.3570814"><ele>1697.77</ele><time>2026-02-05T06:13:37.000Z</time></trkpt>
        <trkpt lat="29.5496804" lon="103.3570155"><ele>1698.96</ele><time>2026-02-05T06:13:47.000Z</time></trkpt>
        <trkpt lat="29.5496685" lon="103.3569042"><ele>1699.14</ele><time>2026-02-05T06:14:29.000Z</time></trkpt>
        <trkpt lat="29.5497325" lon="103.3568613"><ele>1698.5</ele><time>2026-02-05T06:14:43.000Z</time></trkpt>
        <trkpt lat="29.5498291" lon="103.3568945"><ele>1697.76</ele><time>2026-02-05T06:14:53.000Z</time></trkpt>
        <trkpt lat="29.5499244" lon="103.3569365"><ele>1697.42</ele><time>2026-02-05T06:15:03.000Z</time></trkpt>
        <trkpt lat="29.5500263" lon="103.3569735"><ele>1696.58</ele><time>2026-02-05T06:15:15.000Z</time></trkpt>
        <trkpt lat="29.5500923" lon="103.356961"><ele>1696.15</ele><time>2026-02-05T06:15:25.000Z</time></trkpt>
        <trkpt lat="29.5501716" lon="103.3569272"><ele>1695.65</ele><time>2026-02-05T06:15:35.000Z</time></trkpt>
        <trkpt lat="29.5502714" lon="103.3569171"><ele>1694.76</ele><time>2026-02-05T06:15:55.000Z</time></trkpt>
        <trkpt lat="29.5503655" lon="103.3569387"><ele>1694.59</ele><time>2026-02-05T06:16:07.000Z</time></trkpt>
        <trkpt lat="29.5503894" lon="103.3569785"><ele>1694.47</ele><time>2026-02-05T06:16:13.000Z</time></trkpt>
        <trkpt lat="29.550321" lon="103.3569574"><ele>1695.04</ele><time>2026-02-05T06:16:37.000Z</time></trkpt>
        <trkpt lat="29.5502031" lon="103.3569435"><ele>1683.37</ele><time>2026-02-05T06:16:47.000Z</time></trkpt>
        <trkpt lat="29.5500921" lon="103.3569327"><ele>1676.67</ele><time>2026-02-05T06:16:55.000Z</time></trkpt>
        <trkpt lat="29.5499865" lon="103.3569242"><ele>1675.81</ele><time>2026-02-05T06:17:05.000Z</time></trkpt>
        <trkpt lat="29.549929" lon="103.3568432"><ele>1677.34</ele><time>2026-02-05T06:17:53.000Z</time></trkpt>
        <trkpt lat="29.5499315" lon="103.3567206"><ele>1683.55</ele><time>2026-02-05T06:18:07.000Z</time></trkpt>
        <trkpt lat="29.5499431" lon="103.3565926"><ele>1685.93</ele><time>2026-02-05T06:18:23.000Z</time></trkpt>
        <trkpt lat="29.5499678" lon="103.3564659"><ele>1687.61</ele><time>2026-02-05T06:18:33.000Z</time></trkpt>
        <trkpt lat="29.5500233" lon="103.3563671"><ele>1688.46</ele><time>2026-02-05T06:18:43.000Z</time></trkpt>
        <trkpt lat="29.5500654" lon="103.35632"><ele>1689.03</ele><time>2026-02-05T06:18:51.000Z</time></trkpt>
        <trkpt lat="29.5501268" lon="103.3562573"><ele>1688.96</ele><time>2026-02-05T06:19:09.000Z</time></trkpt>
        <trkpt lat="29.550188" lon="103.3561692"><ele>1689.02</ele><time>2026-02-05T06:19:19.000Z</time></trkpt>
        <trkpt lat="29.550209" lon="103.3560636"><ele>1689.43</ele><time>2026-02-05T06:19:33.000Z</time></trkpt>
        <trkpt lat="29.5502227" lon="103.3559513"><ele>1688.52</ele><time>2026-02-05T06:19:47.000Z</time></trkpt>
        <trkpt lat="29.5502543" lon="103.3558412"><ele>1686.92</ele><time>2026-02-05T06:19:57.000Z</time></trkpt>
        <trkpt lat="29.5503142" lon="103.3557556"><ele>1686.05</ele><time>2026-02-05T06:20:07.000Z</time></trkpt>
        <trkpt lat="29.5504058" lon="103.3557198"><ele>1684.64</ele><time>2026-02-05T06:20:29.000Z</time></trkpt>
        <trkpt lat="29.5505041" lon="103.3557147"><ele>1681.43</ele><time>2026-02-05T06:20:39.000Z</time></trkpt>
        <trkpt lat="29.550605" lon="103.3557274"><ele>1679.28</ele><time>2026-02-05T06:20:49.000Z</time></trkpt>
        <trkpt lat="29.5507074" lon="103.3557414"><ele>1678.29</ele><time>2026-02-05T06:20:59.000Z</time></trkpt>
        <trkpt lat="29.5507989" lon="103.3557194"><ele>1677.66</ele><time>2026-02-05T06:21:07.000Z</time></trkpt>
        <trkpt lat="29.5508845" lon="103.3556774"><ele>1676.05</ele><time>2026-02-05T06:21:17.000Z</time></trkpt>
        <trkpt lat="29.5509682" lon="103.3556304"><ele>1674.61</ele><time>2026-02-05T06:21:27.000Z</time></trkpt>
        <trkpt lat="29.5510594" lon="103.3555892"><ele>1672.42</ele><time>2026-02-05T06:21:37.000Z</time></trkpt>
        <trkpt lat="29.5511222" lon="103.3555606"><ele>1669.78</ele><time>2026-02-05T06:21:45.000Z</time></trkpt>
        <trkpt lat="29.5511992" lon="103.3555126"><ele>1668.28</ele><time>2026-02-05T06:21:57.000Z</time></trkpt>
        <trkpt lat="29.5512736" lon="103.3554473"><ele>1666.43</ele><time>2026-02-05T06:22:09.000Z</time></trkpt>
        <trkpt lat="29.5513398" lon="103.3553694"><ele>1664.33</ele><time>2026-02-05T06:22:21.000Z</time></trkpt>
        <trkpt lat="29.5513688" lon="103.3552687"><ele>1662.63</ele><time>2026-02-05T06:22:33.000Z</time></trkpt>
        <trkpt lat="29.5514105" lon="103.3551685"><ele>1660.26</ele><time>2026-02-05T06:22:47.000Z</time></trkpt>
        <trkpt lat="29.551468" lon="103.3550726"><ele>1657.28</ele><time>2026-02-05T06:22:59.000Z</time></trkpt>
        <trkpt lat="29.5515258" lon="103.3549694"><ele>1654.29</ele><time>2026-02-05T06:23:09.000Z</time></trkpt>
        <trkpt lat="29.5515674" lon="103.3548586"><ele>1652.31</ele><time>2026-02-05T06:23:19.000Z</time></trkpt>
        <trkpt lat="29.5516011" lon="103.3547531"><ele>1650.12</ele><time>2026-02-05T06:23:33.000Z</time></trkpt>
        <trkpt lat="29.5516432" lon="103.3546528"><ele>1646.63</ele><time>2026-02-05T06:23:45.000Z</time></trkpt>
        <trkpt lat="29.5516995" lon="103.3545681"><ele>1644.78</ele><time>2026-02-05T06:23:57.000Z</time></trkpt>
        <trkpt lat="29.5517586" lon="103.3544822"><ele>1642.68</ele><time>2026-02-05T06:24:11.000Z</time></trkpt>
        <trkpt lat="29.5518029" lon="103.3543818"><ele>1640.88</ele><time>2026-02-05T06:24:25.000Z</time></trkpt>
        <trkpt lat="29.5518081" lon="103.3542674"><ele>1638.43</ele><time>2026-02-05T06:24:39.000Z</time></trkpt>
        <trkpt lat="29.5518259" lon="103.3541573"><ele>1634.3</ele><time>2026-02-05T06:24:51.000Z</time></trkpt>
        <trkpt lat="29.5518961" lon="103.3541011"><ele>1631.9</ele><time>2026-02-05T06:25:03.000Z</time></trkpt>
        <trkpt lat="29.5519435" lon="103.3540148"><ele>1632.03</ele><time>2026-02-05T06:25:15.000Z</time></trkpt>
        <trkpt lat="29.5519218" lon="103.3539153"><ele>1631.33</ele><time>2026-02-05T06:25:27.000Z</time></trkpt>
        <trkpt lat="29.5518563" lon="103.3538304"><ele>1628.04</ele><time>2026-02-05T06:25:39.000Z</time></trkpt>
        <trkpt lat="29.5518111" lon="103.3537318"><ele>1624.93</ele><time>2026-02-05T06:25:49.000Z</time></trkpt>
        <trkpt lat="29.5517382" lon="103.3536495"><ele>1624.56</ele><time>2026-02-05T06:26:01.000Z</time></trkpt>
        <trkpt lat="29.5516868" lon="103.3535557"><ele>1624.93</ele><time>2026-02-05T06:26:13.000Z</time></trkpt>
        <trkpt lat="29.5516789" lon="103.353446"><ele>1624</ele><time>2026-02-05T06:26:25.000Z</time></trkpt>
        <trkpt lat="29.551715" lon="103.3533409"><ele>1620.78</ele><time>2026-02-05T06:26:39.000Z</time></trkpt>
        <trkpt lat="29.5517483" lon="103.3532278"><ele>1619.96</ele><time>2026-02-05T06:26:53.000Z</time></trkpt>
        <trkpt lat="29.5517838" lon="103.3531203"><ele>1619.28</ele><time>2026-02-05T06:27:07.000Z</time></trkpt>
        <trkpt lat="29.5518041" lon="103.3530147"><ele>1620.28</ele><time>2026-02-05T06:27:25.000Z</time></trkpt>
        <trkpt lat="29.55183" lon="103.3529094"><ele>1618.58</ele><time>2026-02-05T06:27:43.000Z</time></trkpt>
        <trkpt lat="29.5518799" lon="103.3528223"><ele>1615.94</ele><time>2026-02-05T06:28:01.000Z</time></trkpt>
        <trkpt lat="29.5519237" lon="103.3527274"><ele>1614.46</ele><time>2026-02-05T06:28:31.000Z</time></trkpt>
        <trkpt lat="29.5520009" lon="103.3526842"><ele>1612.46</ele><time>2026-02-05T06:28:57.000Z</time></trkpt>
        <trkpt lat="29.5520867" lon="103.3527162"><ele>1610.76</ele><time>2026-02-05T06:29:19.000Z</time></trkpt>
        <trkpt lat="29.5521796" lon="103.3527564"><ele>1609.31</ele><time>2026-02-05T06:29:39.000Z</time></trkpt>
        <trkpt lat="29.5522072" lon="103.3526893"><ele>1607.76</ele><time>2026-02-05T06:30:13.000Z</time></trkpt>
        <trkpt lat="29.5521765" lon="103.3525896"><ele>1603.26</ele><time>2026-02-05T06:30:31.000Z</time></trkpt>
        <trkpt lat="29.5521791" lon="103.3524819"><ele>1596.81</ele><time>2026-02-05T06:31:11.000Z</time></trkpt>
        <trkpt lat="29.5521805" lon="103.3523667"><ele>1590.08</ele><time>2026-02-05T06:31:35.000Z</time></trkpt>
        <trkpt lat="29.5521595" lon="103.3523061"><ele>1584.07</ele><time>2026-02-05T06:31:47.000Z</time></trkpt>
        <trkpt lat="29.5522055" lon="103.3522333"><ele>1580.1</ele><time>2026-02-05T06:32:07.000Z</time></trkpt>
        <trkpt lat="29.5522859" lon="103.3521647"><ele>1572.93</ele><time>2026-02-05T06:32:21.000Z</time></trkpt>
        <trkpt lat="29.5523815" lon="103.3521713"><ele>1569.05</ele><time>2026-02-05T06:32:31.000Z</time></trkpt>
        <trkpt lat="29.5524599" lon="103.3522431"><ele>1565.37</ele><time>2026-02-05T06:32:41.000Z</time></trkpt>
        <trkpt lat="29.5524999" lon="103.3523487"><ele>1565.11</ele><time>2026-02-05T06:32:55.000Z</time></trkpt>
        <trkpt lat="29.5525734" lon="103.3523706"><ele>1570.26</ele><time>2026-02-05T06:33:23.000Z</time></trkpt>
        <trkpt lat="29.5526607" lon="103.3523379"><ele>1577.01</ele><time>2026-02-05T06:33:43.000Z</time></trkpt>
        <trkpt lat="29.5527565" lon="103.352337"><ele>1582.39</ele><time>2026-02-05T06:33:59.000Z</time></trkpt>
        <trkpt lat="29.5528441" lon="103.3523699"><ele>1585.12</ele><time>2026-02-05T06:34:09.000Z</time></trkpt>
        <trkpt lat="29.5529311" lon="103.3524323"><ele>1586.02</ele><time>2026-02-05T06:34:21.000Z</time></trkpt>
        <trkpt lat="29.5529852" lon="103.3525284"><ele>1586.51</ele><time>2026-02-05T06:34:33.000Z</time></trkpt>
        <trkpt lat="29.55302" lon="103.3526324"><ele>1585.16</ele><time>2026-02-05T06:34:49.000Z</time></trkpt>
        <trkpt lat="29.5530938" lon="103.3526846"><ele>1585.88</ele><time>2026-02-05T06:35:05.000Z</time></trkpt>
        <trkpt lat="29.5531887" lon="103.3526833"><ele>1587.98</ele><time>2026-02-05T06:35:15.000Z</time></trkpt>
        <trkpt lat="29.5532845" lon="103.3526642"><ele>1589.47</ele><time>2026-02-05T06:35:25.000Z</time></trkpt>
        <trkpt lat="29.553325" lon="103.3526382"><ele>1590.14</ele><time>2026-02-05T06:35:29.000Z</time></trkpt>
        <trkpt lat="29.5533915" lon="103.3525817"><ele>1590.01</ele><time>2026-02-05T06:36:01.000Z</time></trkpt>
        <trkpt lat="29.5534777" lon="103.3525673"><ele>1589.34</ele><time>2026-02-05T06:36:27.000Z</time></trkpt>
        <trkpt lat="29.5535791" lon="103.3525529"><ele>1587.86</ele><time>2026-02-05T06:36:37.000Z</time></trkpt>
        <trkpt lat="29.5536852" lon="103.3525204"><ele>1586.44</ele><time>2026-02-05T06:36:45.000Z</time></trkpt>
        <trkpt lat="29.5537949" lon="103.3524968"><ele>1586.04</ele><time>2026-02-05T06:36:53.000Z</time></trkpt>
        <trkpt lat="29.5538765" lon="103.3525476"><ele>1585.97</ele><time>2026-02-05T06:37:03.000Z</time></trkpt>
        <trkpt lat="29.5539442" lon="103.3526373"><ele>1585.25</ele><time>2026-02-05T06:37:13.000Z</time></trkpt>
        <trkpt lat="29.5540237" lon="103.3526422"><ele>1586.32</ele><time>2026-02-05T06:37:21.000Z</time></trkpt>
        <trkpt lat="29.5541145" lon="103.3526475"><ele>1586.57</ele><time>2026-02-05T06:37:29.000Z</time></trkpt>
        <trkpt lat="29.5542074" lon="103.3526552"><ele>1586.8</ele><time>2026-02-05T06:37:37.000Z</time></trkpt>
        <trkpt lat="29.55429" lon="103.3527023"><ele>1586</ele><time>2026-02-05T06:37:45.000Z</time></trkpt>
        <trkpt lat="29.5543926" lon="103.3527232"><ele>1586.74</ele><time>2026-02-05T06:37:55.000Z</time></trkpt>
        <trkpt lat="29.5544853" lon="103.3527816"><ele>1586.59</ele><time>2026-02-05T06:38:05.000Z</time></trkpt>
        <trkpt lat="29.5545068" lon="103.3528802"><ele>1588.05</ele><time>2026-02-05T06:38:15.000Z</time></trkpt>
        <trkpt lat="29.5545097" lon="103.3530006"><ele>1588.23</ele><time>2026-02-05T06:38:25.000Z</time></trkpt>
        <trkpt lat="29.5544966" lon="103.3531162"><ele>1588.69</ele><time>2026-02-05T06:38:35.000Z</time></trkpt>
        <trkpt lat="29.5545271" lon="103.3532131"><ele>1590.84</ele><time>2026-02-05T06:38:51.000Z</time></trkpt>
        <trkpt lat="29.5546099" lon="103.3532421"><ele>1595.02</ele><time>2026-02-05T06:39:09.000Z</time></trkpt>
        <trkpt lat="29.5546449" lon="103.35333"><ele>1595.41</ele><time>2026-02-05T06:39:23.000Z</time></trkpt>
        <trkpt lat="29.5546515" lon="103.3534395"><ele>1596.98</ele><time>2026-02-05T06:39:39.000Z</time></trkpt>
        <trkpt lat="29.5546523" lon="103.3535482"><ele>1601.41</ele><time>2026-02-05T06:39:53.000Z</time></trkpt>
        <trkpt lat="29.5546923" lon="103.3536387"><ele>1603.14</ele><time>2026-02-05T06:40:07.000Z</time></trkpt>
        <trkpt lat="29.5547764" lon="103.3536923"><ele>1604.29</ele><time>2026-02-05T06:40:17.000Z</time></trkpt>
        <trkpt lat="29.5548825" lon="103.3537174"><ele>1606.25</ele><time>2026-02-05T06:40:29.000Z</time></trkpt>
        <trkpt lat="29.5549566" lon="103.353643"><ele>1606.94</ele><time>2026-02-05T06:40:41.000Z</time></trkpt>
        <trkpt lat="29.5550205" lon="103.3535461"><ele>1605.45</ele><time>2026-02-05T06:40:59.000Z</time></trkpt>
        <trkpt lat="29.5551023" lon="103.3534657"><ele>1602.7</ele><time>2026-02-05T06:41:37.000Z</time></trkpt>
        <trkpt lat="29.5551808" lon="103.3533899"><ele>1600.82</ele><time>2026-02-05T06:41:55.000Z</time></trkpt>
        <trkpt lat="29.5552675" lon="103.3533447"><ele>1598.04</ele><time>2026-02-05T06:42:13.000Z</time></trkpt>
        <trkpt lat="29.5553659" lon="103.3533255"><ele>1595.18</ele><time>2026-02-05T06:42:23.000Z</time></trkpt>
        <trkpt lat="29.5554676" lon="103.3533286"><ele>1593.9</ele><time>2026-02-05T06:42:35.000Z</time></trkpt>
        <trkpt lat="29.55557" lon="103.3533258"><ele>1593.17</ele><time>2026-02-05T06:42:49.000Z</time></trkpt>
        <trkpt lat="29.5556612" lon="103.3533021"><ele>1592.82</ele><time>2026-02-05T06:43:01.000Z</time></trkpt>
        <trkpt lat="29.5557533" lon="103.3533012"><ele>1591.74</ele><time>2026-02-05T06:43:11.000Z</time></trkpt>
        <trkpt lat="29.5558456" lon="103.353341"><ele>1589.43</ele><time>2026-02-05T06:43:21.000Z</time></trkpt>
        <trkpt lat="29.5559367" lon="103.353408"><ele>1588.14</ele><time>2026-02-05T06:43:29.000Z</time></trkpt>
        <trkpt lat="29.5560348" lon="103.353457"><ele>1587.51</ele><time>2026-02-05T06:43:39.000Z</time></trkpt>
        <trkpt lat="29.5561313" lon="103.3534767"><ele>1585.98</ele><time>2026-02-05T06:43:49.000Z</time></trkpt>
        <trkpt lat="29.5562315" lon="103.3534879"><ele>1586.08</ele><time>2026-02-05T06:44:03.000Z</time></trkpt>
        <trkpt lat="29.5563066" lon="103.3534317"><ele>1588.34</ele><time>2026-02-05T06:44:17.000Z</time></trkpt>
        <trkpt lat="29.5563678" lon="103.3533376"><ele>1589.34</ele><time>2026-02-05T06:44:29.000Z</time></trkpt>
        <trkpt lat="29.5564151" lon="103.3532336"><ele>1588.24</ele><time>2026-02-05T06:44:39.000Z</time></trkpt>
        <trkpt lat="29.5564874" lon="103.3531517"><ele>1587.48</ele><time>2026-02-05T06:44:49.000Z</time></trkpt>
        <trkpt lat="29.5565607" lon="103.3530765"><ele>1586.95</ele><time>2026-02-05T06:44:59.000Z</time></trkpt>
        <trkpt lat="29.5566355" lon="103.3530132"><ele>1585.65</ele><time>2026-02-05T06:45:09.000Z</time></trkpt>
        <trkpt lat="29.5567221" lon="103.3529635"><ele>1584.83</ele><time>2026-02-05T06:45:21.000Z</time></trkpt>
        <trkpt lat="29.5568049" lon="103.3529125"><ele>1584.16</ele><time>2026-02-05T06:45:33.000Z</time></trkpt>
        <trkpt lat="29.5568676" lon="103.3528295"><ele>1581.71</ele><time>2026-02-05T06:45:45.000Z</time></trkpt>
        <trkpt lat="29.5569129" lon="103.3527295"><ele>1581.17</ele><time>2026-02-05T06:45:57.000Z</time></trkpt>
        <trkpt lat="29.5569614" lon="103.3526285"><ele>1580.19</ele><time>2026-02-05T06:46:09.000Z</time></trkpt>
        <trkpt lat="29.5570263" lon="103.3525478"><ele>1580.35</ele><time>2026-02-05T06:46:25.000Z</time></trkpt>
        <trkpt lat="29.5571012" lon="103.3524857"><ele>1580.67</ele><time>2026-02-05T06:46:41.000Z</time></trkpt>
        <trkpt lat="29.5571693" lon="103.3524111"><ele>1579.19</ele><time>2026-02-05T06:46:59.000Z</time></trkpt>
        <trkpt lat="29.5572319" lon="103.3523349"><ele>1576.08</ele><time>2026-02-05T06:47:17.000Z</time></trkpt>
        <trkpt lat="29.5572901" lon="103.3522544"><ele>1572.84</ele><time>2026-02-05T06:47:33.000Z</time></trkpt>
        <trkpt lat="29.5573493" lon="103.3521666"><ele>1569.16</ele><time>2026-02-05T06:47:49.000Z</time></trkpt>
        <trkpt lat="29.557409" lon="103.3520833"><ele>1565.23</ele><time>2026-02-05T06:48:03.000Z</time></trkpt>
        <trkpt lat="29.5574627" lon="103.3519966"><ele>1561.64</ele><time>2026-02-05T06:48:17.000Z</time></trkpt>
        <trkpt lat="29.5574942" lon="103.3518947"><ele>1558.24</ele><time>2026-02-05T06:48:29.000Z</time></trkpt>
        <trkpt lat="29.557508" lon="103.3517789"><ele>1555.75</ele><time>2026-02-05T06:48:41.000Z</time></trkpt>
        <trkpt lat="29.5575575" lon="103.3516866"><ele>1553.38</ele><time>2026-02-05T06:48:57.000Z</time></trkpt>
        <trkpt lat="29.5575959" lon="103.3515906"><ele>1551.65</ele><time>2026-02-05T06:49:21.000Z</time></trkpt>
        <trkpt lat="29.5576154" lon="103.3514853"><ele>1547.17</ele><time>2026-02-05T06:49:43.000Z</time></trkpt>
        <trkpt lat="29.557658" lon="103.3513849"><ele>1542.08</ele><time>2026-02-05T06:49:59.000Z</time></trkpt>
        <trkpt lat="29.5577411" lon="103.3513759"><ele>1537.51</ele><time>2026-02-05T06:50:15.000Z</time></trkpt>
        <trkpt lat="29.5578329" lon="103.3514143"><ele>1534.77</ele><time>2026-02-05T06:50:31.000Z</time></trkpt>
        <trkpt lat="29.5579204" lon="103.3514697"><ele>1536.47</ele><time>2026-02-05T06:50:45.000Z</time></trkpt>
        <trkpt lat="29.558015" lon="103.3515167"><ele>1538.45</ele><time>2026-02-05T06:51:01.000Z</time></trkpt>
        <trkpt lat="29.5581124" lon="103.351536"><ele>1540.81</ele><time>2026-02-05T06:51:15.000Z</time></trkpt>
        <trkpt lat="29.5581954" lon="103.3514945"><ele>1541.14</ele><time>2026-02-05T06:51:25.000Z</time></trkpt>
        <trkpt lat="29.5582763" lon="103.3514417"><ele>1539.53</ele><time>2026-02-05T06:51:37.000Z</time></trkpt>
        <trkpt lat="29.5583629" lon="103.3513898"><ele>1537.94</ele><time>2026-02-05T06:51:49.000Z</time></trkpt>
        <trkpt lat="29.5584587" lon="103.3513518"><ele>1536.44</ele><time>2026-02-05T06:52:03.000Z</time></trkpt>
        <trkpt lat="29.5585531" lon="103.3512974"><ele>1534.86</ele><time>2026-02-05T06:52:15.000Z</time></trkpt>
        <trkpt lat="29.5586264" lon="103.3512357"><ele>1534.43</ele><time>2026-02-05T06:52:25.000Z</time></trkpt>
        <trkpt lat="29.5587118" lon="103.3511798"><ele>1533.68</ele><time>2026-02-05T06:52:37.000Z</time></trkpt>
        <trkpt lat="29.5588" lon="103.3511496"><ele>1533.21</ele><time>2026-02-05T06:52:49.000Z</time></trkpt>
        <trkpt lat="29.5588763" lon="103.3510953"><ele>1532.24</ele><time>2026-02-05T06:53:01.000Z</time></trkpt>
        <trkpt lat="29.5589258" lon="103.351058"><ele>1530.79</ele><time>2026-02-05T06:53:11.000Z</time></trkpt>
        <trkpt lat="29.5589592" lon="103.3509639"><ele>1529.63</ele><time>2026-02-05T06:55:49.000Z</time></trkpt>
        <trkpt lat="29.5590102" lon="103.3508777"><ele>1529.57</ele><time>2026-02-05T06:55:59.000Z</time></trkpt>
        <trkpt lat="29.5590954" lon="103.3508152"><ele>1529.16</ele><time>2026-02-05T06:56:09.000Z</time></trkpt>
        <trkpt lat="29.5591854" lon="103.3507684"><ele>1528.86</ele><time>2026-02-05T06:56:21.000Z</time></trkpt>
        <trkpt lat="29.5592824" lon="103.3507534"><ele>1528.11</ele><time>2026-02-05T06:56:33.000Z</time></trkpt>
        <trkpt lat="29.5593719" lon="103.3507257"><ele>1525.2</ele><time>2026-02-05T06:56:45.000Z</time></trkpt>
        <trkpt lat="29.559442" lon="103.3506586"><ele>1521.65</ele><time>2026-02-05T06:56:59.000Z</time></trkpt>
        <trkpt lat="29.5595207" lon="103.3506079"><ele>1519.61</ele><time>2026-02-05T06:57:13.000Z</time></trkpt>
        <trkpt lat="29.5596082" lon="103.3505573"><ele>1516.95</ele><time>2026-02-05T06:57:23.000Z</time></trkpt>
        <trkpt lat="29.5596324" lon="103.3504853"><ele>1515.5</ele><time>2026-02-05T06:57:31.000Z</time></trkpt>
        <trkpt lat="29.559695" lon="103.3504214"><ele>1514.3</ele><time>2026-02-05T06:58:12.000Z</time></trkpt>
        <trkpt lat="29.5597802" lon="103.3504033"><ele>1514.76</ele><time>2026-02-05T06:58:32.000Z</time></trkpt>
        <trkpt lat="29.5598686" lon="103.3503788"><ele>1516.52</ele><time>2026-02-05T06:59:12.000Z</time></trkpt>
        <trkpt lat="29.559959" lon="103.3503536"><ele>1522.92</ele><time>2026-02-05T06:59:48.000Z</time></trkpt>
        <trkpt lat="29.5600459" lon="103.3503774"><ele>1528.36</ele><time>2026-02-05T07:00:08.000Z</time></trkpt>
        <trkpt lat="29.5600948" lon="103.3504632"><ele>1532.17</ele><time>2026-02-05T07:00:42.000Z</time></trkpt>
        <trkpt lat="29.5601518" lon="103.3505495"><ele>1536.81</ele><time>2026-02-05T07:01:24.000Z</time></trkpt>
        <trkpt lat="29.5601784" lon="103.3506752"><ele>1542.28</ele><time>2026-02-05T07:02:42.000Z</time></trkpt>
        <trkpt lat="29.5601917" lon="103.3507803"><ele>1549.75</ele><time>2026-02-05T07:05:16.000Z</time></trkpt>
        <trkpt lat="29.5602196" lon="103.3508894"><ele>1558.85</ele><time>2026-02-05T07:05:38.000Z</time></trkpt>
        <trkpt lat="29.5602173" lon="103.3509958"><ele>1565.59</ele><time>2026-02-05T07:05:54.000Z</time></trkpt>
        <trkpt lat="29.5602168" lon="103.3511035"><ele>1572.52</ele><time>2026-02-05T07:06:20.000Z</time></trkpt>
        <trkpt lat="29.5602801" lon="103.3511579"><ele>1576.43</ele><time>2026-02-05T07:06:46.000Z</time></trkpt>
        <trkpt lat="29.5603681" lon="103.3511387"><ele>1577.95</ele><time>2026-02-05T07:07:20.000Z</time></trkpt>
        <trkpt lat="29.5604643" lon="103.351118"><ele>1581.17</ele><time>2026-02-05T07:07:58.000Z</time></trkpt>
        <trkpt lat="29.5605717" lon="103.3511494"><ele>1585.48</ele><time>2026-02-05T07:09:16.000Z</time></trkpt>
        <trkpt lat="29.5605445" lon="103.3512518"><ele>1594.27</ele><time>2026-02-05T07:10:10.000Z</time></trkpt>
        <trkpt lat="29.5606159" lon="103.351284"><ele>1602.88</ele><time>2026-02-05T07:11:06.000Z</time></trkpt>
        <trkpt lat="29.5607079" lon="103.3512963"><ele>1612.57</ele><time>2026-02-05T07:11:40.000Z</time></trkpt>
        <trkpt lat="29.5606823" lon="103.3513502"><ele>1619.65</ele><time>2026-02-05T07:12:04.000Z</time></trkpt>
        <trkpt lat="29.5606162" lon="103.3514194"><ele>1625.47</ele><time>2026-02-05T07:12:22.000Z</time></trkpt>
        <trkpt lat="29.5605367" lon="103.3514972"><ele>1631.12</ele><time>2026-02-05T07:12:40.000Z</time></trkpt>
        <trkpt lat="29.5604655" lon="103.3515773"><ele>1634.83</ele><time>2026-02-05T07:12:54.000Z</time></trkpt>
        <trkpt lat="29.5605145" lon="103.351609"><ele>1637.17</ele><time>2026-02-05T07:13:16.000Z</time></trkpt>
        <trkpt lat="29.5605965" lon="103.3516641"><ele>1639.9</ele><time>2026-02-05T07:14:00.000Z</time></trkpt>
        <trkpt lat="29.5606308" lon="103.3516002"><ele>1644.91</ele><time>2026-02-05T07:14:30.000Z</time></trkpt>
        <trkpt lat="29.5606967" lon="103.3515188"><ele>1648.72</ele><time>2026-02-05T07:14:54.000Z</time></trkpt>
        <trkpt lat="29.5607601" lon="103.3515545"><ele>1651.45</ele><time>2026-02-05T07:15:14.000Z</time></trkpt>
        <trkpt lat="29.5607639" lon="103.3514679"><ele>1652.69</ele><time>2026-02-05T07:17:46.000Z</time></trkpt>
        <trkpt lat="29.5608644" lon="103.3514816"><ele>1656.01</ele><time>2026-02-05T07:22:14.000Z</time></trkpt>
        <trkpt lat="29.5608835" lon="103.3515519"><ele>1657.72</ele><time>2026-02-05T07:22:22.000Z</time></trkpt>
        <trkpt lat="29.5609607" lon="103.3516077"><ele>1656.7</ele><time>2026-02-05T07:22:44.000Z</time></trkpt>
        <trkpt lat="29.5610567" lon="103.351618"><ele>1659.3</ele><time>2026-02-05T07:22:56.000Z</time></trkpt>
        <trkpt lat="29.5611531" lon="103.3516274"><ele>1660.18</ele><time>2026-02-05T07:23:04.000Z</time></trkpt>
        <trkpt lat="29.5612595" lon="103.3516314"><ele>1660.38</ele><time>2026-02-05T07:23:14.000Z</time></trkpt>
        <trkpt lat="29.5613514" lon="103.3516605"><ele>1660.12</ele><time>2026-02-05T07:23:28.000Z</time></trkpt>
        <trkpt lat="29.5614413" lon="103.3516982"><ele>1660.56</ele><time>2026-02-05T07:24:12.000Z</time></trkpt>
        <trkpt lat="29.5614238" lon="103.3517745"><ele>1662.88</ele><time>2026-02-05T07:24:50.000Z</time></trkpt>
        <trkpt lat="29.5614095" lon="103.3518812"><ele>1668.95</ele><time>2026-02-05T07:25:38.000Z</time></trkpt>
        <trkpt lat="29.5614689" lon="103.3519213"><ele>1676.26</ele><time>2026-02-05T07:25:58.000Z</time></trkpt>
        <trkpt lat="29.5615527" lon="103.351961"><ele>1680.52</ele><time>2026-02-05T07:26:46.000Z</time></trkpt>
        <trkpt lat="29.5616464" lon="103.3520064"><ele>1685.75</ele><time>2026-02-05T07:27:10.000Z</time></trkpt>
        <trkpt lat="29.5617402" lon="103.3520371"><ele>1690.42</ele><time>2026-02-05T07:27:30.000Z</time></trkpt>
        <trkpt lat="29.5617463" lon="103.3521207"><ele>1695.93</ele><time>2026-02-05T07:28:14.000Z</time></trkpt>
        <trkpt lat="29.5618033" lon="103.3521807"><ele>1701.98</ele><time>2026-02-05T07:28:36.000Z</time></trkpt>
        <trkpt lat="29.5618845" lon="103.3522232"><ele>1707.04</ele><time>2026-02-05T07:29:10.000Z</time></trkpt>
        <trkpt lat="29.5619767" lon="103.3522348"><ele>1710.88</ele><time>2026-02-05T07:29:28.000Z</time></trkpt>
        <trkpt lat="29.5620741" lon="103.3522147"><ele>1714.92</ele><time>2026-02-05T07:29:58.000Z</time></trkpt>
        <trkpt lat="29.5621708" lon="103.3522142"><ele>1720.8</ele><time>2026-02-05T07:30:20.000Z</time></trkpt>
        <trkpt lat="29.5622678" lon="103.3521999"><ele>1723.59</ele><time>2026-02-05T07:30:54.000Z</time></trkpt>
        <trkpt lat="29.5623589" lon="103.3521693"><ele>1727.31</ele><time>2026-02-05T07:31:16.000Z</time></trkpt>
        <trkpt lat="29.5624384" lon="103.3522029"><ele>1732.13</ele><time>2026-02-05T07:31:42.000Z</time></trkpt>
        <trkpt lat="29.5625247" lon="103.3522382"><ele>1736.47</ele><time>2026-02-05T07:32:26.000Z</time></trkpt>
        <trkpt lat="29.5626118" lon="103.3522697"><ele>1741.37</ele><time>2026-02-05T07:33:16.000Z</time></trkpt>
        <trkpt lat="29.5627021" lon="103.3522265"><ele>1747.55</ele><time>2026-02-05T07:33:38.000Z</time></trkpt>
        <trkpt lat="29.5627268" lon="103.352113"><ele>1751.43</ele><time>2026-02-05T07:33:50.000Z</time></trkpt>
        <trkpt lat="29.5626806" lon="103.3520042"><ele>1754</ele><time>2026-02-05T07:34:00.000Z</time></trkpt>
        <trkpt lat="29.5626175" lon="103.3518962"><ele>1756.02</ele><time>2026-02-05T07:34:12.000Z</time></trkpt>
        <trkpt lat="29.5625474" lon="103.3518037"><ele>1756.76</ele><time>2026-02-05T07:34:24.000Z</time></trkpt>
        <trkpt lat="29.5624874" lon="103.3517147"><ele>1756.24</ele><time>2026-02-05T07:34:38.000Z</time></trkpt>
        <trkpt lat="29.5625385" lon="103.3516569"><ele>1756.8</ele><time>2026-02-05T07:34:58.000Z</time></trkpt>
        <trkpt lat="29.5626111" lon="103.3515853"><ele>1755.84</ele><time>2026-02-05T07:35:36.000Z</time></trkpt>
        <trkpt lat="29.5626511" lon="103.3514887"><ele>1760.48</ele><time>2026-02-05T07:35:56.000Z</time></trkpt>
        <trkpt lat="29.5626773" lon="103.3513839"><ele>1764.07</ele><time>2026-02-05T07:36:06.000Z</time></trkpt>
        <trkpt lat="29.5627082" lon="103.351279"><ele>1767.59</ele><time>2026-02-05T07:36:18.000Z</time></trkpt>
        <trkpt lat="29.562757" lon="103.351181"><ele>1770.91</ele><time>2026-02-05T07:36:34.000Z</time></trkpt>
        <trkpt lat="29.5628093" lon="103.3510874"><ele>1772.98</ele><time>2026-02-05T07:37:00.000Z</time></trkpt>
        <trkpt lat="29.562819" lon="103.3509867"><ele>1775.4</ele><time>2026-02-05T07:37:18.000Z</time></trkpt>
        <trkpt lat="29.5628039" lon="103.350879"><ele>1779.38</ele><time>2026-02-05T07:37:38.000Z</time></trkpt>
        <trkpt lat="29.5627885" lon="103.3507705"><ele>1783.41</ele><time>2026-02-05T07:38:00.000Z</time></trkpt>
        <trkpt lat="29.5627899" lon="103.3506597"><ele>1786.17</ele><time>2026-02-05T07:38:20.000Z</time></trkpt>
        <trkpt lat="29.5627728" lon="103.3505514"><ele>1787.71</ele><time>2026-02-05T07:38:34.000Z</time></trkpt>
        <trkpt lat="29.5627907" lon="103.3504373"><ele>1787.9</ele><time>2026-02-05T07:38:52.000Z</time></trkpt>
        <trkpt lat="29.562805" lon="103.3503196"><ele>1787.91</ele><time>2026-02-05T07:39:06.000Z</time></trkpt>
        <trkpt lat="29.5628296" lon="103.3502128"><ele>1787.26</ele><time>2026-02-05T07:39:18.000Z</time></trkpt>
        <trkpt lat="29.5628594" lon="103.3501096"><ele>1785.98</ele><time>2026-02-05T07:39:30.000Z</time></trkpt>
        <trkpt lat="29.5628806" lon="103.3500082"><ele>1784.96</ele><time>2026-02-05T07:39:42.000Z</time></trkpt>
        <trkpt lat="29.5628871" lon="103.3499012"><ele>1783.58</ele><time>2026-02-05T07:39:54.000Z</time></trkpt>
        <trkpt lat="29.5629008" lon="103.349785"><ele>1782.28</ele><time>2026-02-05T07:40:06.000Z</time></trkpt>
        <trkpt lat="29.5629291" lon="103.3496686"><ele>1781.92</ele><time>2026-02-05T07:40:18.000Z</time></trkpt>
        <trkpt lat="29.5629738" lon="103.3495669"><ele>1781.05</ele><time>2026-02-05T07:40:28.000Z</time></trkpt>
        <trkpt lat="29.5630538" lon="103.349517"><ele>1780.57</ele><time>2026-02-05T07:40:42.000Z</time></trkpt>
        <trkpt lat="29.5630989" lon="103.3494223"><ele>1781.5</ele><time>2026-02-05T07:40:52.000Z</time></trkpt>
        <trkpt lat="29.5631247" lon="103.3493125"><ele>1781.18</ele><time>2026-02-05T07:41:04.000Z</time></trkpt>
        <trkpt lat="29.5631627" lon="103.3492037"><ele>1781.39</ele><time>2026-02-05T07:41:16.000Z</time></trkpt>
        <trkpt lat="29.5631818" lon="103.3490962"><ele>1780.95</ele><time>2026-02-05T07:41:28.000Z</time></trkpt>
        <trkpt lat="29.5631833" lon="103.3489815"><ele>1780.41</ele><time>2026-02-05T07:41:44.000Z</time></trkpt>
        <trkpt lat="29.5632097" lon="103.3488748"><ele>1781.75</ele><time>2026-02-05T07:41:58.000Z</time></trkpt>
        <trkpt lat="29.5632145" lon="103.3487645"><ele>1783.54</ele><time>2026-02-05T07:42:12.000Z</time></trkpt>
        <trkpt lat="29.5631976" lon="103.3486547"><ele>1784.15</ele><time>2026-02-05T07:42:24.000Z</time></trkpt>
        <trkpt lat="29.5631997" lon="103.3485426"><ele>1784.65</ele><time>2026-02-05T07:42:36.000Z</time></trkpt>
        <trkpt lat="29.563215" lon="103.348435"><ele>1784.92</ele><time>2026-02-05T07:42:46.000Z</time></trkpt>
        <trkpt lat="29.5632405" lon="103.3483329"><ele>1785.51</ele><time>2026-02-05T07:42:56.000Z</time></trkpt>
        <trkpt lat="29.5633" lon="103.3482543"><ele>1785.57</ele><time>2026-02-05T07:43:06.000Z</time></trkpt>
        <trkpt lat="29.5633829" lon="103.3481899"><ele>1786.87</ele><time>2026-02-05T07:43:20.000Z</time></trkpt>
        <trkpt lat="29.5634175" lon="103.3480922"><ele>1788.89</ele><time>2026-02-05T07:43:32.000Z</time></trkpt>
        <trkpt lat="29.5634703" lon="103.3479952"><ele>1789.09</ele><time>2026-02-05T07:43:42.000Z</time></trkpt>
        <trkpt lat="29.5635347" lon="103.3479105"><ele>1789.45</ele><time>2026-02-05T07:43:52.000Z</time></trkpt>
        <trkpt lat="29.563575" lon="103.3478063"><ele>1789.46</ele><time>2026-02-05T07:44:04.000Z</time></trkpt>
        <trkpt lat="29.5635813" lon="103.3476947"><ele>1789.95</ele><time>2026-02-05T07:44:20.000Z</time></trkpt>
        <trkpt lat="29.5635681" lon="103.3475861"><ele>1789.03</ele><time>2026-02-05T07:44:32.000Z</time></trkpt>
        <trkpt lat="29.5635569" lon="103.3474792"><ele>1788.41</ele><time>2026-02-05T07:44:44.000Z</time></trkpt>
        <trkpt lat="29.5635251" lon="103.3473687"><ele>1787.02</ele><time>2026-02-05T07:44:56.000Z</time></trkpt>
        <trkpt lat="29.5634729" lon="103.347272"><ele>1784.93</ele><time>2026-02-05T07:45:08.000Z</time></trkpt>
        <trkpt lat="29.5634039" lon="103.3471929"><ele>1783.88</ele><time>2026-02-05T07:45:20.000Z</time></trkpt>
        <trkpt lat="29.5633202" lon="103.3471368"><ele>1782.77</ele><time>2026-02-05T07:45:32.000Z</time></trkpt>
        <trkpt lat="29.5632305" lon="103.3470958"><ele>1781.77</ele><time>2026-02-05T07:45:42.000Z</time></trkpt>
        <trkpt lat="29.5631514" lon="103.3470239"><ele>1781.01</ele><time>2026-02-05T07:45:54.000Z</time></trkpt>
        <trkpt lat="29.5630802" lon="103.3469406"><ele>1779.79</ele><time>2026-02-05T07:46:04.000Z</time></trkpt>
        <trkpt lat="29.5630285" lon="103.3468513"><ele>1778.83</ele><time>2026-02-05T07:46:14.000Z</time></trkpt>
        <trkpt lat="29.5629771" lon="103.3467592"><ele>1778.42</ele><time>2026-02-05T07:46:28.000Z</time></trkpt>
        <trkpt lat="29.5629084" lon="103.3466844"><ele>1777.93</ele><time>2026-02-05T07:46:38.000Z</time></trkpt>
        <trkpt lat="29.5628473" lon="103.3465848"><ele>1776.62</ele><time>2026-02-05T07:46:48.000Z</time></trkpt>
        <trkpt lat="29.5627805" lon="103.3464968"><ele>1776.16</ele><time>2026-02-05T07:46:58.000Z</time></trkpt>
        <trkpt lat="29.5626841" lon="103.3464565"><ele>1775.61</ele><time>2026-02-05T07:47:08.000Z</time></trkpt>
        <trkpt lat="29.5625945" lon="103.3463972"><ele>1774.19</ele><time>2026-02-05T07:47:18.000Z</time></trkpt>
        <trkpt lat="29.5625081" lon="103.3463335"><ele>1772.56</ele><time>2026-02-05T07:47:28.000Z</time></trkpt>
        <trkpt lat="29.5624208" lon="103.346262"><ele>1770.7</ele><time>2026-02-05T07:47:38.000Z</time></trkpt>
        <trkpt lat="29.5623368" lon="103.3461814"><ele>1769.15</ele><time>2026-02-05T07:47:48.000Z</time></trkpt>
        <trkpt lat="29.5622709" lon="103.3460951"><ele>1767.93</ele><time>2026-02-05T07:47:58.000Z</time></trkpt>
        <trkpt lat="29.5622188" lon="103.3459963"><ele>1767.4</ele><time>2026-02-05T07:48:08.000Z</time></trkpt>
        <trkpt lat="29.5621775" lon="103.3458882"><ele>1767.07</ele><time>2026-02-05T07:48:18.000Z</time></trkpt>
        <trkpt lat="29.5621237" lon="103.3457886"><ele>1766.52</ele><time>2026-02-05T07:48:28.000Z</time></trkpt>
        <trkpt lat="29.5620707" lon="103.3456997"><ele>1765.78</ele><time>2026-02-05T07:48:36.000Z</time></trkpt>
        <trkpt lat="29.5620163" lon="103.3456123"><ele>1766.26</ele><time>2026-02-05T07:48:46.000Z</time></trkpt>
        <trkpt lat="29.5619295" lon="103.3455787"><ele>1767.21</ele><time>2026-02-05T07:48:56.000Z</time></trkpt>
        <trkpt lat="29.5618331" lon="103.3455817"><ele>1767.55</ele><time>2026-02-05T07:49:08.000Z</time></trkpt>
        <trkpt lat="29.5617281" lon="103.3455986"><ele>1767.88</ele><time>2026-02-05T07:49:20.000Z</time></trkpt>
        <trkpt lat="29.5616284" lon="103.3456006"><ele>1768.37</ele><time>2026-02-05T07:49:30.000Z</time></trkpt>
        <trkpt lat="29.5615477" lon="103.3455497"><ele>1768.37</ele><time>2026-02-05T07:49:42.000Z</time></trkpt>
        <trkpt lat="29.5614691" lon="103.3454753"><ele>1768.88</ele><time>2026-02-05T07:49:52.000Z</time></trkpt>
        <trkpt lat="29.5614082" lon="103.3453758"><ele>1768.93</ele><time>2026-02-05T07:50:04.000Z</time></trkpt>
        <trkpt lat="29.5613647" lon="103.345275"><ele>1769.41</ele><time>2026-02-05T07:50:40.000Z</time></trkpt>
        <trkpt lat="29.5613007" lon="103.3451971"><ele>1770.38</ele><time>2026-02-05T07:51:18.000Z</time></trkpt>
        <trkpt lat="29.5612257" lon="103.3451334"><ele>1773.88</ele><time>2026-02-05T07:52:08.000Z</time></trkpt>
        <trkpt lat="29.5611582" lon="103.3450639"><ele>1777.24</ele><time>2026-02-05T07:52:42.000Z</time></trkpt>
        <trkpt lat="29.5610719" lon="103.3450457"><ele>1782.22</ele><time>2026-02-05T07:53:22.000Z</time></trkpt>
        <trkpt lat="29.5610231" lon="103.3449706"><ele>1787.9</ele><time>2026-02-05T07:54:30.000Z</time></trkpt>
        <trkpt lat="29.5609743" lon="103.3450689"><ele>1793.57</ele><time>2026-02-05T07:54:58.000Z</time></trkpt>
        <trkpt lat="29.5608787" lon="103.3450525"><ele>1799.34</ele><time>2026-02-05T07:58:06.000Z</time></trkpt>
        <trkpt lat="29.560847" lon="103.3449546"><ele>1805.2</ele><time>2026-02-05T07:58:44.000Z</time></trkpt>
        <trkpt lat="29.5607636" lon="103.3449063"><ele>1811.35</ele><time>2026-02-05T07:59:58.000Z</time></trkpt>
        <trkpt lat="29.5607296" lon="103.3448081"><ele>1818.28</ele><time>2026-02-05T08:00:36.000Z</time></trkpt>
        <trkpt lat="29.560707" lon="103.3446984"><ele>1826.5</ele><time>2026-02-05T08:01:16.000Z</time></trkpt>
        <trkpt lat="29.5606331" lon="103.3446513"><ele>1832.19</ele><time>2026-02-05T08:01:38.000Z</time></trkpt>
        <trkpt lat="29.5605485" lon="103.3446087"><ele>1835.42</ele><time>2026-02-05T08:02:08.000Z</time></trkpt>
        <trkpt lat="29.5604642" lon="103.3445629"><ele>1840.34</ele><time>2026-02-05T08:02:48.000Z</time></trkpt>
        <trkpt lat="29.560382" lon="103.3445159"><ele>1845.79</ele><time>2026-02-05T08:03:16.000Z</time></trkpt>
        <trkpt lat="29.5602948" lon="103.3444747"><ele>1850.6</ele><time>2026-02-05T08:03:52.000Z</time></trkpt>
        <trkpt lat="29.5602155" lon="103.3444169"><ele>1856.26</ele><time>2026-02-05T08:04:20.000Z</time></trkpt>
        <trkpt lat="29.5601575" lon="103.3443359"><ele>1861.75</ele><time>2026-02-05T08:04:46.000Z</time></trkpt>
        <trkpt lat="29.5601583" lon="103.3442319"><ele>1866.62</ele><time>2026-02-05T08:05:44.000Z</time></trkpt>
        <trkpt lat="29.5600995" lon="103.3441826"><ele>1872.72</ele><time>2026-02-05T08:06:06.000Z</time></trkpt>
        <trkpt lat="29.5600198" lon="103.3441378"><ele>1878.92</ele><time>2026-02-05T08:06:36.000Z</time></trkpt>
        <trkpt lat="29.560103" lon="103.3441197"><ele>1884.01</ele><time>2026-02-05T08:08:50.000Z</time></trkpt>
        <trkpt lat="29.5600867" lon="103.3440164"><ele>1889.04</ele><time>2026-02-05T08:10:30.000Z</time></trkpt>
        <trkpt lat="29.560148" lon="103.3439336"><ele>1892.6</ele><time>2026-02-05T08:11:14.000Z</time></trkpt>
        <trkpt lat="29.5601015" lon="103.3438611"><ele>1898.19</ele><time>2026-02-05T08:11:52.000Z</time></trkpt>
        <trkpt lat="29.5600323" lon="103.3437941"><ele>1903.3</ele><time>2026-02-05T08:12:34.000Z</time></trkpt>
        <trkpt lat="29.5600053" lon="103.3437782"><ele>1908.47</ele><time>2026-02-05T08:12:36.000Z</time></trkpt>
        <trkpt lat="29.5599179" lon="103.3437647"><ele>1911.52</ele><time>2026-02-05T08:16:13.000Z</time></trkpt>
        <trkpt lat="29.5598612" lon="103.3436838"><ele>1914.92</ele><time>2026-02-05T08:16:51.000Z</time></trkpt>
        <trkpt lat="29.5597767" lon="103.3436484"><ele>1919.51</ele><time>2026-02-05T08:17:19.000Z</time></trkpt>
        <trkpt lat="29.5597437" lon="103.3435624"><ele>1923.59</ele><time>2026-02-05T08:17:47.000Z</time></trkpt>
        <trkpt lat="29.5596792" lon="103.3434944"><ele>1928.01</ele><time>2026-02-05T08:18:17.000Z</time></trkpt>
        <trkpt lat="29.5596433" lon="103.3435946"><ele>1931.35</ele><time>2026-02-05T08:19:17.000Z</time></trkpt>
        <trkpt lat="29.5595515" lon="103.3435604"><ele>1935.23</ele><time>2026-02-05T08:19:37.000Z</time></trkpt>
        <trkpt lat="29.5594804" lon="103.3434952"><ele>1940.98</ele><time>2026-02-05T08:20:03.000Z</time></trkpt>
        <trkpt lat="29.5594153" lon="103.3435374"><ele>1945.49</ele><time>2026-02-05T08:20:27.000Z</time></trkpt>
        <trkpt lat="29.5593389" lon="103.3435885"><ele>1948.65</ele><time>2026-02-05T08:21:03.000Z</time></trkpt>
        <trkpt lat="29.5592443" lon="103.3436097"><ele>1952.32</ele><time>2026-02-05T08:23:21.000Z</time></trkpt>
        <trkpt lat="29.5592059" lon="103.3437055"><ele>1958.49</ele><time>2026-02-05T08:25:19.000Z</time></trkpt>
        <trkpt lat="29.5591689" lon="103.3438016"><ele>1962.25</ele><time>2026-02-05T08:26:53.000Z</time></trkpt>
        <trkpt lat="29.5591398" lon="103.3437007"><ele>1967.12</ele><time>2026-02-05T08:27:35.000Z</time></trkpt>
        <trkpt lat="29.5590616" lon="103.3436548"><ele>1974.29</ele><time>2026-02-05T08:28:07.000Z</time></trkpt>
        <trkpt lat="29.5589713" lon="103.3436456"><ele>1978.04</ele><time>2026-02-05T08:28:55.000Z</time></trkpt>
        <trkpt lat="29.5588867" lon="103.3437301"><ele>1983.35</ele><time>2026-02-05T08:36:29.000Z</time></trkpt>
        <trkpt lat="29.5588466" lon="103.3438227"><ele>1988.42</ele><time>2026-02-05T08:36:49.000Z</time></trkpt>
        <trkpt lat="29.5588617" lon="103.3439352"><ele>1993.99</ele><time>2026-02-05T08:37:01.000Z</time></trkpt>
        <trkpt lat="29.5588941" lon="103.3440499"><ele>1997.5</ele><time>2026-02-05T08:37:13.000Z</time></trkpt>
        <trkpt lat="29.5589207" lon="103.344159"><ele>2000.82</ele><time>2026-02-05T08:37:27.000Z</time></trkpt>
        <trkpt lat="29.5588984" lon="103.3441046"><ele>2003.61</ele><time>2026-02-05T08:37:45.000Z</time></trkpt>
        <trkpt lat="29.5588573" lon="103.3441459"><ele>2005.7</ele><time>2026-02-05T08:38:03.000Z</time></trkpt>
        <trkpt lat="29.5588486" lon="103.3442369"><ele>2007.5</ele><time>2026-02-05T08:38:29.000Z</time></trkpt>
        <trkpt lat="29.5587794" lon="103.3442436"><ele>2011</ele><time>2026-02-05T08:39:09.000Z</time></trkpt>
        <trkpt lat="29.5586885" lon="103.3442175"><ele>2015.16</ele><time>2026-02-05T08:39:23.000Z</time></trkpt>
        <trkpt lat="29.5585897" lon="103.3441912"><ele>2017.09</ele><time>2026-02-05T08:40:05.000Z</time></trkpt>
        <trkpt lat="29.5584996" lon="103.3441455"><ele>2019.12</ele><time>2026-02-05T08:40:31.000Z</time></trkpt>
        <trkpt lat="29.5584101" lon="103.3440991"><ele>2022.85</ele><time>2026-02-05T08:40:59.000Z</time></trkpt>
        <trkpt lat="29.5583102" lon="103.3440772"><ele>2026.9</ele><time>2026-02-05T08:44:59.000Z</time></trkpt>
        <trkpt lat="29.5582137" lon="103.3440456"><ele>2031.13</ele><time>2026-02-05T08:45:15.000Z</time></trkpt>
        <trkpt lat="29.5581165" lon="103.3440495"><ele>2032.25</ele><time>2026-02-05T08:45:29.000Z</time></trkpt>
        <trkpt lat="29.5580532" lon="103.3439872"><ele>2031.75</ele><time>2026-02-05T08:45:39.000Z</time></trkpt>
        <trkpt lat="29.5580922" lon="103.3440348"><ele>2029.7</ele><time>2026-02-05T08:46:09.000Z</time></trkpt>
        <trkpt lat="29.5582268" lon="103.3440908"><ele>2029.39</ele><time>2026-02-05T08:47:13.000Z</time></trkpt>
        <trkpt lat="29.5581636" lon="103.3440074"><ele>2032.14</ele><time>2026-02-05T08:47:57.000Z</time></trkpt>
        <trkpt lat="29.5580953" lon="103.3440611"><ele>2030.87</ele><time>2026-02-05T08:48:07.000Z</time></trkpt>
        <trkpt lat="29.5580527" lon="103.3441535"><ele>2030.92</ele><time>2026-02-05T08:48:23.000Z</time></trkpt>
        <trkpt lat="29.557989" lon="103.344247"><ele>2034.33</ele><time>2026-02-05T08:48:37.000Z</time></trkpt>
        <trkpt lat="29.557887" lon="103.3442619"><ele>2041.38</ele><time>2026-02-05T08:48:43.000Z</time></trkpt>
        <trkpt lat="29.5578037" lon="103.3442045"><ele>2033.14</ele><time>2026-02-05T08:49:01.000Z</time></trkpt>
        <trkpt lat="29.5577335" lon="103.344112"><ele>2021.89</ele><time>2026-02-05T08:49:09.000Z</time></trkpt>
        <trkpt lat="29.5576577" lon="103.3440112"><ele>2020.71</ele><time>2026-02-05T08:49:15.000Z</time></trkpt>
        <trkpt lat="29.5575819" lon="103.3439301"><ele>2024.89</ele><time>2026-02-05T08:49:21.000Z</time></trkpt>
        <trkpt lat="29.5575141" lon="103.3438453"><ele>2030</ele><time>2026-02-05T08:49:33.000Z</time></trkpt>
        <trkpt lat="29.557458" lon="103.3437559"><ele>2033.22</ele><time>2026-02-05T08:49:43.000Z</time></trkpt>
        <trkpt lat="29.5573918" lon="103.3436795"><ele>2033.33</ele><time>2026-02-05T08:49:53.000Z</time></trkpt>
        <trkpt lat="29.5573103" lon="103.3436332"><ele>2033.82</ele><time>2026-02-05T08:50:03.000Z</time></trkpt>
        <trkpt lat="29.5572208" lon="103.3436016"><ele>2034.43</ele><time>2026-02-05T08:50:19.000Z</time></trkpt>
        <trkpt lat="29.5571247" lon="103.3435819"><ele>2033.39</ele><time>2026-02-05T08:51:03.000Z</time></trkpt>
        <trkpt lat="29.5570301" lon="103.3436115"><ele>2036.6</ele><time>2026-02-05T08:53:09.000Z</time></trkpt>
        <trkpt lat="29.5569415" lon="103.3436725"><ele>2042.03</ele><time>2026-02-05T08:53:41.000Z</time></trkpt>
        <trkpt lat="29.5568554" lon="103.343721"><ele>2047.85</ele><time>2026-02-05T08:53:59.000Z</time></trkpt>
        <trkpt lat="29.5567634" lon="103.3437403"><ele>2051.1</ele><time>2026-02-05T08:54:25.000Z</time></trkpt>
        <trkpt lat="29.5566715" lon="103.3437367"><ele>2054.59</ele><time>2026-02-05T08:54:51.000Z</time></trkpt>
        <trkpt lat="29.5565944" lon="103.3437789"><ele>2058.39</ele><time>2026-02-05T08:55:19.000Z</time></trkpt>
        <trkpt lat="29.5565222" lon="103.3438416"><ele>2062.58</ele><time>2026-02-05T08:55:51.000Z</time></trkpt>
        <trkpt lat="29.5565384" lon="103.3439323"><ele>2066.8</ele><time>2026-02-05T08:56:23.000Z</time></trkpt>
        <trkpt lat="29.5565241" lon="103.3440308"><ele>2069.78</ele><time>2026-02-05T08:56:57.000Z</time></trkpt>
        <trkpt lat="29.5564631" lon="103.3441061"><ele>2075.12</ele><time>2026-02-05T08:57:21.000Z</time></trkpt>
        <trkpt lat="29.556394" lon="103.3441819"><ele>2079.84</ele><time>2026-02-05T08:57:43.000Z</time></trkpt>
        <trkpt lat="29.5563055" lon="103.3442204"><ele>2084.37</ele><time>2026-02-05T08:58:05.000Z</time></trkpt>
        <trkpt lat="29.5562256" lon="103.3442746"><ele>2089.08</ele><time>2026-02-05T08:58:29.000Z</time></trkpt>
        <trkpt lat="29.5561675" lon="103.3443566"><ele>2093.35</ele><time>2026-02-05T08:59:01.000Z</time></trkpt>
        <trkpt lat="29.5561074" lon="103.3444433"><ele>2096.98</ele><time>2026-02-05T08:59:27.000Z</time></trkpt>
        <trkpt lat="29.5560408" lon="103.3445264"><ele>2100.77</ele><time>2026-02-05T09:00:15.000Z</time></trkpt>
        <trkpt lat="29.5559755" lon="103.3446073"><ele>2103.32</ele><time>2026-02-05T09:00:39.000Z</time></trkpt>
        <trkpt lat="29.5559464" lon="103.3447084"><ele>2106.65</ele><time>2026-02-05T09:01:01.000Z</time></trkpt>
        <trkpt lat="29.5558921" lon="103.3447888"><ele>2109.4</ele><time>2026-02-05T09:01:31.000Z</time></trkpt>
        <trkpt lat="29.5558515" lon="103.3448801"><ele>2112.8</ele><time>2026-02-05T09:02:15.000Z</time></trkpt>
        <trkpt lat="29.5557952" lon="103.344959"><ele>2116.67</ele><time>2026-02-05T09:02:51.000Z</time></trkpt>
        <trkpt lat="29.55571" lon="103.3449704"><ele>2119.72</ele><time>2026-02-05T09:03:19.000Z</time></trkpt>
        <trkpt lat="29.5556141" lon="103.3449519"><ele>2124.48</ele><time>2026-02-05T09:03:55.000Z</time></trkpt>
        <trkpt lat="29.5555229" lon="103.3449808"><ele>2127.97</ele><time>2026-02-05T09:05:27.000Z</time></trkpt>
        <trkpt lat="29.5554641" lon="103.3450644"><ele>2131.85</ele><time>2026-02-05T09:06:07.000Z</time></trkpt>
        <trkpt lat="29.5553823" lon="103.3451191"><ele>2137.84</ele><time>2026-02-05T09:06:45.000Z</time></trkpt>
        <trkpt lat="29.5553247" lon="103.3450519"><ele>2144.03</ele><time>2026-02-05T09:07:29.000Z</time></trkpt>
        <trkpt lat="29.5552475" lon="103.3449902"><ele>2150.58</ele><time>2026-02-05T09:07:43.000Z</time></trkpt>
        <trkpt lat="29.5551917" lon="103.3450394"><ele>2154.42</ele><time>2026-02-05T09:08:03.000Z</time></trkpt>
        <trkpt lat="29.5551106" lon="103.3450983"><ele>2158.18</ele><time>2026-02-05T09:08:15.000Z</time></trkpt>
        <trkpt lat="29.5550217" lon="103.3451442"><ele>2160.3</ele><time>2026-02-05T09:08:27.000Z</time></trkpt>
        <trkpt lat="29.5549292" lon="103.3451553"><ele>2160.98</ele><time>2026-02-05T09:08:43.000Z</time></trkpt>
        <trkpt lat="29.5548365" lon="103.34518"><ele>2162.41</ele><time>2026-02-05T09:09:03.000Z</time></trkpt>
        <trkpt lat="29.5547602" lon="103.345238"><ele>2164.13</ele><time>2026-02-05T09:09:27.000Z</time></trkpt>
        <trkpt lat="29.5546864" lon="103.3453021"><ele>2166.97</ele><time>2026-02-05T09:10:09.000Z</time></trkpt>
        <trkpt lat="29.554602" lon="103.3453388"><ele>2171.07</ele><time>2026-02-05T09:10:41.000Z</time></trkpt>
        <trkpt lat="29.5545184" lon="103.345377"><ele>2174.84</ele><time>2026-02-05T09:11:47.000Z</time></trkpt>
        <trkpt lat="29.5544238" lon="103.3453823"><ele>2178.16</ele><time>2026-02-05T09:12:13.000Z</time></trkpt>
        <trkpt lat="29.5543373" lon="103.34543"><ele>2181.31</ele><time>2026-02-05T09:14:53.000Z</time></trkpt>
        <trkpt lat="29.5542473" lon="103.3454239"><ele>2185.29</ele><time>2026-02-05T09:15:21.000Z</time></trkpt>
        <trkpt lat="29.5541589" lon="103.3454439"><ele>2190.96</ele><time>2026-02-05T09:15:55.000Z</time></trkpt>
        <trkpt lat="29.5540709" lon="103.3454792"><ele>2197.26</ele><time>2026-02-05T09:16:19.000Z</time></trkpt>
        <trkpt lat="29.5539767" lon="103.3454853"><ele>2201.9</ele><time>2026-02-05T09:16:41.000Z</time></trkpt>
        <trkpt lat="29.5538927" lon="103.3454336"><ele>2204.99</ele><time>2026-02-05T09:16:59.000Z</time></trkpt>
        <trkpt lat="29.5538038" lon="103.3453885"><ele>2208.25</ele><time>2026-02-05T09:17:19.000Z</time></trkpt>
        <trkpt lat="29.5537182" lon="103.3453417"><ele>2209.63</ele><time>2026-02-05T09:17:37.000Z</time></trkpt>
        <trkpt lat="29.553624" lon="103.3453199"><ele>2211.72</ele><time>2026-02-05T09:18:01.000Z</time></trkpt>
        <trkpt lat="29.5535335" lon="103.345337"><ele>2215.3</ele><time>2026-02-05T09:18:15.000Z</time></trkpt>
        <trkpt lat="29.5534924" lon="103.3453444"><ele>2218.64</ele><time>2026-02-05T09:18:23.000Z</time></trkpt>
        <trkpt lat="29.5534114" lon="103.3453521"><ele>2220.64</ele><time>2026-02-05T09:18:47.000Z</time></trkpt>
        <trkpt lat="29.5533752" lon="103.345366"><ele>2223.67</ele><time>2026-02-05T09:18:51.000Z</time></trkpt>
        <trkpt lat="29.5533014" lon="103.3453586"><ele>2225.28</ele><time>2026-02-05T09:19:31.000Z</time></trkpt>
        <trkpt lat="29.5532388" lon="103.3453924"><ele>2227.37</ele><time>2026-02-05T09:19:47.000Z</time></trkpt>
        <trkpt lat="29.5531569" lon="103.3453838"><ele>2227.83</ele><time>2026-02-05T09:20:05.000Z</time></trkpt>
        <trkpt lat="29.5530638" lon="103.3453795"><ele>2228.22</ele><time>2026-02-05T09:20:17.000Z</time></trkpt>
        <trkpt lat="29.5529591" lon="103.3453994"><ele>2228.57</ele><time>2026-02-05T09:20:29.000Z</time></trkpt>
        <trkpt lat="29.5528597" lon="103.345421"><ele>2229.5</ele><time>2026-02-05T09:20:41.000Z</time></trkpt>
        <trkpt lat="29.552766" lon="103.3454409"><ele>2230.04</ele><time>2026-02-05T09:20:53.000Z</time></trkpt>
        <trkpt lat="29.5526753" lon="103.3454358"><ele>2230.56</ele><time>2026-02-05T09:21:03.000Z</time></trkpt>
        <trkpt lat="29.5525847" lon="103.3454298"><ele>2231.25</ele><time>2026-02-05T09:21:13.000Z</time></trkpt>
        <trkpt lat="29.5524928" lon="103.3454427"><ele>2232.65</ele><time>2026-02-05T09:21:25.000Z</time></trkpt>
        <trkpt lat="29.5523953" lon="103.3454449"><ele>2233.59</ele><time>2026-02-05T09:21:41.000Z</time></trkpt>
        <trkpt lat="29.5523604" lon="103.3453632"><ele>2233.76</ele><time>2026-02-05T09:21:55.000Z</time></trkpt>
        <trkpt lat="29.552372" lon="103.3452559"><ele>2231.89</ele><time>2026-02-05T09:22:09.000Z</time></trkpt>
        <trkpt lat="29.5523206" lon="103.3451883"><ele>2231.74</ele><time>2026-02-05T09:22:23.000Z</time></trkpt>
        <trkpt lat="29.5522364" lon="103.3451494"><ele>2230.99</ele><time>2026-02-05T09:22:35.000Z</time></trkpt>
        <trkpt lat="29.5521343" lon="103.3451317"><ele>2229.53</ele><time>2026-02-05T09:22:45.000Z</time></trkpt>
        <trkpt lat="29.552029" lon="103.3450958"><ele>2229.32</ele><time>2026-02-05T09:22:57.000Z</time></trkpt>
        <trkpt lat="29.5519672" lon="103.3450226"><ele>2228.66</ele><time>2026-02-05T09:23:07.000Z</time></trkpt>
        <trkpt lat="29.5519516" lon="103.3449205"><ele>2228.45</ele><time>2026-02-05T09:23:29.000Z</time></trkpt>
        <trkpt lat="29.5519205" lon="103.3448157"><ele>2227.12</ele><time>2026-02-05T09:23:39.000Z</time></trkpt>
        <trkpt lat="29.5518637" lon="103.3447191"><ele>2227.56</ele><time>2026-02-05T09:23:51.000Z</time></trkpt>
        <trkpt lat="29.5517992" lon="103.3446157"><ele>2225.92</ele><time>2026-02-05T09:24:01.000Z</time></trkpt>
        <trkpt lat="29.5517376" lon="103.3445216"><ele>2225.2</ele><time>2026-02-05T09:24:11.000Z</time></trkpt>
        <trkpt lat="29.5516713" lon="103.3444426"><ele>2224.12</ele><time>2026-02-05T09:24:21.000Z</time></trkpt>
        <trkpt lat="29.551607" lon="103.3443635"><ele>2225.6</ele><time>2026-02-05T09:24:31.000Z</time></trkpt>
        <trkpt lat="29.5515304" lon="103.3442905"><ele>2226.16</ele><time>2026-02-05T09:24:41.000Z</time></trkpt>
        <trkpt lat="29.5514407" lon="103.3442395"><ele>2226.04</ele><time>2026-02-05T09:24:51.000Z</time></trkpt>
        <trkpt lat="29.5513499" lon="103.3441963"><ele>2225.24</ele><time>2026-02-05T09:25:01.000Z</time></trkpt>
        <trkpt lat="29.5512559" lon="103.3441689"><ele>2225.43</ele><time>2026-02-05T09:25:11.000Z</time></trkpt>
        <trkpt lat="29.551154" lon="103.3441758"><ele>2223.78</ele><time>2026-02-05T09:25:21.000Z</time></trkpt>
        <trkpt lat="29.5510518" lon="103.3441773"><ele>2221.45</ele><time>2026-02-05T09:25:31.000Z</time></trkpt>
        <trkpt lat="29.5509616" lon="103.3441396"><ele>2218.98</ele><time>2026-02-05T09:25:41.000Z</time></trkpt>
        <trkpt lat="29.5508624" lon="103.3441224"><ele>2219.36</ele><time>2026-02-05T09:25:51.000Z</time></trkpt>
        <trkpt lat="29.5507633" lon="103.3440982"><ele>2218.56</ele><time>2026-02-05T09:26:01.000Z</time></trkpt>
        <trkpt lat="29.5507111" lon="103.3440058"><ele>2217.42</ele><time>2026-02-05T09:26:13.000Z</time></trkpt>
        <trkpt lat="29.5506433" lon="103.3439289"><ele>2218.26</ele><time>2026-02-05T09:26:27.000Z</time></trkpt>
        <trkpt lat="29.5505581" lon="103.3438786"><ele>2220.24</ele><time>2026-02-05T09:26:41.000Z</time></trkpt>
        <trkpt lat="29.5504897" lon="103.3437888"><ele>2221.76</ele><time>2026-02-05T09:26:53.000Z</time></trkpt>
        <trkpt lat="29.550424" lon="103.3436991"><ele>2222.63</ele><time>2026-02-05T09:27:03.000Z</time></trkpt>
        <trkpt lat="29.5503525" lon="103.3436175"><ele>2223.82</ele><time>2026-02-05T09:27:13.000Z</time></trkpt>
        <trkpt lat="29.5502841" lon="103.3435345"><ele>2224.32</ele><time>2026-02-05T09:27:25.000Z</time></trkpt>
        <trkpt lat="29.5502303" lon="103.3434346"><ele>2224.99</ele><time>2026-02-05T09:27:37.000Z</time></trkpt>
        <trkpt lat="29.5501736" lon="103.3433468"><ele>2224.77</ele><time>2026-02-05T09:27:47.000Z</time></trkpt>
        <trkpt lat="29.5501069" lon="103.3432736"><ele>2223.92</ele><time>2026-02-05T09:27:55.000Z</time></trkpt>
        <trkpt lat="29.5500402" lon="103.3432024"><ele>2223.82</ele><time>2026-02-05T09:28:03.000Z</time></trkpt>
        <trkpt lat="29.5499788" lon="103.3431229"><ele>2224.9</ele><time>2026-02-05T09:28:13.000Z</time></trkpt>
        <trkpt lat="29.5499242" lon="103.3430237"><ele>2226.32</ele><time>2026-02-05T09:28:25.000Z</time></trkpt>
        <trkpt lat="29.5498697" lon="103.3429167"><ele>2227.65</ele><time>2026-02-05T09:28:35.000Z</time></trkpt>
        <trkpt lat="29.5498281" lon="103.3428047"><ele>2228.74</ele><time>2026-02-05T09:28:45.000Z</time></trkpt>
        <trkpt lat="29.5497787" lon="103.3427013"><ele>2229.96</ele><time>2026-02-05T09:28:55.000Z</time></trkpt>
        <trkpt lat="29.5497219" lon="103.3426055"><ele>2230.36</ele><time>2026-02-05T09:29:05.000Z</time></trkpt>
        <trkpt lat="29.5496537" lon="103.3425223"><ele>2230.99</ele><time>2026-02-05T09:29:15.000Z</time></trkpt>
        <trkpt lat="29.5495864" lon="103.3424394"><ele>2231.08</ele><time>2026-02-05T09:29:25.000Z</time></trkpt>
        <trkpt lat="29.5495161" lon="103.3423635"><ele>2231.42</ele><time>2026-02-05T09:29:35.000Z</time></trkpt>
        <trkpt lat="29.5494453" lon="103.3422847"><ele>2232.04</ele><time>2026-02-05T09:29:45.000Z</time></trkpt>
        <trkpt lat="29.5493787" lon="103.3422041"><ele>2232.94</ele><time>2026-02-05T09:29:55.000Z</time></trkpt>
        <trkpt lat="29.5493333" lon="103.3421068"><ele>2233.43</ele><time>2026-02-05T09:30:09.000Z</time></trkpt>
        <trkpt lat="29.5493203" lon="103.3419924"><ele>2234.99</ele><time>2026-02-05T09:30:21.000Z</time></trkpt>
        <trkpt lat="29.5492719" lon="103.341901"><ele>2235.84</ele><time>2026-02-05T09:31:29.000Z</time></trkpt>
        <trkpt lat="29.5492883" lon="103.3417881"><ele>2235.28</ele><time>2026-02-05T09:48:26.000Z</time></trkpt>
        <trkpt lat="29.549254" lon="103.3416817"><ele>2236.23</ele><time>2026-02-05T09:48:36.000Z</time></trkpt>
        <trkpt lat="29.5492236" lon="103.3415675"><ele>2236.08</ele><time>2026-02-05T09:48:46.000Z</time></trkpt>
        <trkpt lat="29.5492179" lon="103.3414517"><ele>2235.59</ele><time>2026-02-05T09:48:56.000Z</time></trkpt>
        <trkpt lat="29.5492025" lon="103.3413412"><ele>2237.55</ele><time>2026-02-05T09:49:12.000Z</time></trkpt>
        <trkpt lat="29.5491295" lon="103.3412977"><ele>2240.35</ele><time>2026-02-05T09:49:38.000Z</time></trkpt>
        <trkpt lat="29.5490713" lon="103.3412237"><ele>2241.74</ele><time>2026-02-05T09:49:56.000Z</time></trkpt>
        <trkpt lat="29.5489863" lon="103.3411853"><ele>2243.55</ele><time>2026-02-05T09:50:10.000Z</time></trkpt>
        <trkpt lat="29.5488971" lon="103.3411541"><ele>2245.55</ele><time>2026-02-05T09:50:22.000Z</time></trkpt>
        <trkpt lat="29.5488017" lon="103.3411432"><ele>2247.04</ele><time>2026-02-05T09:50:44.000Z</time></trkpt>
        <trkpt lat="29.548704" lon="103.3411523"><ele>2249.26</ele><time>2026-02-05T09:51:12.000Z</time></trkpt>
        <trkpt lat="29.5486056" lon="103.3411676"><ele>2252.09</ele><time>2026-02-05T09:51:36.000Z</time></trkpt>
        <trkpt lat="29.5485158" lon="103.3411989"><ele>2256.05</ele><time>2026-02-05T09:52:00.000Z</time></trkpt>
        <trkpt lat="29.5484278" lon="103.3412354"><ele>2260.41</ele><time>2026-02-05T09:52:26.000Z</time></trkpt>
        <trkpt lat="29.5483386" lon="103.3412391"><ele>2262.9</ele><time>2026-02-05T09:52:58.000Z</time></trkpt>
        <trkpt lat="29.5482475" lon="103.341219"><ele>2267.76</ele><time>2026-02-05T09:53:26.000Z</time></trkpt>
        <trkpt lat="29.5481566" lon="103.3411955"><ele>2272.22</ele><time>2026-02-05T09:53:46.000Z</time></trkpt>
        <trkpt lat="29.5480587" lon="103.3411728"><ele>2275.75</ele><time>2026-02-05T09:54:00.000Z</time></trkpt>
        <trkpt lat="29.5479677" lon="103.3411856"><ele>2277.44</ele><time>2026-02-05T09:54:10.000Z</time></trkpt>
        <trkpt lat="29.5478721" lon="103.3411743"><ele>2279.18</ele><time>2026-02-05T09:54:22.000Z</time></trkpt>
        <trkpt lat="29.5477756" lon="103.3411386"><ele>2280.97</ele><time>2026-02-05T09:54:34.000Z</time></trkpt>
        <trkpt lat="29.5476753" lon="103.3411002"><ele>2280.66</ele><time>2026-02-05T09:54:46.000Z</time></trkpt>
        <trkpt lat="29.5475775" lon="103.3410785"><ele>2281.54</ele><time>2026-02-05T09:55:02.000Z</time></trkpt>
        <trkpt lat="29.5474835" lon="103.3410535"><ele>2282.8</ele><time>2026-02-05T09:55:16.000Z</time></trkpt>
        <trkpt lat="29.5473919" lon="103.3410223"><ele>2284.85</ele><time>2026-02-05T09:55:40.000Z</time></trkpt>
        <trkpt lat="29.5473184" lon="103.3409567"><ele>2287.7</ele><time>2026-02-05T09:56:02.000Z</time></trkpt>
        <trkpt lat="29.5472655" lon="103.3408695"><ele>2290.9</ele><time>2026-02-05T09:56:14.000Z</time></trkpt>
        <trkpt lat="29.5472118" lon="103.3407731"><ele>2292.49</ele><time>2026-02-05T09:56:26.000Z</time></trkpt>
        <trkpt lat="29.5471559" lon="103.3406688"><ele>2293.38</ele><time>2026-02-05T09:56:38.000Z</time></trkpt>
        <trkpt lat="29.547139" lon="103.3405607"><ele>2295.29</ele><time>2026-02-05T09:57:02.000Z</time></trkpt>
        <trkpt lat="29.5471406" lon="103.3404501"><ele>2298.51</ele><time>2026-02-05T09:57:20.000Z</time></trkpt>
        <trkpt lat="29.5471142" lon="103.3403512"><ele>2304.67</ele><time>2026-02-05T09:57:56.000Z</time></trkpt>
        <trkpt lat="29.547087" lon="103.3402536"><ele>2309.56</ele><time>2026-02-05T09:59:00.000Z</time></trkpt>
        <trkpt lat="29.5470284" lon="103.3401742"><ele>2314.6</ele><time>2026-02-05T09:59:32.000Z</time></trkpt>
        <trkpt lat="29.5470648" lon="103.3400864"><ele>2317.66</ele><time>2026-02-05T10:00:02.000Z</time></trkpt>
        <trkpt lat="29.5470485" lon="103.3399881"><ele>2322.37</ele><time>2026-02-05T10:00:38.000Z</time></trkpt>
        <trkpt lat="29.5470437" lon="103.3398802"><ele>2326.4</ele><time>2026-02-05T10:01:04.000Z</time></trkpt>
        <trkpt lat="29.5470544" lon="103.3397712"><ele>2330.81</ele><time>2026-02-05T10:02:48.000Z</time></trkpt>
        <trkpt lat="29.5470166" lon="103.3396684"><ele>2335.62</ele><time>2026-02-05T10:03:31.000Z</time></trkpt>
        <trkpt lat="29.5469435" lon="103.3396066"><ele>2339.13</ele><time>2026-02-05T10:03:51.000Z</time></trkpt>
        <trkpt lat="29.5468745" lon="103.3395361"><ele>2342.61</ele><time>2026-02-05T10:04:48.000Z</time></trkpt>
        <trkpt lat="29.5468298" lon="103.3394459"><ele>2346.49</ele><time>2026-02-05T10:05:22.000Z</time></trkpt>
        <trkpt lat="29.5467865" lon="103.3393488"><ele>2350.93</ele><time>2026-02-05T10:06:08.000Z</time></trkpt>
        <trkpt lat="29.5467321" lon="103.339264"><ele>2356.06</ele><time>2026-02-05T10:07:02.000Z</time></trkpt>
        <trkpt lat="29.5466726" lon="103.3391821"><ele>2360.35</ele><time>2026-02-05T10:07:28.000Z</time></trkpt>
        <trkpt lat="29.5466116" lon="103.3391047"><ele>2365.79</ele><time>2026-02-05T10:08:20.000Z</time></trkpt>
        <trkpt lat="29.5465569" lon="103.3390159"><ele>2370.85</ele><time>2026-02-05T10:09:10.000Z</time></trkpt>
        <trkpt lat="29.5464963" lon="103.3389345"><ele>2375.56</ele><time>2026-02-05T10:09:53.000Z</time></trkpt>
        <trkpt lat="29.5464417" lon="103.3388435"><ele>2379.04</ele><time>2026-02-05T10:10:11.000Z</time></trkpt>
        <trkpt lat="29.5463705" lon="103.3387798"><ele>2382.07</ele><time>2026-02-05T10:10:59.000Z</time></trkpt>
        <trkpt lat="29.5462951" lon="103.3387156"><ele>2385.55</ele><time>2026-02-05T10:11:47.000Z</time></trkpt>
        <trkpt lat="29.5462486" lon="103.3386276"><ele>2390.76</ele><time>2026-02-05T10:12:07.000Z</time></trkpt>
        <trkpt lat="29.5461979" lon="103.3385406"><ele>2395.5</ele><time>2026-02-05T10:12:29.000Z</time></trkpt>
        <trkpt lat="29.5461685" lon="103.3384399"><ele>2399.01</ele><time>2026-02-05T10:13:05.000Z</time></trkpt>
        <trkpt lat="29.5461464" lon="103.3383376"><ele>2401.92</ele><time>2026-02-05T10:13:21.000Z</time></trkpt>
        <trkpt lat="29.546154" lon="103.3382301"><ele>2405.22</ele><time>2026-02-05T10:13:39.000Z</time></trkpt>
        <trkpt lat="29.5462008" lon="103.3381345"><ele>2408.13</ele><time>2026-02-05T10:14:33.000Z</time></trkpt>
        <trkpt lat="29.5462196" lon="103.3380317"><ele>2412.82</ele><time>2026-02-05T10:15:13.000Z</time></trkpt>
        <trkpt lat="29.5462507" lon="103.3379324"><ele>2417.39</ele><time>2026-02-05T10:15:31.000Z</time></trkpt>
        <trkpt lat="29.5463084" lon="103.3378502"><ele>2419.56</ele><time>2026-02-05T10:16:05.000Z</time></trkpt>
        <trkpt lat="29.5463645" lon="103.3377531"><ele>2420.26</ele><time>2026-02-05T10:16:23.000Z</time></trkpt>
        <trkpt lat="29.5463979" lon="103.3376465"><ele>2420.82</ele><time>2026-02-05T10:16:39.000Z</time></trkpt>
        <trkpt lat="29.54643" lon="103.3375398"><ele>2422.14</ele><time>2026-02-05T10:17:01.000Z</time></trkpt>
        <trkpt lat="29.5464876" lon="103.3374557"><ele>2422.65</ele><time>2026-02-05T10:17:31.000Z</time></trkpt>
        <trkpt lat="29.5465459" lon="103.3373612"><ele>2422.67</ele><time>2026-02-05T10:17:45.000Z</time></trkpt>
        <trkpt lat="29.5465832" lon="103.337262"><ele>2423.05</ele><time>2026-02-05T10:17:57.000Z</time></trkpt>
        <trkpt lat="29.5465943" lon="103.3371581"><ele>2423.67</ele><time>2026-02-05T10:18:09.000Z</time></trkpt>
        <trkpt lat="29.5465847" lon="103.3370469"><ele>2424.79</ele><time>2026-02-05T10:18:23.000Z</time></trkpt>
        <trkpt lat="29.5465177" lon="103.3369718"><ele>2425.44</ele><time>2026-02-05T10:18:35.000Z</time></trkpt>
        <trkpt lat="29.5464598" lon="103.3368701"><ele>2424.68</ele><time>2026-02-05T10:18:53.000Z</time></trkpt>
        <trkpt lat="29.5464244" lon="103.3367597"><ele>2422.53</ele><time>2026-02-05T10:19:05.000Z</time></trkpt>
        <trkpt lat="29.5464174" lon="103.3366378"><ele>2420.75</ele><time>2026-02-05T10:19:19.000Z</time></trkpt>
        <trkpt lat="29.546439" lon="103.3365175"><ele>2419.4</ele><time>2026-02-05T10:19:33.000Z</time></trkpt>
        <trkpt lat="29.5464852" lon="103.336411"><ele>2417.29</ele><time>2026-02-05T10:19:51.000Z</time></trkpt>
        <trkpt lat="29.5465024" lon="103.3363068"><ele>2415.39</ele><time>2026-02-05T10:20:09.000Z</time></trkpt>
        <trkpt lat="29.5464992" lon="103.3361914"><ele>2414.05</ele><time>2026-02-05T10:20:23.000Z</time></trkpt>
        <trkpt lat="29.546537" lon="103.3360911"><ele>2411.97</ele><time>2026-02-05T10:20:52.000Z</time></trkpt>
        <trkpt lat="29.5465734" lon="103.3359834"><ele>2409.94</ele><time>2026-02-05T10:21:04.000Z</time></trkpt>
        <trkpt lat="29.5466093" lon="103.335874"><ele>2407.93</ele><time>2026-02-05T10:21:18.000Z</time></trkpt>
        <trkpt lat="29.5466445" lon="103.3357623"><ele>2406.08</ele><time>2026-02-05T10:21:28.000Z</time></trkpt>
        <trkpt lat="29.5466631" lon="103.3356428"><ele>2404.53</ele><time>2026-02-05T10:21:40.000Z</time></trkpt>
        <trkpt lat="29.5466958" lon="103.3355315"><ele>2402.64</ele><time>2026-02-05T10:21:50.000Z</time></trkpt>
        <trkpt lat="29.5467298" lon="103.335417"><ele>2401.32</ele><time>2026-02-05T10:22:00.000Z</time></trkpt>
        <trkpt lat="29.5467588" lon="103.3353071"><ele>2400.44</ele><time>2026-02-05T10:22:10.000Z</time></trkpt>
        <trkpt lat="29.5467896" lon="103.3351983"><ele>2400.15</ele><time>2026-02-05T10:22:24.000Z</time></trkpt>
        <trkpt lat="29.5467957" lon="103.3350935"><ele>2400.1</ele><time>2026-02-05T10:22:36.000Z</time></trkpt>
        <trkpt lat="29.5467608" lon="103.3349942"><ele>2399.66</ele><time>2026-02-05T10:22:48.000Z</time></trkpt>
        <trkpt lat="29.5467432" lon="103.3349652"><ele>2398.83</ele><time>2026-02-05T10:22:52.000Z</time></trkpt>
        <trkpt lat="29.5466707" lon="103.3349531"><ele>2398.35</ele><time>2026-02-05T10:23:42.000Z</time></trkpt>
        <trkpt lat="29.5465868" lon="103.3349123"><ele>2395.91</ele><time>2026-02-05T10:23:52.000Z</time></trkpt>
        <trkpt lat="29.546493" lon="103.3348591"><ele>2393.78</ele><time>2026-02-05T10:24:06.000Z</time></trkpt>
        <trkpt lat="29.546396" lon="103.3348179"><ele>2392.9</ele><time>2026-02-05T10:24:26.000Z</time></trkpt>
        <trkpt lat="29.5463033" lon="103.3347806"><ele>2392.45</ele><time>2026-02-05T10:24:46.000Z</time></trkpt>
        <trkpt lat="29.5462119" lon="103.33475"><ele>2393.58</ele><time>2026-02-05T10:25:08.000Z</time></trkpt>
        <trkpt lat="29.5461124" lon="103.334763"><ele>2395.9</ele><time>2026-02-05T10:25:22.000Z</time></trkpt>
        <trkpt lat="29.5460196" lon="103.3347509"><ele>2397.02</ele><time>2026-02-05T10:25:34.000Z</time></trkpt>
        <trkpt lat="29.5459256" lon="103.3347291"><ele>2397.21</ele><time>2026-02-05T10:25:50.000Z</time></trkpt>
        <trkpt lat="29.5458592" lon="103.3346541"><ele>2396.63</ele><time>2026-02-05T10:26:10.000Z</time></trkpt>
        <trkpt lat="29.5458027" lon="103.3345529"><ele>2394.79</ele><time>2026-02-05T10:26:24.000Z</time></trkpt>
        <trkpt lat="29.5457293" lon="103.334491"><ele>2392.9</ele><time>2026-02-05T10:26:36.000Z</time></trkpt>
        <trkpt lat="29.5456441" lon="103.334439"><ele>2391.04</ele><time>2026-02-05T10:26:48.000Z</time></trkpt>
        <trkpt lat="29.5455522" lon="103.3343937"><ele>2389.26</ele><time>2026-02-05T10:27:02.000Z</time></trkpt>
        <trkpt lat="29.5454599" lon="103.3343492"><ele>2387.02</ele><time>2026-02-05T10:27:18.000Z</time></trkpt>
        <trkpt lat="29.5453679" lon="103.334311"><ele>2385.28</ele><time>2026-02-05T10:27:42.000Z</time></trkpt>
        <trkpt lat="29.5452921" lon="103.3342525"><ele>2387.61</ele><time>2026-02-05T10:27:52.000Z</time></trkpt>
        <trkpt lat="29.5452266" lon="103.3341716"><ele>2390.39</ele><time>2026-02-05T10:28:08.000Z</time></trkpt>
        <trkpt lat="29.545165" lon="103.3340914"><ele>2391.24</ele><time>2026-02-05T10:28:24.000Z</time></trkpt>
        <trkpt lat="29.5450766" lon="103.3340566"><ele>2392.77</ele><time>2026-02-05T10:28:36.000Z</time></trkpt>
        <trkpt lat="29.5449787" lon="103.3340439"><ele>2392.67</ele><time>2026-02-05T10:28:48.000Z</time></trkpt>
        <trkpt lat="29.5448775" lon="103.3340346"><ele>2392.61</ele><time>2026-02-05T10:29:00.000Z</time></trkpt>
        <trkpt lat="29.5447845" lon="103.3340742"><ele>2392.46</ele><time>2026-02-05T10:29:10.000Z</time></trkpt>
        <trkpt lat="29.5447103" lon="103.3341582"><ele>2391.53</ele><time>2026-02-05T10:29:20.000Z</time></trkpt>
        <trkpt lat="29.5446342" lon="103.334225"><ele>2390.06</ele><time>2026-02-05T10:29:30.000Z</time></trkpt>
        <trkpt lat="29.5445427" lon="103.334227"><ele>2389.52</ele><time>2026-02-05T10:29:42.000Z</time></trkpt>
        <trkpt lat="29.5444459" lon="103.3341935"><ele>2389.11</ele><time>2026-02-05T10:29:54.000Z</time></trkpt>
        <trkpt lat="29.5443482" lon="103.3341765"><ele>2388.96</ele><time>2026-02-05T10:30:04.000Z</time></trkpt>
        <trkpt lat="29.5442514" lon="103.3341665"><ele>2389.04</ele><time>2026-02-05T10:30:16.000Z</time></trkpt>
        <trkpt lat="29.5441516" lon="103.3341575"><ele>2388.96</ele><time>2026-02-05T10:30:30.000Z</time></trkpt>
        <trkpt lat="29.5440554" lon="103.3341271"><ele>2390.03</ele><time>2026-02-05T10:30:42.000Z</time></trkpt>
        <trkpt lat="29.5439748" lon="103.3340604"><ele>2390.49</ele><time>2026-02-05T10:30:54.000Z</time></trkpt>
        <trkpt lat="29.5439015" lon="103.3339738"><ele>2390.43</ele><time>2026-02-05T10:31:06.000Z</time></trkpt>
        <trkpt lat="29.5438142" lon="103.3339113"><ele>2391.08</ele><time>2026-02-05T10:31:18.000Z</time></trkpt>
        <trkpt lat="29.5437157" lon="103.333914"><ele>2390.67</ele><time>2026-02-05T10:31:30.000Z</time></trkpt>
        <trkpt lat="29.543618" lon="103.3338885"><ele>2390.1</ele><time>2026-02-05T10:31:42.000Z</time></trkpt>
        <trkpt lat="29.5435517" lon="103.3338107"><ele>2389.75</ele><time>2026-02-05T10:31:54.000Z</time></trkpt>
        <trkpt lat="29.5434947" lon="103.3337202"><ele>2389.93</ele><time>2026-02-05T10:32:06.000Z</time></trkpt>
        <trkpt lat="29.543425" lon="103.3336467"><ele>2390.8</ele><time>2026-02-05T10:32:22.000Z</time></trkpt>
        <trkpt lat="29.5433636" lon="103.3335638"><ele>2391.39</ele><time>2026-02-05T10:32:38.000Z</time></trkpt>
        <trkpt lat="29.5433421" lon="103.3334516"><ele>2390.89</ele><time>2026-02-05T10:32:50.000Z</time></trkpt>
        <trkpt lat="29.5433286" lon="103.3333411"><ele>2388.99</ele><time>2026-02-05T10:33:00.000Z</time></trkpt>
        <trkpt lat="29.5433101" lon="103.3332269"><ele>2387.78</ele><time>2026-02-05T10:33:12.000Z</time></trkpt>
        <trkpt lat="29.5432419" lon="103.333149"><ele>2386.76</ele><time>2026-02-05T10:33:24.000Z</time></trkpt>
        <trkpt lat="29.543193" lon="103.3330566"><ele>2385.22</ele><time>2026-02-05T10:33:38.000Z</time></trkpt>
        <trkpt lat="29.5431257" lon="103.3329757"><ele>2386.62</ele><time>2026-02-05T10:33:52.000Z</time></trkpt>
        <trkpt lat="29.5430289" lon="103.3329533"><ele>2387.26</ele><time>2026-02-05T10:34:02.000Z</time></trkpt>
        <trkpt lat="29.5429329" lon="103.3329309"><ele>2386.81</ele><time>2026-02-05T10:34:12.000Z</time></trkpt>
        <trkpt lat="29.542851" lon="103.3328844"><ele>2386.85</ele><time>2026-02-05T10:34:22.000Z</time></trkpt>
        <trkpt lat="29.5427889" lon="103.332794"><ele>2386.63</ele><time>2026-02-05T10:34:34.000Z</time></trkpt>
        <trkpt lat="29.5427349" lon="103.3326854"><ele>2386.09</ele><time>2026-02-05T10:34:46.000Z</time></trkpt>
        <trkpt lat="29.5426746" lon="103.3326322"><ele>2386.61</ele><time>2026-02-05T10:34:56.000Z</time></trkpt>
        <trkpt lat="29.5425896" lon="103.3326079"><ele>2386.68</ele><time>2026-02-05T10:35:08.000Z</time></trkpt>
        <trkpt lat="29.5425281" lon="103.3325283"><ele>2385.54</ele><time>2026-02-05T10:35:18.000Z</time></trkpt>
        <trkpt lat="29.5425228" lon="103.3324192"><ele>2384.82</ele><time>2026-02-05T10:35:30.000Z</time></trkpt>
        <trkpt lat="29.5424841" lon="103.332323"><ele>2385.22</ele><time>2026-02-05T10:35:44.000Z</time></trkpt>
        <trkpt lat="29.5424372" lon="103.3322315"><ele>2385.37</ele><time>2026-02-05T10:35:54.000Z</time></trkpt>
        <trkpt lat="29.5423799" lon="103.3321336"><ele>2384.54</ele><time>2026-02-05T10:36:04.000Z</time></trkpt>
        <trkpt lat="29.5423008" lon="103.3320596"><ele>2383.72</ele><time>2026-02-05T10:36:14.000Z</time></trkpt>
        <trkpt lat="29.5422233" lon="103.3319941"><ele>2384.3</ele><time>2026-02-05T10:36:24.000Z</time></trkpt>
        <trkpt lat="29.5421265" lon="103.3319798"><ele>2384.55</ele><time>2026-02-05T10:36:36.000Z</time></trkpt>
        <trkpt lat="29.5420301" lon="103.3319762"><ele>2384.42</ele><time>2026-02-05T10:36:54.000Z</time></trkpt>
        <trkpt lat="29.541957" lon="103.3320415"><ele>2383.96</ele><time>2026-02-05T10:37:10.000Z</time></trkpt>
        <trkpt lat="29.541871" lon="103.3320465"><ele>2383.35</ele><time>2026-02-05T10:37:39.000Z</time></trkpt>
        <trkpt lat="29.5417746" lon="103.3320504"><ele>2382.55</ele><time>2026-02-05T10:37:51.000Z</time></trkpt>
        <trkpt lat="29.5417395" lon="103.3320859"><ele>2381.82</ele><time>2026-02-05T10:37:57.000Z</time></trkpt>
        <trkpt lat="29.5416722" lon="103.3320695"><ele>2380.91</ele><time>2026-02-05T10:38:43.000Z</time></trkpt>
        <trkpt lat="29.5416525" lon="103.3319829"><ele>2379.93</ele><time>2026-02-05T10:38:53.000Z</time></trkpt>
        <trkpt lat="29.5417061" lon="103.331883"><ele>2379.92</ele><time>2026-02-05T10:39:05.000Z</time></trkpt>
        <trkpt lat="29.541773" lon="103.3317837"><ele>2380.54</ele><time>2026-02-05T10:39:15.000Z</time></trkpt>
        <trkpt lat="29.5417965" lon="103.331677"><ele>2381.14</ele><time>2026-02-05T10:39:25.000Z</time></trkpt>
        <trkpt lat="29.5417329" lon="103.3316452"><ele>2381.76</ele><time>2026-02-05T10:39:35.000Z</time></trkpt>
        <trkpt lat="29.5416377" lon="103.3316716"><ele>2382.39</ele><time>2026-02-05T10:39:45.000Z</time></trkpt>
        <trkpt lat="29.5415358" lon="103.3317015"><ele>2382.77</ele><time>2026-02-05T10:39:55.000Z</time></trkpt>
        <trkpt lat="29.5414369" lon="103.331722"><ele>2383.38</ele><time>2026-02-05T10:40:05.000Z</time></trkpt>
        <trkpt lat="29.541339" lon="103.3317433"><ele>2384.17</ele><time>2026-02-05T10:40:15.000Z</time></trkpt>
        <trkpt lat="29.5412472" lon="103.3317705"><ele>2384.76</ele><time>2026-02-05T10:40:25.000Z</time></trkpt>
        <trkpt lat="29.5411956" lon="103.331789"><ele>2385.1</ele><time>2026-02-05T10:40:33.000Z</time></trkpt>
        <trkpt lat="29.5411116" lon="103.3317907"><ele>2385.69</ele><time>2026-02-05T10:40:53.000Z</time></trkpt>
        <trkpt lat="29.5410159" lon="103.3317811"><ele>2385.84</ele><time>2026-02-05T10:41:17.000Z</time></trkpt>
        <trkpt lat="29.5409138" lon="103.3317774"><ele>2387.13</ele><time>2026-02-05T10:41:41.000Z</time></trkpt>
        <trkpt lat="29.5408188" lon="103.3317459"><ele>2388.7</ele><time>2026-02-05T10:41:53.000Z</time></trkpt>
        <trkpt lat="29.5407257" lon="103.3317233"><ele>2390.13</ele><time>2026-02-05T10:42:09.000Z</time></trkpt>
        <trkpt lat="29.5406355" lon="103.3317442"><ele>2391.46</ele><time>2026-02-05T10:42:21.000Z</time></trkpt>
        <trkpt lat="29.5405508" lon="103.3317946"><ele>2392.27</ele><time>2026-02-05T10:42:33.000Z</time></trkpt>
        <trkpt lat="29.540462" lon="103.3318568"><ele>2392.43</ele><time>2026-02-05T10:42:47.000Z</time></trkpt>
        <trkpt lat="29.5403791" lon="103.3319154"><ele>2393.02</ele><time>2026-02-05T10:42:59.000Z</time></trkpt>
        <trkpt lat="29.5402896" lon="103.3319626"><ele>2393.77</ele><time>2026-02-05T10:43:11.000Z</time></trkpt>
        <trkpt lat="29.5402081" lon="103.3320226"><ele>2394.35</ele><time>2026-02-05T10:43:23.000Z</time></trkpt>
        <trkpt lat="29.5402178" lon="103.3321134"><ele>2394.77</ele><time>2026-02-05T10:44:13.000Z</time></trkpt>
        <trkpt lat="29.5401775" lon="103.3321199"><ele>2393.23</ele><time>2026-02-05T10:44:19.000Z</time></trkpt>
        <trkpt lat="29.5402201" lon="103.332168"><ele>2394.44</ele><time>2026-02-05T10:44:53.000Z</time></trkpt>
        <trkpt lat="29.5402763" lon="103.3322496"><ele>2392.72</ele><time>2026-02-05T10:45:36.000Z</time></trkpt>
        <trkpt lat="29.5402258" lon="103.332133"><ele>2390.53</ele><time>2026-02-05T10:46:38.000Z</time></trkpt>
        <trkpt lat="29.5401361" lon="103.332111"><ele>2388.52</ele><time>2026-02-05T10:47:30.000Z</time></trkpt>
        <trkpt lat="29.5401236" lon="103.3320113"><ele>2391.09</ele><time>2026-02-05T10:47:56.000Z</time></trkpt>
        <trkpt lat="29.5400369" lon="103.3319816"><ele>2390.64</ele><time>2026-02-05T10:48:08.000Z</time></trkpt>
        <trkpt lat="29.5399335" lon="103.3319483"><ele>2390.1</ele><time>2026-02-05T10:48:18.000Z</time></trkpt>
        <trkpt lat="29.5398473" lon="103.3319942"><ele>2387.2</ele><time>2026-02-05T10:48:24.000Z</time></trkpt>
        <trkpt lat="29.5398054" lon="103.3320928"><ele>2383.56</ele><time>2026-02-05T10:48:30.000Z</time></trkpt>
        <trkpt lat="29.5398054" lon="103.3320928"><ele>2383.56</ele><time>2026-02-05T10:49:33.000Z</time></trkpt>
      </trkseg>
      <trkseg>
        <trkpt lat="29.5391464" lon="103.3328111"><ele>2379.89</ele><time>2026-02-05T11:55:27.000Z</time></trkpt>
        <trkpt lat="29.5391464" lon="103.3328111"><ele>2379.89</ele><time>2026-02-05T11:55:54.000Z</time></trkpt>
        <trkpt lat="29.5390579" lon="103.3328718"><ele>2392.78</ele><time>2026-02-05T11:56:04.000Z</time></trkpt>
        <trkpt lat="29.5389824" lon="103.3329425"><ele>2400.69</ele><time>2026-02-05T11:56:14.000Z</time></trkpt>
        <trkpt lat="29.5389094" lon="103.3330094"><ele>2405.39</ele><time>2026-02-05T11:56:26.000Z</time></trkpt>
        <trkpt lat="29.5388186" lon="103.3330592"><ele>2408.13</ele><time>2026-02-05T11:56:38.000Z</time></trkpt>
        <trkpt lat="29.5387298" lon="103.333109"><ele>2409.84</ele><time>2026-02-05T11:56:48.000Z</time></trkpt>
        <trkpt lat="29.5386407" lon="103.333147"><ele>2411.01</ele><time>2026-02-05T11:57:04.000Z</time></trkpt>
        <trkpt lat="29.538551" lon="103.3331706"><ele>2411.9</ele><time>2026-02-05T11:57:18.000Z</time></trkpt>
        <trkpt lat="29.5384502" lon="103.3331785"><ele>2412.82</ele><time>2026-02-05T11:57:32.000Z</time></trkpt>
        <trkpt lat="29.5383435" lon="103.3331807"><ele>2414.28</ele><time>2026-02-05T11:57:46.000Z</time></trkpt>
        <trkpt lat="29.5382437" lon="103.3332091"><ele>2415.1</ele><time>2026-02-05T11:58:00.000Z</time></trkpt>
        <trkpt lat="29.5381579" lon="103.3332734"><ele>2415.84</ele><time>2026-02-05T11:58:12.000Z</time></trkpt>
        <trkpt lat="29.5380791" lon="103.333345"><ele>2416.69</ele><time>2026-02-05T11:58:22.000Z</time></trkpt>
        <trkpt lat="29.5379918" lon="103.3334085"><ele>2417.25</ele><time>2026-02-05T11:58:32.000Z</time></trkpt>
        <trkpt lat="29.5379087" lon="103.3334591"><ele>2417.43</ele><time>2026-02-05T11:58:42.000Z</time></trkpt>
        <trkpt lat="29.5378222" lon="103.3334862"><ele>2417.13</ele><time>2026-02-05T11:59:14.000Z</time></trkpt>
        <trkpt lat="29.5377401" lon="103.3335312"><ele>2416.96</ele><time>2026-02-05T11:59:26.000Z</time></trkpt>
        <trkpt lat="29.5377016" lon="103.3336202"><ele>2417.13</ele><time>2026-02-05T11:59:38.000Z</time></trkpt>
        <trkpt lat="29.5376461" lon="103.3336989"><ele>2418.02</ele><time>2026-02-05T11:59:50.000Z</time></trkpt>
        <trkpt lat="29.5375626" lon="103.3337543"><ele>2419.8</ele><time>2026-02-05T12:00:04.000Z</time></trkpt>
        <trkpt lat="29.5374633" lon="103.3337595"><ele>2422.24</ele><time>2026-02-05T12:00:20.000Z</time></trkpt>
        <trkpt lat="29.5373661" lon="103.3337513"><ele>2424.19</ele><time>2026-02-05T12:00:32.000Z</time></trkpt>
        <trkpt lat="29.5372817" lon="103.3338017"><ele>2425.14</ele><time>2026-02-05T12:00:44.000Z</time></trkpt>
        <trkpt lat="29.5372223" lon="103.3338838"><ele>2427.04</ele><time>2026-02-05T12:00:58.000Z</time></trkpt>
        <trkpt lat="29.5371911" lon="103.3339904"><ele>2429.41</ele><time>2026-02-05T12:01:18.000Z</time></trkpt>
        <trkpt lat="29.5371571" lon="103.3340929"><ele>2432.5</ele><time>2026-02-05T12:01:38.000Z</time></trkpt>
        <trkpt lat="29.5370821" lon="103.3341497"><ele>2434.01</ele><time>2026-02-05T12:01:50.000Z</time></trkpt>
        <trkpt lat="29.5369933" lon="103.3341936"><ele>2435.09</ele><time>2026-02-05T12:02:04.000Z</time></trkpt>
        <trkpt lat="29.5368913" lon="103.334223"><ele>2437.13</ele><time>2026-02-05T12:02:20.000Z</time></trkpt>
        <trkpt lat="29.5367987" lon="103.3342662"><ele>2438.78</ele><time>2026-02-05T12:02:44.000Z</time></trkpt>
        <trkpt lat="29.5367105" lon="103.3343017"><ele>2441.89</ele><time>2026-02-05T12:03:02.000Z</time></trkpt>
        <trkpt lat="29.5366122" lon="103.3343338"><ele>2444.41</ele><time>2026-02-05T12:03:18.000Z</time></trkpt>
        <trkpt lat="29.5365148" lon="103.3343341"><ele>2445.31</ele><time>2026-02-05T12:03:34.000Z</time></trkpt>
        <trkpt lat="29.5364188" lon="103.3343062"><ele>2445.92</ele><time>2026-02-05T12:03:50.000Z</time></trkpt>
        <trkpt lat="29.5363265" lon="103.334315"><ele>2445.83</ele><time>2026-02-05T12:04:24.000Z</time></trkpt>
        <trkpt lat="29.5362329" lon="103.3343151"><ele>2446.84</ele><time>2026-02-05T12:04:44.000Z</time></trkpt>
        <trkpt lat="29.5361398" lon="103.3342746"><ele>2448.81</ele><time>2026-02-05T12:04:58.000Z</time></trkpt>
        <trkpt lat="29.5360527" lon="103.3342206"><ele>2448.85</ele><time>2026-02-05T12:05:12.000Z</time></trkpt>
        <trkpt lat="29.5359701" lon="103.3341618"><ele>2451.28</ele><time>2026-02-05T12:05:30.000Z</time></trkpt>
        <trkpt lat="29.535886" lon="103.3341091"><ele>2454.25</ele><time>2026-02-05T12:05:50.000Z</time></trkpt>
        <trkpt lat="29.5358108" lon="103.3340416"><ele>2456.73</ele><time>2026-02-05T12:06:18.000Z</time></trkpt>
        <trkpt lat="29.5357291" lon="103.3339984"><ele>2457.87</ele><time>2026-02-05T12:06:30.000Z</time></trkpt>
        <trkpt lat="29.5356443" lon="103.3339648"><ele>2459.41</ele><time>2026-02-05T12:06:42.000Z</time></trkpt>
        <trkpt lat="29.5355852" lon="103.3338883"><ele>2460.78</ele><time>2026-02-05T12:07:04.000Z</time></trkpt>
        <trkpt lat="29.5355286" lon="103.3338062"><ele>2462.94</ele><time>2026-02-05T12:07:28.000Z</time></trkpt>
        <trkpt lat="29.5354624" lon="103.3337311"><ele>2466.23</ele><time>2026-02-05T12:07:42.000Z</time></trkpt>
        <trkpt lat="29.5354071" lon="103.3336379"><ele>2467.85</ele><time>2026-02-05T12:07:54.000Z</time></trkpt>
        <trkpt lat="29.535352" lon="103.3335383"><ele>2468.26</ele><time>2026-02-05T12:08:06.000Z</time></trkpt>
        <trkpt lat="29.5352996" lon="103.3334458"><ele>2468.78</ele><time>2026-02-05T12:08:22.000Z</time></trkpt>
        <trkpt lat="29.5352553" lon="103.3333485"><ele>2471.63</ele><time>2026-02-05T12:08:56.000Z</time></trkpt>
        <trkpt lat="29.5352189" lon="103.3332452"><ele>2473.88</ele><time>2026-02-05T12:09:18.000Z</time></trkpt>
        <trkpt lat="29.5351881" lon="103.3331424"><ele>2476.72</ele><time>2026-02-05T12:09:42.000Z</time></trkpt>
        <trkpt lat="29.53515" lon="103.333042"><ele>2479.58</ele><time>2026-02-05T12:10:12.000Z</time></trkpt>
        <trkpt lat="29.5351021" lon="103.3329469"><ele>2483.71</ele><time>2026-02-05T12:10:34.000Z</time></trkpt>
        <trkpt lat="29.5350441" lon="103.3328651"><ele>2487.02</ele><time>2026-02-05T12:10:50.000Z</time></trkpt>
        <trkpt lat="29.5349621" lon="103.3328217"><ele>2489.05</ele><time>2026-02-05T12:11:02.000Z</time></trkpt>
        <trkpt lat="29.534877" lon="103.3328559"><ele>2489.87</ele><time>2026-02-05T12:11:16.000Z</time></trkpt>
        <trkpt lat="29.5349023" lon="103.332939"><ele>2490.71</ele><time>2026-02-05T12:11:50.000Z</time></trkpt>
        <trkpt lat="29.5349285" lon="103.3330164"><ele>2490.61</ele><time>2026-02-05T12:12:04.000Z</time></trkpt>
        <trkpt lat="29.5348913" lon="103.3330941"><ele>2490.94</ele><time>2026-02-05T12:12:18.000Z</time></trkpt>
        <trkpt lat="29.5348566" lon="103.3331969"><ele>2491.26</ele><time>2026-02-05T12:12:32.000Z</time></trkpt>
        <trkpt lat="29.5348077" lon="103.333308"><ele>2491.57</ele><time>2026-02-05T12:12:44.000Z</time></trkpt>
        <trkpt lat="29.534772" lon="103.3334136"><ele>2492.28</ele><time>2026-02-05T12:12:54.000Z</time></trkpt>
        <trkpt lat="29.5346916" lon="103.3334645"><ele>2492.7</ele><time>2026-02-05T12:13:24.000Z</time></trkpt>
        <trkpt lat="29.5347574" lon="103.3333975"><ele>2492.61</ele><time>2026-02-05T12:15:28.000Z</time></trkpt>
        <trkpt lat="29.5348035" lon="103.3332919"><ele>2491.75</ele><time>2026-02-05T12:15:40.000Z</time></trkpt>
        <trkpt lat="29.5348414" lon="103.3331909"><ele>2491.47</ele><time>2026-02-05T12:15:52.000Z</time></trkpt>
        <trkpt lat="29.5348743" lon="103.3330893"><ele>2491.55</ele><time>2026-02-05T12:16:04.000Z</time></trkpt>
        <trkpt lat="29.5348519" lon="103.332983"><ele>2491.55</ele><time>2026-02-05T12:16:16.000Z</time></trkpt>
        <trkpt lat="29.5347682" lon="103.3329433"><ele>2491.43</ele><time>2026-02-05T12:17:10.000Z</time></trkpt>
        <trkpt lat="29.5346693" lon="103.3329608"><ele>2491.92</ele><time>2026-02-05T12:17:42.000Z</time></trkpt>
        <trkpt lat="29.5345703" lon="103.3329899"><ele>2495.25</ele><time>2026-02-05T12:18:02.000Z</time></trkpt>
        <trkpt lat="29.5344748" lon="103.3330203"><ele>2498.31</ele><time>2026-02-05T12:18:18.000Z</time></trkpt>
        <trkpt lat="29.5343913" lon="103.3330754"><ele>2500.34</ele><time>2026-02-05T12:18:32.000Z</time></trkpt>
        <trkpt lat="29.5343086" lon="103.3331356"><ele>2502.74</ele><time>2026-02-05T12:18:52.000Z</time></trkpt>
        <trkpt lat="29.5342211" lon="103.3331317"><ele>2506.15</ele><time>2026-02-05T12:19:20.000Z</time></trkpt>
        <trkpt lat="29.5341305" lon="103.3331547"><ele>2509.87</ele><time>2026-02-05T12:19:46.000Z</time></trkpt>
        <trkpt lat="29.534035" lon="103.3331811"><ele>2513.18</ele><time>2026-02-05T12:20:18.000Z</time></trkpt>
        <trkpt lat="29.5339427" lon="103.3332025"><ele>2516.27</ele><time>2026-02-05T12:20:50.000Z</time></trkpt>
        <trkpt lat="29.533852" lon="103.3331847"><ele>2518.19</ele><time>2026-02-05T12:21:16.000Z</time></trkpt>
        <trkpt lat="29.5337741" lon="103.3331275"><ele>2521.23</ele><time>2026-02-05T12:21:42.000Z</time></trkpt>
        <trkpt lat="29.5337079" lon="103.3330473"><ele>2524.48</ele><time>2026-02-05T12:22:36.000Z</time></trkpt>
        <trkpt lat="29.5336382" lon="103.3329649"><ele>2529.04</ele><time>2026-02-05T12:23:58.000Z</time></trkpt>
        <trkpt lat="29.5335551" lon="103.3329209"><ele>2533.54</ele><time>2026-02-05T12:29:35.000Z</time></trkpt>
        <trkpt lat="29.5334767" lon="103.332858"><ele>2538.99</ele><time>2026-02-05T12:30:17.000Z</time></trkpt>
        <trkpt lat="29.5333993" lon="103.3328008"><ele>2542.49</ele><time>2026-02-05T12:30:45.000Z</time></trkpt>
        <trkpt lat="29.5333321" lon="103.3327316"><ele>2544.75</ele><time>2026-02-05T12:31:05.000Z</time></trkpt>
        <trkpt lat="29.5332593" lon="103.3326653"><ele>2547.57</ele><time>2026-02-05T12:31:43.000Z</time></trkpt>
        <trkpt lat="29.5331735" lon="103.3326206"><ele>2551.84</ele><time>2026-02-05T12:32:09.000Z</time></trkpt>
        <trkpt lat="29.5330901" lon="103.3325691"><ele>2555.24</ele><time>2026-02-05T12:32:35.000Z</time></trkpt>
        <trkpt lat="29.5330354" lon="103.3324791"><ele>2556.84</ele><time>2026-02-05T12:32:53.000Z</time></trkpt>
        <trkpt lat="29.5329661" lon="103.3324142"><ele>2560.59</ele><time>2026-02-05T12:33:11.000Z</time></trkpt>
        <trkpt lat="29.5329057" lon="103.3323276"><ele>2563.36</ele><time>2026-02-05T12:33:31.000Z</time></trkpt>
        <trkpt lat="29.5328455" lon="103.3322433"><ele>2566.61</ele><time>2026-02-05T12:33:51.000Z</time></trkpt>
        <trkpt lat="29.5327851" lon="103.3321608"><ele>2569.38</ele><time>2026-02-05T12:35:23.000Z</time></trkpt>
        <trkpt lat="29.5327287" lon="103.3320803"><ele>2572.79</ele><time>2026-02-05T12:36:19.000Z</time></trkpt>
        <trkpt lat="29.532657" lon="103.3320149"><ele>2576.5</ele><time>2026-02-05T12:43:33.000Z</time></trkpt>
        <trkpt lat="29.5325928" lon="103.3319316"><ele>2580.95</ele><time>2026-02-05T12:44:07.000Z</time></trkpt>
        <trkpt lat="29.5325588" lon="103.3318311"><ele>2584.33</ele><time>2026-02-05T12:44:31.000Z</time></trkpt>
        <trkpt lat="29.5325212" lon="103.3317344"><ele>2587.47</ele><time>2026-02-05T12:44:59.000Z</time></trkpt>
        <trkpt lat="29.5324833" lon="103.3316378"><ele>2591.59</ele><time>2026-02-05T12:45:37.000Z</time></trkpt>
        <trkpt lat="29.5324366" lon="103.3315433"><ele>2595.36</ele><time>2026-02-05T12:46:03.000Z</time></trkpt>
        <trkpt lat="29.5324109" lon="103.3314394"><ele>2599.59</ele><time>2026-02-05T12:46:31.000Z</time></trkpt>
        <trkpt lat="29.532375" lon="103.3313368"><ele>2604.07</ele><time>2026-02-05T12:46:53.000Z</time></trkpt>
        <trkpt lat="29.5323321" lon="103.3312436"><ele>2608.09</ele><time>2026-02-05T12:47:31.000Z</time></trkpt>
        <trkpt lat="29.5322523" lon="103.3312497"><ele>2611.79</ele><time>2026-02-05T12:48:27.000Z</time></trkpt>
        <trkpt lat="29.5321868" lon="103.3313252"><ele>2615.98</ele><time>2026-02-05T12:48:51.000Z</time></trkpt>
        <trkpt lat="29.5321546" lon="103.3312775"><ele>2619.34</ele><time>2026-02-05T12:49:45.000Z</time></trkpt>
        <trkpt lat="29.5321351" lon="103.3311827"><ele>2623.73</ele><time>2026-02-05T12:50:11.000Z</time></trkpt>
        <trkpt lat="29.5321376" lon="103.3310651"><ele>2627.71</ele><time>2026-02-05T12:50:29.000Z</time></trkpt>
        <trkpt lat="29.5321539" lon="103.3309479"><ele>2631.01</ele><time>2026-02-05T12:50:51.000Z</time></trkpt>
        <trkpt lat="29.5321472" lon="103.3308281"><ele>2634.29</ele><time>2026-02-05T12:51:09.000Z</time></trkpt>
        <trkpt lat="29.5321416" lon="103.3307139"><ele>2636.13</ele><time>2026-02-05T12:51:21.000Z</time></trkpt>
        <trkpt lat="29.532146" lon="103.3305985"><ele>2637.02</ele><time>2026-02-05T12:51:35.000Z</time></trkpt>
        <trkpt lat="29.5321475" lon="103.3305524"><ele>2637.23</ele><time>2026-02-05T12:51:39.000Z</time></trkpt>
        <trkpt lat="29.5321548" lon="103.3304705"><ele>2637.49</ele><time>2026-02-05T12:52:11.000Z</time></trkpt>
        <trkpt lat="29.5321041" lon="103.3303968"><ele>2638.36</ele><time>2026-02-05T12:52:55.000Z</time></trkpt>
        <trkpt lat="29.5321397" lon="103.330313"><ele>2642.09</ele><time>2026-02-05T12:54:25.000Z</time></trkpt>
        <trkpt lat="29.5320775" lon="103.3302327"><ele>2648.51</ele><time>2026-02-05T12:55:39.000Z</time></trkpt>
        <trkpt lat="29.5319852" lon="103.3302263"><ele>2652.92</ele><time>2026-02-05T12:56:13.000Z</time></trkpt>
        <trkpt lat="29.531894" lon="103.3302259"><ele>2657.85</ele><time>2026-02-05T12:57:51.000Z</time></trkpt>
        <trkpt lat="29.5318047" lon="103.33018"><ele>2664.46</ele><time>2026-02-05T12:58:39.000Z</time></trkpt>
        <trkpt lat="29.5317458" lon="103.3301021"><ele>2669.26</ele><time>2026-02-05T12:59:01.000Z</time></trkpt>
        <trkpt lat="29.5316803" lon="103.3300289"><ele>2673.23</ele><time>2026-02-05T12:59:23.000Z</time></trkpt>
        <trkpt lat="29.5315989" lon="103.3299883"><ele>2677.15</ele><time>2026-02-05T12:59:57.000Z</time></trkpt>
        <trkpt lat="29.5315167" lon="103.3299449"><ele>2680.76</ele><time>2026-02-05T13:00:33.000Z</time></trkpt>
        <trkpt lat="29.5314304" lon="103.3299042"><ele>2685.17</ele><time>2026-02-05T13:01:17.000Z</time></trkpt>
        <trkpt lat="29.5313651" lon="103.3298321"><ele>2690.03</ele><time>2026-02-05T13:01:59.000Z</time></trkpt>
        <trkpt lat="29.5313147" lon="103.3297419"><ele>2696.36</ele><time>2026-02-05T13:02:39.000Z</time></trkpt>
        <trkpt lat="29.5313147" lon="103.3297419"><ele>2696.36</ele><time>2026-02-05T13:02:39.000Z</time></trkpt>
        <trkpt lat="29.5312853" lon="103.3297349"><ele>2711.91</ele><time>2026-02-05T13:14:07.000Z</time></trkpt>
        <trkpt lat="29.53123" lon="103.3296447"><ele>2718.61</ele><time>2026-02-05T13:15:38.000Z</time></trkpt>
        <trkpt lat="29.531184" lon="103.3295509"><ele>2718.61</ele><time>2026-02-05T13:16:02.000Z</time></trkpt>
        <trkpt lat="29.5311294" lon="103.3294559"><ele>2721</ele><time>2026-02-05T13:16:44.000Z</time></trkpt>
        <trkpt lat="29.5310958" lon="103.3293508"><ele>2723.82</ele><time>2026-02-05T13:16:58.000Z</time></trkpt>
        <trkpt lat="29.5310837" lon="103.3292354"><ele>2726.02</ele><time>2026-02-05T13:17:14.000Z</time></trkpt>
        <trkpt lat="29.5310814" lon="103.3291218"><ele>2728.75</ele><time>2026-02-05T13:17:26.000Z</time></trkpt>
        <trkpt lat="29.5310771" lon="103.3290123"><ele>2731.2</ele><time>2026-02-05T13:17:38.000Z</time></trkpt>
        <trkpt lat="29.5310676" lon="103.3289078"><ele>2732.31</ele><time>2026-02-05T13:17:56.000Z</time></trkpt>
        <trkpt lat="29.5310555" lon="103.3288047"><ele>2734.79</ele><time>2026-02-05T13:18:18.000Z</time></trkpt>
        <trkpt lat="29.531083" lon="103.3287069"><ele>2736.82</ele><time>2026-02-05T13:18:44.000Z</time></trkpt>
        <trkpt lat="29.5311199" lon="103.3286085"><ele>2738.63</ele><time>2026-02-05T13:19:04.000Z</time></trkpt>
        <trkpt lat="29.53116" lon="103.328511"><ele>2740.29</ele><time>2026-02-05T13:19:26.000Z</time></trkpt>
        <trkpt lat="29.5312005" lon="103.3284022"><ele>2743.21</ele><time>2026-02-05T13:19:46.000Z</time></trkpt>
        <trkpt lat="29.5312241" lon="103.3282906"><ele>2745.98</ele><time>2026-02-05T13:20:02.000Z</time></trkpt>
        <trkpt lat="29.5312489" lon="103.3281764"><ele>2747.35</ele><time>2026-02-05T13:20:16.000Z</time></trkpt>
        <trkpt lat="29.5312428" lon="103.3280673"><ele>2748.06</ele><time>2026-02-05T13:20:34.000Z</time></trkpt>
        <trkpt lat="29.5312517" lon="103.3279524"><ele>2749.13</ele><time>2026-02-05T13:20:48.000Z</time></trkpt>
        <trkpt lat="29.5312441" lon="103.3278445"><ele>2750.61</ele><time>2026-02-05T13:21:02.000Z</time></trkpt>
        <trkpt lat="29.5312279" lon="103.3277338"><ele>2752.67</ele><time>2026-02-05T13:21:20.000Z</time></trkpt>
        <trkpt lat="29.5312169" lon="103.3276214"><ele>2755.33</ele><time>2026-02-05T13:21:38.000Z</time></trkpt>
        <trkpt lat="29.5312116" lon="103.3275129"><ele>2757.52</ele><time>2026-02-05T13:21:56.000Z</time></trkpt>
        <trkpt lat="29.5312003" lon="103.3274083"><ele>2759.3</ele><time>2026-02-05T13:22:14.000Z</time></trkpt>
        <trkpt lat="29.5312007" lon="103.3273014"><ele>2761.49</ele><time>2026-02-05T13:22:40.000Z</time></trkpt>
        <trkpt lat="29.5311796" lon="103.327198"><ele>2765.09</ele><time>2026-02-05T13:23:04.000Z</time></trkpt>
        <trkpt lat="29.5311442" lon="103.3271015"><ele>2768.27</ele><time>2026-02-05T13:23:32.000Z</time></trkpt>
        <trkpt lat="29.531068" lon="103.3270487"><ele>2771.7</ele><time>2026-02-05T13:23:50.000Z</time></trkpt>
        <trkpt lat="29.5309859" lon="103.326997"><ele>2775.17</ele><time>2026-02-05T13:24:08.000Z</time></trkpt>
        <trkpt lat="29.5308954" lon="103.326962"><ele>2778.04</ele><time>2026-02-05T13:24:24.000Z</time></trkpt>
        <trkpt lat="29.530806" lon="103.3269163"><ele>2779.52</ele><time>2026-02-05T13:24:42.000Z</time></trkpt>
        <trkpt lat="29.5307693" lon="103.3268204"><ele>2781.18</ele><time>2026-02-05T13:25:16.000Z</time></trkpt>
        <trkpt lat="29.5306997" lon="103.3268199"><ele>2784.59</ele><time>2026-02-05T13:25:40.000Z</time></trkpt>
        <trkpt lat="29.5306141" lon="103.3268502"><ele>2789.42</ele><time>2026-02-05T13:26:02.000Z</time></trkpt>
        <trkpt lat="29.5305261" lon="103.3268896"><ele>2792.97</ele><time>2026-02-05T13:26:22.000Z</time></trkpt>
        <trkpt lat="29.5304374" lon="103.3269333"><ele>2796.78</ele><time>2026-02-05T13:26:42.000Z</time></trkpt>
        <trkpt lat="29.5303539" lon="103.3269852"><ele>2800.12</ele><time>2026-02-05T13:27:02.000Z</time></trkpt>
        <trkpt lat="29.5302628" lon="103.3270333"><ele>2803.51</ele><time>2026-02-05T13:27:20.000Z</time></trkpt>
        <trkpt lat="29.5301716" lon="103.3270808"><ele>2806.33</ele><time>2026-02-05T13:27:36.000Z</time></trkpt>
        <trkpt lat="29.5300901" lon="103.3271352"><ele>2809.66</ele><time>2026-02-05T13:27:50.000Z</time></trkpt>
        <trkpt lat="29.5300147" lon="103.327199"><ele>2811.96</ele><time>2026-02-05T13:28:02.000Z</time></trkpt>
        <trkpt lat="29.5299433" lon="103.3272674"><ele>2813.1</ele><time>2026-02-05T13:28:16.000Z</time></trkpt>
        <trkpt lat="29.5298896" lon="103.3273533"><ele>2814.02</ele><time>2026-02-05T13:28:34.000Z</time></trkpt>
        <trkpt lat="29.5298454" lon="103.3274555"><ele>2814.33</ele><time>2026-02-05T13:35:40.000Z</time></trkpt>
        <trkpt lat="29.529812" lon="103.3275675"><ele>2813.28</ele><time>2026-02-05T13:35:54.000Z</time></trkpt>
        <trkpt lat="29.5297704" lon="103.3276641"><ele>2812.29</ele><time>2026-02-05T13:36:06.000Z</time></trkpt>
        <trkpt lat="29.5297143" lon="103.3277532"><ele>2812.46</ele><time>2026-02-05T13:36:22.000Z</time></trkpt>
        <trkpt lat="29.5296304" lon="103.3278072"><ele>2813.76</ele><time>2026-02-05T13:36:34.000Z</time></trkpt>
        <trkpt lat="29.5295242" lon="103.3278171"><ele>2815.14</ele><time>2026-02-05T13:36:44.000Z</time></trkpt>
        <trkpt lat="29.5294193" lon="103.3278519"><ele>2816.54</ele><time>2026-02-05T13:36:54.000Z</time></trkpt>
        <trkpt lat="29.5293174" lon="103.3278382"><ele>2818.92</ele><time>2026-02-05T13:37:04.000Z</time></trkpt>
        <trkpt lat="29.5292449" lon="103.3278954"><ele>2821.15</ele><time>2026-02-05T13:37:26.000Z</time></trkpt>
        <trkpt lat="29.5292139" lon="103.3279948"><ele>2822.79</ele><time>2026-02-05T13:37:42.000Z</time></trkpt>
        <trkpt lat="29.5291877" lon="103.3281003"><ele>2822.98</ele><time>2026-02-05T13:38:00.000Z</time></trkpt>
        <trkpt lat="29.5291692" lon="103.3282097"><ele>2823.19</ele><time>2026-02-05T13:38:20.000Z</time></trkpt>
        <trkpt lat="29.5291416" lon="103.3283156"><ele>2824.79</ele><time>2026-02-05T13:38:42.000Z</time></trkpt>
        <trkpt lat="29.5291229" lon="103.3284201"><ele>2827.75</ele><time>2026-02-05T13:39:02.000Z</time></trkpt>
        <trkpt lat="29.5290937" lon="103.3285222"><ele>2831.52</ele><time>2026-02-05T13:39:22.000Z</time></trkpt>
        <trkpt lat="29.5290517" lon="103.328626"><ele>2834.53</ele><time>2026-02-05T13:39:44.000Z</time></trkpt>
        <trkpt lat="29.5290011" lon="103.3287255"><ele>2837.99</ele><time>2026-02-05T13:40:02.000Z</time></trkpt>
        <trkpt lat="29.528967" lon="103.3288359"><ele>2839.59</ele><time>2026-02-05T13:40:20.000Z</time></trkpt>
        <trkpt lat="29.5289207" lon="103.3289387"><ele>2840.78</ele><time>2026-02-05T13:40:36.000Z</time></trkpt>
        <trkpt lat="29.5288627" lon="103.3290333"><ele>2841.48</ele><time>2026-02-05T13:40:52.000Z</time></trkpt>
        <trkpt lat="29.5288104" lon="103.3291289"><ele>2842.94</ele><time>2026-02-05T13:41:08.000Z</time></trkpt>
        <trkpt lat="29.5287555" lon="103.3292193"><ele>2845.32</ele><time>2026-02-05T13:41:24.000Z</time></trkpt>
        <trkpt lat="29.528701" lon="103.3293046"><ele>2847.37</ele><time>2026-02-05T13:41:40.000Z</time></trkpt>
        <trkpt lat="29.5286528" lon="103.3293942"><ele>2849.06</ele><time>2026-02-05T13:41:52.000Z</time></trkpt>
        <trkpt lat="29.5286265" lon="103.3295026"><ele>2850.05</ele><time>2026-02-05T13:42:06.000Z</time></trkpt>
        <trkpt lat="29.5286078" lon="103.3296142"><ele>2851.92</ele><time>2026-02-05T13:42:22.000Z</time></trkpt>
        <trkpt lat="29.5285888" lon="103.3297269"><ele>2854.09</ele><time>2026-02-05T13:42:38.000Z</time></trkpt>
        <trkpt lat="29.5285771" lon="103.3298432"><ele>2856.02</ele><time>2026-02-05T13:42:56.000Z</time></trkpt>
        <trkpt lat="29.5285575" lon="103.3299564"><ele>2857.21</ele><time>2026-02-05T13:43:10.000Z</time></trkpt>
        <trkpt lat="29.5285096" lon="103.3300518"><ele>2858.72</ele><time>2026-02-05T13:43:22.000Z</time></trkpt>
        <trkpt lat="29.5284268" lon="103.3300986"><ele>2858.98</ele><time>2026-02-05T13:43:38.000Z</time></trkpt>
        <trkpt lat="29.5283422" lon="103.3301618"><ele>2859.66</ele><time>2026-02-05T13:43:52.000Z</time></trkpt>
        <trkpt lat="29.5282953" lon="103.3302522"><ele>2859.77</ele><time>2026-02-05T13:44:02.000Z</time></trkpt>
        <trkpt lat="29.5282761" lon="103.3303587"><ele>2858.97</ele><time>2026-02-05T13:44:16.000Z</time></trkpt>
        <trkpt lat="29.5282939" lon="103.3304743"><ele>2860.05</ele><time>2026-02-05T13:44:30.000Z</time></trkpt>
        <trkpt lat="29.5283081" lon="103.3305903"><ele>2862.12</ele><time>2026-02-05T13:44:48.000Z</time></trkpt>
        <trkpt lat="29.5282662" lon="103.3306836"><ele>2864.58</ele><time>2026-02-05T13:45:42.000Z</time></trkpt>
        <trkpt lat="29.5282013" lon="103.3307624"><ele>2865.26</ele><time>2026-02-05T13:46:00.000Z</time></trkpt>
        <trkpt lat="29.5281303" lon="103.3308359"><ele>2866.62</ele><time>2026-02-05T13:46:20.000Z</time></trkpt>
        <trkpt lat="29.528087" lon="103.3309296"><ele>2868.19</ele><time>2026-02-05T13:46:42.000Z</time></trkpt>
        <trkpt lat="29.528051" lon="103.3310308"><ele>2869.79</ele><time>2026-02-05T13:46:56.000Z</time></trkpt>
        <trkpt lat="29.5280219" lon="103.3311356"><ele>2872.81</ele><time>2026-02-05T13:47:14.000Z</time></trkpt>
        <trkpt lat="29.527974" lon="103.3312309"><ele>2876.08</ele><time>2026-02-05T13:47:32.000Z</time></trkpt>
        <trkpt lat="29.5279054" lon="103.3313018"><ele>2879.29</ele><time>2026-02-05T13:47:48.000Z</time></trkpt>
        <trkpt lat="29.5278395" lon="103.331376"><ele>2882.28</ele><time>2026-02-05T13:48:02.000Z</time></trkpt>
        <trkpt lat="29.5277917" lon="103.3314666"><ele>2884.68</ele><time>2026-02-05T13:48:18.000Z</time></trkpt>
        <trkpt lat="29.5277428" lon="103.3315586"><ele>2886.95</ele><time>2026-02-05T13:48:36.000Z</time></trkpt>
        <trkpt lat="29.5277045" lon="103.3316558"><ele>2889.32</ele><time>2026-02-05T13:48:52.000Z</time></trkpt>
        <trkpt lat="29.527699" lon="103.3317863"><ele>2891.39</ele><time>2026-02-05T13:53:12.000Z</time></trkpt>
        <trkpt lat="29.5276865" lon="103.331903"><ele>2891.5</ele><time>2026-02-05T13:53:24.000Z</time></trkpt>
        <trkpt lat="29.5276763" lon="103.33202"><ele>2891.99</ele><time>2026-02-05T13:53:34.000Z</time></trkpt>
        <trkpt lat="29.5276205" lon="103.3320974"><ele>2893.65</ele><time>2026-02-05T13:53:48.000Z</time></trkpt>
        <trkpt lat="29.527544" lon="103.3321589"><ele>2896.13</ele><time>2026-02-05T13:54:08.000Z</time></trkpt>
        <trkpt lat="29.5275294" lon="103.3322564"><ele>2898.91</ele><time>2026-02-05T13:54:30.000Z</time></trkpt>
        <trkpt lat="29.5275605" lon="103.3323585"><ele>2900.88</ele><time>2026-02-05T13:54:48.000Z</time></trkpt>
        <trkpt lat="29.5275162" lon="103.3324265"><ele>2902.81</ele><time>2026-02-05T13:55:00.000Z</time></trkpt>
        <trkpt lat="29.5274432" lon="103.3324926"><ele>2904.25</ele><time>2026-02-05T13:55:18.000Z</time></trkpt>
        <trkpt lat="29.5273427" lon="103.332514"><ele>2905.23</ele><time>2026-02-05T13:55:40.000Z</time></trkpt>
        <trkpt lat="29.5272524" lon="103.3324681"><ele>2906.83</ele><time>2026-02-05T13:55:54.000Z</time></trkpt>
        <trkpt lat="29.5271816" lon="103.3323675"><ele>2908.32</ele><time>2026-02-05T13:56:06.000Z</time></trkpt>
        <trkpt lat="29.5270975" lon="103.332311"><ele>2909.83</ele><time>2026-02-05T13:56:20.000Z</time></trkpt>
        <trkpt lat="29.5270347" lon="103.3323668"><ele>2910.43</ele><time>2026-02-05T13:56:34.000Z</time></trkpt>
        <trkpt lat="29.5270022" lon="103.3324718"><ele>2913.87</ele><time>2026-02-05T13:56:50.000Z</time></trkpt>
        <trkpt lat="29.5270297" lon="103.3325885"><ele>2916.45</ele><time>2026-02-05T13:57:08.000Z</time></trkpt>
        <trkpt lat="29.527054" lon="103.3327163"><ele>2917.68</ele><time>2026-02-05T13:57:22.000Z</time></trkpt>
        <trkpt lat="29.5270544" lon="103.3328381"><ele>2919.96</ele><time>2026-02-05T13:57:34.000Z</time></trkpt>
        <trkpt lat="29.5270283" lon="103.3329506"><ele>2921.09</ele><time>2026-02-05T13:57:50.000Z</time></trkpt>
        <trkpt lat="29.5270541" lon="103.3330536"><ele>2921.22</ele><time>2026-02-05T13:58:02.000Z</time></trkpt>
        <trkpt lat="29.527099" lon="103.3331543"><ele>2922.16</ele><time>2026-02-05T13:58:18.000Z</time></trkpt>
        <trkpt lat="29.5271169" lon="103.3332571"><ele>2922.39</ele><time>2026-02-05T13:58:36.000Z</time></trkpt>
        <trkpt lat="29.5270761" lon="103.3333529"><ele>2923.6</ele><time>2026-02-05T13:58:50.000Z</time></trkpt>
        <trkpt lat="29.5270064" lon="103.3334298"><ele>2925.98</ele><time>2026-02-05T13:59:02.000Z</time></trkpt>
        <trkpt lat="29.5269235" lon="103.3334883"><ele>2928.71</ele><time>2026-02-05T13:59:24.000Z</time></trkpt>
        <trkpt lat="29.5268295" lon="103.3334956"><ele>2930.38</ele><time>2026-02-05T13:59:46.000Z</time></trkpt>
        <trkpt lat="29.5267343" lon="103.3335062"><ele>2932.75</ele><time>2026-02-05T14:00:04.000Z</time></trkpt>
        <trkpt lat="29.5266363" lon="103.3335225"><ele>2936.39</ele><time>2026-02-05T14:00:28.000Z</time></trkpt>
        <trkpt lat="29.5265504" lon="103.3335639"><ele>2939.94</ele><time>2026-02-05T14:00:44.000Z</time></trkpt>
        <trkpt lat="29.5264606" lon="103.3336139"><ele>2943.73</ele><time>2026-02-05T14:01:02.000Z</time></trkpt>
        <trkpt lat="29.5263665" lon="103.3336553"><ele>2946.59</ele><time>2026-02-05T14:01:18.000Z</time></trkpt>
        <trkpt lat="29.5262847" lon="103.3337084"><ele>2946.82</ele><time>2026-02-05T14:01:30.000Z</time></trkpt>
        <trkpt lat="29.5262035" lon="103.3337574"><ele>2947.34</ele><time>2026-02-05T14:01:44.000Z</time></trkpt>
        <trkpt lat="29.5261172" lon="103.33381"><ele>2948.26</ele><time>2026-02-05T14:02:02.000Z</time></trkpt>
        <trkpt lat="29.5260376" lon="103.3338666"><ele>2948.81</ele><time>2026-02-05T14:02:22.000Z</time></trkpt>
        <trkpt lat="29.5259501" lon="103.3339197"><ele>2950.45</ele><time>2026-02-05T14:02:38.000Z</time></trkpt>
        <trkpt lat="29.5258546" lon="103.3339578"><ele>2953.03</ele><time>2026-02-05T14:02:54.000Z</time></trkpt>
        <trkpt lat="29.5257836" lon="103.3340316"><ele>2955.64</ele><time>2026-02-05T14:03:18.000Z</time></trkpt>
        <trkpt lat="29.525705" lon="103.3340986"><ele>2957.04</ele><time>2026-02-05T14:03:32.000Z</time></trkpt>
        <trkpt lat="29.5256219" lon="103.3341612"><ele>2957.87</ele><time>2026-02-05T14:03:50.000Z</time></trkpt>
        <trkpt lat="29.5255517" lon="103.3342326"><ele>2959.27</ele><time>2026-02-05T14:04:06.000Z</time></trkpt>
        <trkpt lat="29.5254957" lon="103.3343169"><ele>2960.17</ele><time>2026-02-05T14:04:22.000Z</time></trkpt>
        <trkpt lat="29.5254436" lon="103.3344026"><ele>2961.48</ele><time>2026-02-05T14:04:38.000Z</time></trkpt>
        <trkpt lat="29.5253795" lon="103.3344794"><ele>2963</ele><time>2026-02-05T14:04:56.000Z</time></trkpt>
        <trkpt lat="29.525323" lon="103.3345668"><ele>2964.46</ele><time>2026-02-05T14:05:16.000Z</time></trkpt>
        <trkpt lat="29.5252546" lon="103.334644"><ele>2966.06</ele><time>2026-02-05T14:05:38.000Z</time></trkpt>
        <trkpt lat="29.5251814" lon="103.3347083"><ele>2969.46</ele><time>2026-02-05T14:05:58.000Z</time></trkpt>
        <trkpt lat="29.525106" lon="103.334767"><ele>2972.15</ele><time>2026-02-05T14:06:14.000Z</time></trkpt>
        <trkpt lat="29.5250371" lon="103.3348387"><ele>2974.26</ele><time>2026-02-05T14:06:44.000Z</time></trkpt>
        <trkpt lat="29.524942" lon="103.3348424"><ele>2976.87</ele><time>2026-02-05T14:07:16.000Z</time></trkpt>
        <trkpt lat="29.524846" lon="103.3348125"><ele>2978.45</ele><time>2026-02-05T14:07:30.000Z</time></trkpt>
        <trkpt lat="29.5247531" lon="103.3347752"><ele>2979.09</ele><time>2026-02-05T14:08:02.000Z</time></trkpt>
        <trkpt lat="29.5246601" lon="103.3347676"><ele>2980.86</ele><time>2026-02-05T14:08:24.000Z</time></trkpt>
        <trkpt lat="29.5245827" lon="103.3348161"><ele>2983.23</ele><time>2026-02-05T14:08:44.000Z</time></trkpt>
        <trkpt lat="29.5244996" lon="103.334878"><ele>2984.34</ele><time>2026-02-05T14:08:58.000Z</time></trkpt>
        <trkpt lat="29.5244413" lon="103.3349703"><ele>2985.65</ele><time>2026-02-05T14:09:18.000Z</time></trkpt>
        <trkpt lat="29.5243667" lon="103.3349657"><ele>2984.2</ele><time>2026-02-05T14:09:22.000Z</time></trkpt>
        <trkpt lat="29.5242768" lon="103.3349653"><ele>2985.86</ele><time>2026-02-05T14:09:32.000Z</time></trkpt>
        <trkpt lat="29.5241837" lon="103.3349704"><ele>2986.58</ele><time>2026-02-05T14:09:42.000Z</time></trkpt>
        <trkpt lat="29.5240869" lon="103.3349755"><ele>2986.76</ele><time>2026-02-05T14:09:52.000Z</time></trkpt>
        <trkpt lat="29.5239992" lon="103.3349715"><ele>2986.69</ele><time>2026-02-05T14:10:02.000Z</time></trkpt>
        <trkpt lat="29.5239078" lon="103.3349404"><ele>2986.59</ele><time>2026-02-05T14:10:18.000Z</time></trkpt>
        <trkpt lat="29.5238103" lon="103.3349276"><ele>2987.86</ele><time>2026-02-05T14:10:44.000Z</time></trkpt>
        <trkpt lat="29.5237431" lon="103.3349146"><ele>2988.63</ele><time>2026-02-05T14:10:54.000Z</time></trkpt>
        <trkpt lat="29.5236632" lon="103.334877"><ele>2989.54</ele><time>2026-02-05T14:11:12.000Z</time></trkpt>
        <trkpt lat="29.5235727" lon="103.3348914"><ele>2990.2</ele><time>2026-02-05T14:11:26.000Z</time></trkpt>
        <trkpt lat="29.5234781" lon="103.3348823"><ele>2990.57</ele><time>2026-02-05T14:11:42.000Z</time></trkpt>
        <trkpt lat="29.5233799" lon="103.3348606"><ele>2991.71</ele><time>2026-02-05T14:11:56.000Z</time></trkpt>
        <trkpt lat="29.5232785" lon="103.3348325"><ele>2992.87</ele><time>2026-02-05T14:12:08.000Z</time></trkpt>
        <trkpt lat="29.5231796" lon="103.3347965"><ele>2993.86</ele><time>2026-02-05T14:12:20.000Z</time></trkpt>
        <trkpt lat="29.5230782" lon="103.3347634"><ele>2994.52</ele><time>2026-02-05T14:12:32.000Z</time></trkpt>
        <trkpt lat="29.5229849" lon="103.3347618"><ele>2995.5</ele><time>2026-02-05T14:13:35.000Z</time></trkpt>
        <trkpt lat="29.5228922" lon="103.334736"><ele>2997.34</ele><time>2026-02-05T14:13:49.000Z</time></trkpt>
        <trkpt lat="29.5228021" lon="103.3347591"><ele>2998.62</ele><time>2026-02-05T14:14:07.000Z</time></trkpt>
        <trkpt lat="29.5227142" lon="103.334798"><ele>3000.67</ele><time>2026-02-05T14:14:21.000Z</time></trkpt>
        <trkpt lat="29.5226637" lon="103.334885"><ele>3001.44</ele><time>2026-02-05T14:14:35.000Z</time></trkpt>
        <trkpt lat="29.5226272" lon="103.3349866"><ele>3002.55</ele><time>2026-02-05T14:14:55.000Z</time></trkpt>
        <trkpt lat="29.5226394" lon="103.3350986"><ele>3003.01</ele><time>2026-02-05T14:15:11.000Z</time></trkpt>
        <trkpt lat="29.5226675" lon="103.3352109"><ele>3004.07</ele><time>2026-02-05T14:15:27.000Z</time></trkpt>
        <trkpt lat="29.5226906" lon="103.3353273"><ele>3005.5</ele><time>2026-02-05T14:15:45.000Z</time></trkpt>
        <trkpt lat="29.5227022" lon="103.335443"><ele>3006.86</ele><time>2026-02-05T14:16:07.000Z</time></trkpt>
        <trkpt lat="29.5227254" lon="103.3355478"><ele>3008.87</ele><time>2026-02-05T14:16:33.000Z</time></trkpt>
        <trkpt lat="29.5227632" lon="103.3356445"><ele>3010.99</ele><time>2026-02-05T14:16:55.000Z</time></trkpt>
        <trkpt lat="29.5227632" lon="103.3356445"><ele>3010.99</ele><time>2026-02-05T14:16:55.000Z</time></trkpt>
        <trkpt lat="29.522783" lon="103.3357517"><ele>3020.64</ele><time>2026-02-05T14:19:48.000Z</time></trkpt>
        <trkpt lat="29.5227705" lon="103.3358643"><ele>3021.54</ele><time>2026-02-05T14:20:06.000Z</time></trkpt>
        <trkpt lat="29.5226881" lon="103.3359065"><ele>3021.91</ele><time>2026-02-05T14:20:18.000Z</time></trkpt>
        <trkpt lat="29.5227014" lon="103.336021"><ele>3024.16</ele><time>2026-02-05T14:20:44.000Z</time></trkpt>
        <trkpt lat="29.5227827" lon="103.3359549"><ele>3024.92</ele><time>2026-02-05T14:21:40.000Z</time></trkpt>
        <trkpt lat="29.5227827" lon="103.3359549"><ele>3024.92</ele><time>2026-02-05T14:33:12.000Z</time></trkpt>
      </trkseg>
  </trk>
</gpx>